GFSWCAN_250_spd_000.txt.gz
Wind_Speed
85 82 78 76 69 66 63 62 60 56 55 54 54 53 52 54 53 51 50 52 51 55 53 51 50 47 44 43 44 44 45 47 48 49 49 49 49 53 55 59 62 66 68 70 72 74 77 80 85 85 88 84 90 93
89 86 82 82 77 73 70 69 67 64 63 59 61 63 57 56 59 61 61 52 53 53 51 49 50 50 48 48 48 47 51 54 52 54 56 56 57 57 61 64 69 69 73 74 78 78 86 89 91 92 97 99 100 105
93 87 87 86 82 79 75 72 73 73 70 70 64 61 60 59 57 57 53 51 51 50 51 50 52 53 56 54 52 53 56 57 57 59 59 61 63 67 69 68 70 74 77 80 84 88 91 93 94 97 101 106 109 115
97 94 90 87 87 84 81 76 73 74 73 68 68 66 65 61 59 59 59 58 57 57 55 57 57 58 61 61 61 62 61 62 63 64 65 68 71 71 69 74 75 82 84 90 93 94 94 97 99 102 108 115 118 120
105 100 96 93 92 90 88 83 80 77 76 74 71 73 72 67 65 64 64 62 61 62 58 60 64 67 69 67 66 65 66 68 71 72 74 76 79 85 80 78 83 89 93 97 98 101 102 100 104 108 114 117 119 126
111 108 103 101 97 97 92 87 84 83 80 80 78 77 76 73 71 69 67 69 70 72 69 66 63 67 70 70 70 70 71 74 77 79 81 81 84 88 86 84 85 94 99 103 104 105 107 111 115 119 120 123 128 132
116 113 111 107 105 101 99 95 93 90 88 86 84 81 80 78 77 75 70 70 75 76 74 69 66 65 72 75 76 77 79 80 81 84 81 83 86 92 93 92 100 103 106 106 109 112 116 120 121 126 129 133 137 140
122 119 116 112 109 107 104 101 98 96 96 93 90 87 87 85 82 79 79 80 83 85 84 76 71 72 74 78 83 85 87 89 86 88 89 92 92 98 101 106 105 109 112 116 120 120 122 123 126 129 132 139 140 144
126 123 123 122 117 109 110 108 106 103 103 98 95 95 93 92 92 91 90 90 90 92 90 79 78 78 80 82 87 90 94 96 96 97 102 102 98 105 114 115 115 118 121 121 122 123 126 127 132 137 139 143 145 141
129 130 125 122 116 117 114 113 109 105 108 106 102 98 96 96 99 99 99 97 98 96 97 91 88 91 93 94 97 101 103 105 106 102 104 104 105 113 119 121 123 126 124 126 130 131 132 135 138 140 143 140 137 132
134 132 130 126 124 121 119 115 117 115 114 111 109 104 100 101 103 104 104 103 103 102 100 99 103 106 104 105 108 110 110 111 108 108 111 111 114 122 126 129 133 130 132 133 133 135 138 139 137 139 138 133 127 120
131 132 134 130 132 130 124 119 117 117 116 113 113 112 113 112 110 110 109 107 106 110 110 111 114 116 115 117 116 117 117 117 119 119 121 124 125 132 132 131 130 132 136 134 133 133 133 138 134 129 125 117 110 108
126 125 132 129 129 132 131 125 127 126 121 118 119 120 120 120 117 119 117 116 117 117 118 119 119 120 120 122 124 124 123 123 121 125 129 132 136 138 138 137 133 133 132 130 130 130 126 122 118 115 110 106 103 103
113 120 122 126 123 124 127 132 134 133 133 133 130 125 123 123 124 123 123 125 126 125 125 128 127 127 125 126 125 125 127 129 132 134 139 141 142 144 140 139 140 132 128 126 122 119 114 109 105 103 104 101 96 93
108 112 111 113 124 124 120 119 129 129 125 128 129 134 134 129 129 130 130 131 129 130 132 132 133 131 129 129 130 130 135 141 145 150 147 146 140 135 133 128 124 121 115 112 108 103 100 102 101 96 95 89 83 82
101 104 112 114 108 104 106 117 119 116 116 113 115 121 121 122 131 133 137 137 135 134 134 135 135 136 137 137 137 142 147 150 145 139 134 130 130 128 124 118 112 108 103 97 95 96 96 95 91 86 84 82 77 76
97 98 100 97 97 93 89 91 104 119 115 116 124 122 124 127 126 125 130 135 136 139 141 144 144 146 145 147 149 144 133 125 120 119 119 121 117 111 109 105 102 99 97 95 95 94 91 86 82 78 75 74 72 71
92 92 91 89 89 89 88 88 84 83 90 98 102 104 104 104 106 109 115 119 124 129 134 132 126 123 125 122 118 116 112 109 108 106 103 106 106 102 100 98 95 94 92 90 88 83 79 75 72 71 70 68 65 63
87 87 86 86 87 88 88 87 86 85 84 88 93 95 96 96 95 96 98 101 104 107 106 107 105 103 105 103 101 99 100 100 97 95 95 95 96 96 93 89 88 85 83 80 76 73 71 70 68 66 65 62 59 56
79 81 81 80 81 83 85 86 86 84 84 84 86 88 90 91 91 93 94 94 93 91 90 91 94 94 93 94 94 93 94 94 92 89 88 90 91 87 85 84 80 75 74 72 71 69 67 66 62 59 57 55 53 52
71 75 77 78 79 79 79 81 82 81 82 83 84 84 86 86 88 88 89 88 85 88 89 91 88 87 89 90 90 89 87 87 86 84 83 81 83 78 76 74 71 70 68 65 65 64 62 60 58 54 52 50 49 49
66 67 69 71 74 75 75 76 78 80 80 83 84 83 83 84 84 84 81 81 84 91 91 88 81 80 84 87 86 82 79 78 78 77 75 70 67 67 67 66 65 64 62 61 60 58 57 54 53 51 50 48 46 45
58 61 63 65 66 67 70 73 75 76 75 77 77 76 76 79 80 76 74 77 85 90 89 74 74 76 75 75 73 74 73 71 71 69 65 63 63 61 61 60 59 58 58 57 55 53 52 51 51 50 48 46 44 42
50 53 55 57 60 63 65 66 65 66 64 66 67 69 71 72 69 68 70 75 81 78 67 67 64 63 64 64 65 67 67 66 63 61 58 58 60 59 57 56 55 53 54 54 53 50 48 48 46 46 46 45 43 42
44 47 49 53 55 56 56 56 55 55 56 56 59 62 63 60 57 57 63 72 64 59 61 60 57 56 58 59 59 60 58 56 56 56 52 53 54 55 53 52 52 49 50 49 48 47 46 45 44 43 41 41 40 39
42 47 49 47 46 46 44 45 47 48 51 51 53 51 49 48 51 59 66 56 53 53 51 50 53 52 52 53 54 54 52 51 51 51 48 48 49 51 51 50 48 45 46 46 44 42 42 42 41 41 40 39 39 39
41 39 38 37 36 37 40 44 46 46 45 43 42 42 44 49 55 56 49 48 47 46 47 47 46 46 47 48 48 49 49 50 49 47 44 43 45 46 46 46 45 44 42 41 40 40 39 39 39 39 39 39 39 40
30 32 31 30 34 35 37 39 39 37 36 34 37 42 42 44 48 47 44 42 44 44 43 42 42 43 43 43 43 44 45 45 44 43 43 40 40 41 41 41 40 39 39 39 39 38 37 38 39 40 40 40 39 39
27 27 29 31 30 32 36 31 30 31 31 34 37 41 41 40 41 39 41 42 42 42 42 41 38 38 39 39 41 42 41 41 41 40 39 38 37 38 38 38 38 37 38 38 38 39 39 39 39 39 38 38 37 37
22 24 28 26 27 29 26 24 33 33 31 32 36 38 36 34 34 40 39 37 38 39 38 37 36 35 35 37 37 37 37 36 36 35 34 33 32 33 34 35 36 38 38 39 38 37 37 37 37 37 38 38 38 38
21 23 25 25 24 22 24 27 31 28 26 27 30 30 28 30 32 34 34 33 35 35 35 34 34 33 32 32 32 32 33 33 32 33 33 33 34 35 35 35 35 36 36 36 36 36 37 37 37 37 37 37 36 36
20 21 22 22 22 21 25 28 27 25 23 26 27 30 29 30 29 29 29 33 32 31 30 29 29 29 29 29 29 31 32 32 32 33 34 35 35 36 35 35 36 36 36 36 37 38 38 38 38 38 37 36 36 36
18 20 22 23 22 21 22 28 26 24 24 25 24 26 27 28 28 26 24 27 29 29 28 28 29 29 30 30 32 32 33 33 33 33 34 34 34 34 35 35 36 37 38 38 38 37 36 35 35 35 35 36 36 35

GFSWCAN_250_spd_003.txt.gz
Wind_Speed
84 81 76 71 68 65 63 61 63 63 63 63 63 63 61 59 58 57 57 58 56 54 54 54 55 54 52 51 49 47 47 48 45 46 46 47 47 50 49 52 56 59 60 64 67 72 76 79 78 81 85 87 93 97
87 84 79 78 73 68 64 61 60 63 65 66 65 65 64 63 64 64 63 61 61 59 58 58 57 56 54 51 50 50 49 48 48 49 50 50 51 53 55 54 62 63 70 70 77 77 82 82 85 88 92 94 99 104
92 88 86 82 79 75 71 68 65 62 62 64 61 65 66 68 66 63 64 62 60 61 60 59 55 53 53 53 55 51 52 51 53 53 53 57 60 60 60 60 64 69 77 74 77 80 84 87 91 94 97 101 104 107
99 94 91 88 84 81 77 74 72 69 67 65 65 65 66 63 61 61 64 64 63 62 59 57 56 56 56 55 56 57 58 58 60 61 62 64 62 63 63 64 67 74 75 80 81 83 88 95 97 97 102 107 113 118
103 100 95 92 90 86 82 79 76 75 72 67 67 69 69 68 70 70 68 63 64 64 58 58 57 62 60 60 60 60 60 60 65 65 65 65 68 69 65 68 75 82 83 87 86 93 97 98 102 107 112 114 121 125
108 103 101 95 93 91 89 86 82 79 78 77 72 72 74 71 72 69 64 65 67 69 63 60 59 64 66 68 68 68 69 68 67 66 66 70 77 80 77 77 82 89 90 92 95 100 105 109 110 112 117 126 131 133
112 108 107 102 96 94 94 90 87 83 81 81 82 80 78 76 73 71 70 72 74 75 72 68 65 65 71 74 75 77 76 75 74 74 73 77 81 85 84 83 92 92 96 100 106 106 109 111 117 123 128 130 132 134
117 118 112 107 101 97 95 95 93 89 87 86 84 84 85 83 80 77 76 76 78 80 78 71 70 69 72 75 82 84 86 86 84 84 83 85 86 91 92 98 99 104 107 111 113 115 118 122 124 125 131 133 138 145
117 116 118 113 110 104 101 99 96 95 92 92 91 87 86 87 86 83 85 86 86 86 82 78 76 77 79 83 85 89 92 94 93 93 95 96 97 101 109 108 111 113 116 120 122 124 128 129 129 132 137 145 152 151
120 117 115 117 118 112 107 106 103 101 98 97 96 94 93 91 88 89 92 92 92 91 90 86 86 88 91 92 94 96 97 98 98 97 102 104 104 111 116 118 121 123 124 127 129 130 130 135 135 138 146 153 151 146
127 124 120 119 118 114 115 114 109 105 104 101 101 100 100 98 100 99 99 95 93 93 93 95 98 100 102 104 104 104 106 107 108 108 111 111 112 117 120 122 125 126 130 129 132 133 135 139 142 146 149 145 140 130
130 128 124 118 120 114 113 114 114 112 111 109 107 107 107 106 106 106 102 99 99 100 100 105 105 105 105 106 110 112 113 114 117 117 120 122 126 129 131 134 134 133 134 135 138 139 140 148 148 147 139 128 117 112
123 126 129 123 118 117 119 117 114 115 117 117 114 114 112 112 113 111 109 107 109 108 109 114 114 114 114 114 115 118 119 123 124 125 129 133 134 132 134 134 137 139 140 140 141 146 151 148 139 127 116 109 103 104
120 120 122 121 124 123 121 119 116 118 120 119 119 120 121 118 117 113 114 119 118 116 115 115 115 116 118 119 121 124 127 129 130 130 136 138 139 140 143 145 146 148 149 149 151 144 132 118 113 107 105 105 102 99
117 117 115 119 124 124 125 126 125 122 117 118 118 121 119 117 118 121 120 122 122 121 121 120 120 123 124 126 126 129 135 138 141 146 145 145 147 147 149 152 152 150 147 140 127 115 109 105 103 101 102 100 95 88
107 108 110 114 114 120 126 126 121 121 122 123 122 122 123 124 124 125 124 128 129 129 129 130 132 132 133 136 136 132 132 136 139 137 137 140 141 141 140 138 131 123 115 108 104 101 98 99 98 96 94 89 82 77
89 95 99 104 107 109 113 117 123 126 126 122 120 121 124 126 126 125 128 132 129 129 133 135 130 131 130 127 122 125 127 124 126 128 127 127 125 124 118 111 107 103 99 98 97 96 95 94 91 87 81 77 73 70
79 85 90 95 99 103 108 111 111 107 107 109 113 114 117 118 118 119 122 129 129 127 122 122 120 118 118 118 120 117 115 115 115 114 112 110 107 103 101 101 99 97 96 95 92 90 88 84 79 74 71 68 66 63
79 83 86 89 95 98 100 104 105 106 110 111 109 110 110 108 108 108 107 112 115 117 114 112 110 108 110 105 104 105 105 104 104 104 103 102 101 100 98 96 93 90 87 85 84 82 78 74 69 67 65 64 62 60
74 77 80 83 85 88 92 95 97 99 103 103 101 101 101 101 103 107 108 110 109 105 103 102 103 107 103 103 104 104 105 105 102 97 94 95 97 94 92 88 85 84 82 80 78 74 70 68 63 62 60 58 58 56
68 71 73 75 76 78 80 82 84 85 87 89 91 92 92 93 94 94 94 94 92 95 97 100 100 99 97 96 97 97 95 94 92 90 88 88 89 86 84 81 78 77 74 70 68 67 64 63 60 60 57 54 53 52
62 65 67 68 70 72 72 75 78 79 80 82 83 84 86 86 85 87 87 89 91 97 96 95 92 89 89 89 90 90 89 85 82 82 82 78 76 75 74 72 69 67 66 63 61 61 61 58 56 54 52 51 50 49
57 60 62 63 64 64 67 70 72 73 73 77 77 76 79 82 84 83 82 84 88 94 93 86 82 81 79 80 79 78 76 74 76 77 72 69 66 66 64 63 61 60 61 61 56 57 57 54 51 50 49 48 47 45
50 53 55 57 59 62 62 62 61 61 60 64 67 70 73 73 70 70 71 75 85 84 77 73 71 70 70 69 69 70 70 70 69 67 64 62 62 60 59 59 56 54 56 56 53 51 51 51 49 47 45 45 45 45
43 45 48 51 52 53 54 54 53 55 55 57 60 62 63 62 61 61 64 74 73 68 64 63 62 61 61 63 63 63 63 61 60 60 58 57 57 57 56 54 51 49 51 49 48 48 48 48 47 46 45 44 44 43
40 43 44 43 43 44 44 45 45 48 50 53 56 58 55 50 51 55 67 65 59 60 58 56 56 56 56 56 59 58 55 55 55 56 55 53 51 52 53 50 48 45 45 46 46 46 46 46 46 45 44 44 43 44
39 38 37 36 35 36 39 42 46 49 49 47 45 43 43 46 53 58 56 54 53 52 52 53 51 48 49 52 52 53 53 52 51 50 48 46 45 47 48 49 48 46 44 42 43 44 44 43 42 42 43 43 44 43
29 30 30 32 36 37 40 42 42 40 38 37 38 42 46 48 50 51 50 46 45 49 50 47 43 43 48 49 47 45 45 47 46 44 42 41 42 43 43 44 45 44 43 41 41 40 40 41 42 43 43 42 42 41
28 28 30 31 31 34 38 36 37 38 37 38 40 44 44 45 46 43 42 44 47 47 45 44 42 40 42 40 40 41 42 41 41 41 40 39 38 40 42 42 42 41 41 41 41 41 41 41 41 41 42 41 41 42
24 26 28 29 30 32 31 30 35 33 33 35 36 39 41 40 35 37 43 41 39 40 42 42 40 37 36 37 39 39 39 38 39 39 39 38 37 38 39 40 40 41 42 42 42 41 41 41 41 41 42 43 42 42
21 25 27 26 26 25 27 28 31 33 32 28 27 31 35 33 32 36 39 38 38 39 40 39 37 35 35 35 34 35 36 36 38 38 38 37 37 37 38 38 38 37 37 38 39 40 41 42 43 43 42 40 39 38
23 24 26 26 25 24 26 29 30 31 29 27 28 28 32 33 32 33 32 34 36 36 36 35 34 33 34 35 34 34 34 36 36 37 37 38 37 37 36 37 37 37 38 39 40 41 41 41 40 39 38 38 38 37
23 24 25 26 26 25 26 29 31 32 28 26 28 30 31 34 35 31 29 32 35 37 35 34 33 33 33 33 34 35 35 35 35 35 35 35 35 35 36 37 37 39 39 39 39 39 39 39 39 38 38 38 38 37

GFSWCAN_250_spd_009.txt.gz
Wind_Speed
84 80 76 69 63 60 57 54 51 52 59 65 64 64 63 59 56 58 60 59 56 55 54 52 53 54 55 54 54 54 54 54 54 54 51 52 49 45 47 49 53 54 51 52 54 61 63 66 67 73 73 74 79 83
89 86 80 75 68 65 61 57 57 54 53 57 61 64 63 62 60 59 59 58 58 58 57 56 53 53 52 53 55 56 57 58 55 54 54 53 48 47 49 52 58 58 59 58 60 67 70 72 74 73 76 79 86 90
92 87 83 81 74 67 65 63 60 57 56 56 58 59 60 60 60 60 61 61 61 61 61 58 56 55 56 55 56 57 57 56 57 59 57 54 51 52 52 51 56 64 66 64 65 73 74 76 78 80 86 89 91 97
90 88 85 83 78 73 69 66 63 61 57 56 58 59 60 62 61 63 65 66 64 64 63 62 61 58 58 59 59 59 61 61 62 60 58 56 57 57 56 59 63 71 69 70 73 77 77 82 85 87 90 96 102 106
94 90 87 86 84 79 75 70 66 64 62 60 58 59 59 62 64 65 65 66 67 68 66 66 63 62 61 61 61 63 63 61 61 60 58 59 60 61 60 64 70 75 75 76 77 81 83 86 90 96 100 107 107 110
96 95 92 88 86 84 79 76 70 67 63 60 59 60 61 60 61 63 64 65 68 69 68 68 65 63 63 65 62 62 64 65 62 62 62 63 67 69 67 68 74 78 80 80 80 84 89 94 98 104 110 111 112 117
99 96 94 93 89 87 86 81 77 73 70 67 64 64 64 62 62 62 62 64 66 66 65 62 61 61 63 63 64 67 66 65 64 63 64 67 72 73 73 75 80 82 84 86 89 94 97 103 108 109 112 117 119 125
97 99 95 95 95 92 92 86 83 81 78 75 72 70 68 67 66 64 63 65 68 68 65 58 57 58 64 69 72 71 70 70 66 70 71 74 75 79 81 84 88 88 91 95 98 102 106 109 112 117 121 124 127 126
97 95 101 95 94 95 94 90 88 87 83 81 80 77 76 73 69 68 71 71 71 70 66 62 62 64 68 71 75 77 79 79 77 78 81 83 85 89 90 92 92 96 100 104 105 108 110 116 123 125 128 130 126 123
96 95 96 100 97 99 98 94 90 89 89 87 85 86 82 78 78 79 80 78 75 74 70 68 69 73 75 78 80 83 84 84 82 83 86 86 88 92 95 96 99 102 105 108 112 116 120 122 124 125 129 128 124 122
91 94 97 97 99 99 101 99 97 93 93 93 92 89 86 87 88 88 89 89 84 80 78 78 80 83 86 87 88 89 89 89 88 88 91 92 94 100 102 104 106 110 112 117 121 123 124 124 124 124 120 121 120 115
94 92 97 99 100 103 103 101 99 100 99 96 95 94 95 93 94 95 92 90 88 86 87 89 91 91 92 94 94 94 96 97 97 97 98 98 102 105 108 112 115 115 118 120 120 123 123 126 123 118 117 112 109 109
95 90 91 96 98 103 103 101 102 103 103 102 103 100 99 99 98 96 92 89 91 92 95 97 98 98 97 99 100 101 102 103 104 104 105 108 111 112 116 116 116 116 118 117 122 124 122 116 112 113 113 109 107 107
96 91 89 90 94 98 100 104 104 104 105 105 105 104 103 104 102 98 98 97 95 97 99 100 101 102 102 105 105 108 108 108 111 112 114 115 116 118 117 119 117 119 121 123 124 116 113 108 108 110 111 109 106 105
93 93 95 92 89 95 100 103 104 105 108 109 108 107 103 102 101 100 99 99 101 105 104 106 108 108 109 111 110 110 113 116 118 120 118 117 116 116 120 122 123 124 122 119 116 112 107 104 105 104 106 106 104 100
85 89 94 98 94 93 94 98 103 104 107 106 105 108 109 107 107 106 108 107 103 105 106 107 108 111 112 113 112 113 117 118 118 117 115 116 119 123 122 121 122 119 116 113 110 105 104 103 101 100 100 100 96 93
82 86 88 94 97 96 101 102 101 106 107 108 105 106 108 106 105 105 105 109 109 107 107 110 109 110 110 111 112 115 117 117 115 114 113 118 118 116 116 116 115 111 109 109 105 102 100 98 96 94 93 91 89 85
70 79 82 84 85 89 96 102 106 99 98 99 103 107 109 107 105 105 103 100 102 104 105 105 105 107 112 117 120 119 115 113 110 115 117 114 115 114 113 109 106 105 106 104 100 96 96 94 90 89 85 80 79 74
64 73 79 82 85 86 88 93 99 103 104 104 107 111 111 110 109 109 110 111 111 112 111 112 113 116 120 116 111 108 106 107 107 108 110 111 109 106 104 103 103 103 101 97 94 92 89 87 83 77 75 72 70 68
64 67 72 75 75 76 77 79 83 88 94 101 102 104 104 106 105 106 108 110 114 117 119 120 119 110 105 103 104 104 103 101 100 99 100 103 103 101 102 101 98 94 92 91 87 84 83 79 75 72 67 64 65 65
56 57 62 65 66 67 68 70 72 75 79 85 89 94 101 104 101 99 100 103 102 105 106 107 104 101 100 99 98 97 96 95 94 95 97 97 101 101 97 93 90 90 85 82 80 81 76 71 69 67 65 63 61 58
49 50 52 54 55 57 60 63 68 72 76 81 84 86 90 94 96 96 98 99 101 103 99 100 101 98 94 94 94 92 91 91 92 92 93 91 87 88 89 87 85 82 80 78 76 72 69 66 65 63 62 59 57 56
40 43 45 47 50 54 58 63 67 71 73 75 77 78 81 82 82 82 83 87 92 91 87 88 89 87 86 86 85 83 83 84 85 85 85 84 81 80 79 79 75 73 73 73 67 64 63 63 60 59 58 55 54 52
40 42 45 48 52 55 59 59 60 60 61 63 64 67 69 71 71 71 74 78 82 76 75 75 74 75 74 75 74 73 74 76 78 79 78 74 72 73 71 71 68 66 63 63 63 62 61 59 58 56 55 54 50 49
37 38 41 44 47 50 51 51 52 54 56 56 55 55 57 56 57 59 64 69 67 67 66 65 66 66 64 63 65 69 73 74 71 68 72 67 63 64 66 64 63 61 57 59 59 59 58 56 55 54 52 50 48 47
33 33 34 34 34 37 39 42 44 47 48 49 50 49 49 49 51 55 59 60 58 58 59 60 60 58 57 59 61 66 67 63 60 61 63 60 60 57 58 61 62 58 55 54 55 56 55 53 52 50 49 47 46 48
28 27 26 27 29 31 34 37 40 41 42 43 46 47 47 47 49 50 50 52 53 53 52 51 51 51 53 57 58 57 56 56 56 55 55 56 55 55 56 57 56 55 53 52 51 51 51 48 48 47 48 46 45 45
24 23 24 27 30 35 38 39 37 36 36 37 40 42 43 44 44 44 44 45 47 48 48 48 47 48 50 51 52 52 52 49 48 49 50 51 52 53 52 51 51 50 49 48 47 46 46 45 45 46 45 45 43 43
22 26 30 31 32 32 30 31 35 36 37 38 38 38 38 38 39 41 43 43 42 43 43 45 45 44 44 46 46 46 46 44 45 46 47 49 48 49 49 47 46 46 45 44 43 43 44 44 43 43 43 44 44 45
21 24 24 25 28 29 29 31 31 31 32 33 33 35 34 33 37 38 38 37 38 38 39 40 41 43 42 40 40 40 42 43 43 44 45 44 44 44 44 43 43 43 43 44 44 43 44 44 43 44 44 45 46 45
19 23 24 24 23 23 26 28 29 28 28 30 30 32 32 32 34 35 35 37 38 39 40 41 41 43 43 41 41 40 40 40 40 42 43 42 41 41 41 41 41 42 43 43 43 43 43 43 43 44 44 43 42 43
19 21 22 22 20 22 26 27 26 26 27 28 29 30 30 32 33 34 35 36 37 37 38 39 40 41 42 40 40 40 40 40 40 41 41 41 41 40 40 40 40 40 40 41 42 43 42 42 41 41 41 41 41 40
19 20 20 20 21 22 25 25 26 26 26 28 29 29 30 31 32 34 35 35 35 36 36 36 37 38 39 39 39 37 37 38 39 40 41 41 40 39 40 41 42 42 42 42 42 40 39 40 40 40 39 38 38 37

GFSWCAN_250_spd_012.txt.gz
Wind_Speed
84 84 77 71 67 62 57 53 55 65 67 68 65 62 61 62 62 59 61 59 56 55 53 51 49 48 49 49 49 51 51 53 53 53 52 52 55 56 54 53 55 52 50 49 49 51 51 54 59 61 64 68 70 74
89 86 80 75 69 67 60 57 53 52 61 71 70 63 63 62 63 62 64 63 61 58 57 57 56 55 51 52 54 53 52 52 52 52 51 53 54 53 55 55 57 54 53 54 52 57 57 61 63 66 68 71 75 79
92 87 83 80 73 69 66 63 59 54 52 56 64 72 72 68 65 66 67 68 67 65 64 63 63 60 58 58 57 57 55 54 54 54 54 54 55 55 58 58 56 59 59 58 57 62 64 67 71 73 77 79 82 88
89 90 87 82 76 74 71 62 60 58 54 51 54 57 63 67 71 70 67 67 67 65 62 60 59 60 61 61 60 60 60 59 59 58 57 58 58 58 56 55 57 65 62 62 64 67 69 75 79 84 84 86 91 97
90 91 90 87 80 75 73 68 64 58 57 55 53 53 54 57 61 64 64 65 65 65 62 61 60 60 63 63 63 64 65 65 64 61 61 61 64 62 59 56 63 67 66 67 69 74 78 81 82 86 90 94 98 104
88 89 88 84 85 80 77 75 69 64 61 60 58 56 55 56 56 58 60 61 63 63 61 62 62 62 63 66 68 68 69 69 69 67 65 64 65 63 58 58 68 70 73 75 78 81 81 83 87 93 98 102 105 111
93 93 91 89 88 85 81 78 76 71 67 65 62 60 59 59 59 59 58 60 61 61 62 61 62 63 66 67 68 69 71 70 68 65 63 64 66 67 65 66 72 75 78 81 81 84 87 92 97 99 102 108 112 116
90 91 93 93 92 86 85 83 79 77 76 73 69 68 65 64 62 60 60 63 64 64 61 55 55 60 64 64 66 68 68 67 65 65 64 67 68 71 71 77 81 83 85 87 90 93 97 101 103 108 111 116 119 119
86 87 92 97 94 91 91 88 85 83 81 80 77 74 70 68 66 66 67 69 69 66 62 57 57 59 62 66 69 70 70 69 67 69 71 72 73 76 82 85 87 90 92 94 96 100 103 107 111 116 119 121 119 121
82 87 88 93 96 93 88 89 88 85 83 84 83 83 77 74 73 76 77 75 72 70 65 61 64 64 67 71 73 75 74 74 75 74 77 78 80 87 91 92 93 96 97 99 103 106 109 113 116 120 119 120 122 122
87 86 87 90 93 96 92 90 90 88 88 88 89 87 83 80 81 83 84 80 77 74 70 65 67 71 74 77 78 80 79 81 81 80 86 86 88 95 97 97 97 100 103 107 110 111 115 118 121 118 117 119 120 120
85 86 89 88 89 90 93 97 93 92 91 92 91 89 89 89 91 91 91 90 85 81 75 74 76 78 80 83 84 86 88 87 86 89 90 89 93 97 99 100 103 106 110 112 113 116 120 121 119 119 118 117 118 118
84 83 87 88 88 91 94 94 93 95 95 93 93 98 97 96 96 97 96 93 88 87 85 84 85 86 87 88 90 91 93 94 95 93 93 95 99 102 101 105 109 112 113 115 119 121 120 121 120 120 116 117 116 114
86 85 85 89 92 90 92 94 96 95 98 98 99 98 97 98 96 97 96 95 93 92 92 92 93 93 94 95 96 95 96 96 97 98 101 104 105 107 108 108 111 112 112 115 117 119 121 119 118 117 117 115 111 108
82 84 85 86 89 93 91 93 95 97 100 101 101 103 104 104 102 102 101 101 100 100 101 99 99 99 99 100 97 98 101 99 100 102 102 102 104 111 113 115 114 110 110 114 115 116 115 114 112 114 114 110 104 101
76 78 81 84 87 89 90 91 99 99 103 100 100 102 102 103 103 102 103 104 105 105 104 103 104 102 104 105 104 104 106 109 108 105 106 108 112 115 113 107 108 112 113 113 113 114 110 110 111 109 105 99 98 96
70 73 76 80 86 90 91 90 92 92 99 98 101 102 104 106 105 105 106 106 106 107 107 107 106 108 107 107 106 107 110 111 109 107 108 110 109 108 110 111 112 111 112 111 110 110 109 107 105 100 93 95 93 87
68 70 70 73 78 85 92 94 94 97 98 96 101 105 105 104 102 104 106 107 109 110 111 110 110 111 111 112 111 110 108 108 106 107 109 109 109 108 110 110 109 108 108 108 108 106 104 102 95 92 90 87 84 81
62 65 68 72 76 79 84 90 92 93 93 93 92 95 99 102 104 106 106 107 108 109 108 109 111 114 115 111 107 108 111 110 107 104 105 106 108 109 108 109 108 107 103 105 103 99 97 93 90 85 82 78 76 75
60 65 69 71 71 72 75 79 81 85 86 89 91 94 94 95 98 100 102 104 106 106 105 105 106 104 103 104 103 103 102 102 102 104 107 108 107 105 105 103 103 103 101 99 96 90 89 85 81 78 75 73 71 68
61 65 67 68 68 69 70 72 73 77 81 83 85 88 94 99 99 100 102 105 105 104 104 101 100 102 103 103 104 104 103 99 97 97 100 102 103 102 101 100 97 96 93 90 86 84 81 79 76 72 71 70 66 64
52 55 57 60 64 65 64 65 67 69 71 76 79 82 85 88 91 93 96 100 104 105 99 101 108 111 108 104 100 99 99 98 96 95 96 96 98 98 96 94 92 89 86 84 79 77 78 74 70 68 66 65 63 58
46 45 45 48 51 54 58 60 60 60 63 66 69 73 78 83 85 88 91 94 97 95 94 96 100 101 100 98 95 92 90 89 90 91 90 90 88 88 87 86 83 79 76 74 73 74 72 67 65 64 62 59 56 53
37 39 41 43 46 51 55 57 58 60 61 65 69 73 75 76 75 75 78 84 86 82 83 85 85 85 86 86 85 83 81 81 80 82 83 81 80 78 77 76 73 70 67 68 71 69 65 62 61 59 55 53 51 50
39 40 43 45 48 51 53 57 61 63 61 58 57 58 60 61 62 63 68 70 68 68 68 69 71 71 72 73 74 75 74 73 73 76 78 74 71 67 68 68 68 65 62 63 63 61 58 58 55 53 51 49 49 48
35 35 39 42 44 47 49 50 50 51 52 53 55 56 56 56 57 59 60 58 59 59 60 61 62 65 67 68 69 70 69 67 66 68 70 68 64 60 59 61 61 59 57 56 54 53 53 52 51 49 47 46 47 47
33 33 33 34 35 36 38 42 46 49 50 52 53 53 53 53 52 51 52 54 56 57 58 58 58 58 59 60 60 59 59 59 60 59 59 58 57 55 54 54 53 53 52 51 50 48 48 48 47 46 44 43 44 45
25 27 29 31 35 38 39 40 42 43 45 46 46 45 46 47 49 50 51 52 52 51 50 50 51 52 52 53 53 54 55 53 52 50 49 48 47 49 50 49 48 47 46 46 44 44 44 44 43 43 43 42 41 42
26 29 31 34 36 37 36 36 37 38 39 41 42 40 40 40 42 45 45 44 44 45 47 47 46 47 47 48 48 48 48 47 45 45 45 44 44 47 47 47 46 45 44 43 42 41 41 41 41 40 41 41 41 42
24 25 26 26 26 27 28 33 33 34 34 33 33 35 35 37 40 39 39 39 41 42 43 44 44 44 43 44 42 40 41 42 43 45 45 44 44 44 45 45 44 43 42 41 40 40 39 39 39 40 41 41 41 41
20 23 25 26 26 27 28 28 28 30 31 30 30 33 33 34 35 36 35 36 37 38 38 39 40 41 42 43 43 43 42 42 41 42 43 44 44 43 43 42 40 39 39 39 39 39 39 39 40 40 40 40 40 41
19 21 22 22 20 22 24 26 27 26 24 26 28 29 29 30 33 34 33 36 36 37 38 39 39 40 41 41 41 42 42 42 41 40 41 42 42 42 42 42 40 39 38 39 40 40 39 39 38 38 38 40 40 40
17 18 18 18 19 20 23 25 25 25 25 27 27 27 29 31 32 33 34 35 36 35 36 37 38 40 41 40 39 40 41 41 41 40 40 39 40 41 41 41 41 40 40 39 38 38 37 37 38 39 39 38 37 37

GFSWCAN_250_spd_018.txt.gz
Wind_Speed
78 79 75 68 63 60 59 58 63 63 66 64 66 67 64 59 57 54 51 48 46 43 37 35 37 34 35 32 34 34 35 35 37 38 40 43 44 47 49 52 56 58 60 60 60 61 60 61 61 62 67 65 62 62
81 80 75 70 66 59 60 59 62 62 64 63 64 67 67 62 62 58 56 53 52 52 51 45 39 38 38 40 41 42 40 45 45 48 49 51 54 57 60 62 62 65 69 65 63 66 67 67 65 64 66 64 66 69
81 82 79 74 68 63 59 60 58 63 64 65 63 65 65 67 67 63 62 60 55 54 52 50 50 49 47 46 47 47 50 50 52 55 58 59 61 62 65 67 73 65 68 65 62 67 68 70 70 69 68 70 70 74
85 82 80 78 72 67 63 59 57 60 63 66 66 64 65 65 66 66 62 61 59 60 56 54 54 54 54 52 52 51 54 56 58 62 64 65 68 67 68 71 68 69 69 70 67 68 68 72 69 70 71 72 76 79
90 84 83 80 72 70 64 60 58 58 62 64 65 67 65 64 63 63 64 61 64 63 60 62 62 61 64 64 63 60 59 62 63 66 69 71 70 72 69 69 68 73 72 70 68 69 71 71 71 71 75 78 81 86
91 89 85 82 76 73 69 65 62 60 60 62 65 66 64 66 65 65 61 61 64 66 67 68 68 69 67 67 65 67 67 68 70 71 71 72 73 76 72 65 68 72 72 72 76 73 71 71 74 78 82 85 89 92
95 89 85 83 81 76 72 68 64 61 58 58 58 63 66 64 66 66 64 68 68 65 66 66 65 63 64 65 65 66 68 71 73 72 73 77 79 74 65 62 73 72 75 76 75 75 76 79 81 83 87 91 94 97
87 93 90 85 85 80 76 71 68 64 61 59 57 58 61 65 66 65 67 68 68 68 68 63 62 68 71 69 71 74 75 78 78 80 76 73 71 67 61 71 75 76 79 76 76 77 79 84 87 91 94 96 100 103
81 87 95 88 87 83 81 77 74 72 68 64 62 59 57 55 56 61 62 65 66 65 64 61 66 73 75 72 71 71 70 72 68 66 66 66 62 65 74 80 80 76 80 78 81 84 87 91 95 98 100 103 105 107
75 80 87 93 90 86 84 82 81 77 76 74 70 67 64 64 66 65 64 65 63 61 56 54 58 60 63 66 69 70 70 69 66 66 70 68 65 74 84 85 84 82 82 84 87 91 94 98 101 105 106 107 109 111
70 76 78 83 91 94 88 85 84 84 81 79 76 74 71 70 73 72 72 70 67 64 62 61 62 64 66 70 75 77 76 76 73 71 75 73 71 79 87 87 88 88 90 93 96 99 101 103 106 108 111 113 115 118
69 69 72 77 80 88 95 91 90 89 87 86 83 82 83 81 80 81 80 73 71 71 68 67 70 73 75 78 79 79 79 81 79 78 80 79 80 83 88 90 91 94 97 101 103 105 106 107 110 114 117 119 122 125
71 69 70 77 79 80 84 91 93 89 89 90 91 92 90 91 92 91 88 81 77 74 75 78 79 82 82 83 86 87 88 88 87 86 86 89 91 94 96 97 98 100 103 104 106 109 112 114 114 118 120 121 121 120
71 71 74 74 81 81 82 82 86 88 90 89 91 96 98 98 98 97 94 88 85 86 85 86 87 89 89 92 94 94 95 96 96 94 94 97 97 97 98 100 102 105 108 111 114 115 117 117 121 119 119 117 116 113
80 78 76 75 81 84 87 85 83 85 89 91 92 95 95 95 95 97 98 97 95 93 93 94 95 94 94 97 98 99 100 101 101 102 103 102 103 104 105 109 110 111 114 119 119 118 116 116 116 117 117 113 112 113
84 85 85 85 83 82 85 92 89 88 89 88 89 92 98 97 97 96 95 97 100 102 102 100 99 100 101 104 107 108 108 108 108 107 107 108 109 112 113 115 118 118 115 113 112 111 112 113 114 111 110 112 110 108
77 80 82 84 85 86 86 87 89 93 92 91 92 93 94 97 98 97 97 98 99 102 104 103 105 106 106 108 109 110 114 113 112 112 114 116 117 117 114 111 109 109 108 110 110 108 108 107 109 111 109 105 101 99
74 75 76 78 80 83 85 87 86 87 90 92 95 99 98 96 97 99 98 99 100 103 105 106 105 104 105 105 104 106 108 108 108 107 106 107 107 106 106 106 107 105 104 105 105 106 107 107 105 105 100 98 95 93
72 73 75 76 78 80 80 81 82 84 86 89 93 94 99 102 101 101 104 105 105 105 106 107 108 109 108 110 112 112 112 112 110 109 109 108 107 107 108 106 106 107 108 108 108 107 106 107 103 99 95 90 86 85
68 69 70 71 73 75 77 78 80 81 82 84 84 86 90 94 98 104 104 103 105 107 106 108 110 111 113 115 116 116 114 113 114 113 111 111 110 107 108 107 107 107 107 107 108 106 104 103 98 93 87 85 83 81
66 68 68 69 71 71 71 72 74 77 79 80 81 84 87 89 91 92 95 99 102 106 106 107 110 113 113 114 115 115 115 116 117 116 114 112 111 110 109 108 106 106 106 104 102 102 98 93 89 86 82 80 78 76
62 63 62 63 66 68 70 72 74 75 76 76 77 80 83 85 88 91 93 94 97 100 102 105 108 110 112 113 114 114 114 114 114 113 111 107 106 104 103 102 101 101 98 98 95 89 85 84 82 81 76 74 73 71
57 56 56 58 61 63 65 67 70 73 75 76 77 78 80 82 84 86 88 90 91 93 96 99 101 104 106 107 108 106 103 102 101 101 99 98 97 97 97 94 92 90 88 86 85 81 78 75 76 75 72 69 67 65
50 52 55 56 57 59 61 63 66 68 70 72 73 74 77 79 81 83 85 86 87 88 90 92 93 95 95 94 93 92 92 92 92 91 92 91 88 85 84 83 82 82 80 77 77 75 73 73 71 70 68 64 62 63
44 45 46 47 50 52 55 56 58 60 64 66 67 69 72 74 75 78 80 82 83 83 85 86 85 84 82 81 82 81 81 82 82 81 81 78 76 75 75 76 77 76 74 72 71 69 68 67 67 66 64 62 61 63
38 38 40 42 44 46 48 49 53 56 57 58 59 61 63 64 65 68 71 74 73 72 71 71 70 71 72 71 71 71 72 72 72 71 73 73 71 69 70 70 70 72 71 68 66 64 62 61 62 62 62 62 61 61
35 37 38 40 41 42 45 48 51 53 54 55 56 54 54 54 54 56 56 56 59 59 60 61 62 63 63 63 64 65 66 66 65 65 66 66 66 65 64 63 63 64 64 63 63 63 62 62 62 61 59 58 57 57
36 38 40 41 42 44 44 45 47 49 49 49 49 50 50 50 51 51 52 52 53 53 53 54 54 54 55 57 57 57 58 58 58 59 59 58 60 61 60 60 60 59 59 59 59 60 60 59 57 57 56 56 54 54
36 37 36 37 37 38 39 41 42 44 45 47 47 46 47 47 49 51 51 51 50 50 50 51 52 53 53 53 53 54 56 56 57 57 57 57 58 56 55 57 58 58 57 56 53 54 56 57 56 56 55 54 53 53
31 32 33 33 34 36 37 39 40 40 40 40 41 41 44 47 46 46 47 47 47 48 48 49 50 50 51 52 51 52 54 55 55 54 55 55 55 56 55 54 54 55 56 55 54 52 52 54 55 55 54 53 51 50
31 31 30 30 31 31 31 33 34 35 37 38 37 37 39 41 44 45 43 45 45 46 47 47 48 49 49 50 50 50 50 51 52 52 53 54 54 54 54 53 52 51 51 51 53 53 51 50 50 51 51 49 47 46
24 25 27 29 30 31 32 32 32 32 33 32 34 36 37 39 42 44 42 42 43 43 42 43 44 45 47 47 48 49 49 49 49 49 50 50 50 50 51 51 52 51 50 48 46 47 46 45 45 45 46 46 45 45
26 27 27 27 28 28 28 29 32 32 33 33 34 32 33 34 39 40 41 42 42 41 41 42 43 44 44 45 46 47 47 47 47 48 48 48 47 48 48 47 44 43 44 44 44 45 44 43 43 43 42 42 41 40

GFSWCAN_250_spd_024.txt.gz
Wind_Speed
74 75 74 76 68 63 63 59 56 54 54 66 63 54 51 48 43 48 49 45 42 40 34 30 28 30 34 36 33 31 30 30 28 22 22 24 25 27 29 34 38 41 45 50 54 57 56 60 61 65 68 68 71 75
74 75 75 74 68 64 60 59 56 58 56 64 64 58 51 49 46 45 48 46 44 40 34 30 28 30 31 37 39 34 33 32 29 30 31 32 31 34 37 38 45 48 54 57 59 61 64 66 67 69 70 72 76 76
76 76 77 73 70 65 61 58 57 57 56 56 66 64 54 51 50 46 49 50 44 41 38 34 34 29 30 33 35 36 37 36 36 38 39 38 40 42 43 46 50 50 54 58 64 68 71 70 70 74 73 76 78 75
77 76 75 75 72 67 62 58 56 57 55 52 65 65 60 55 51 48 44 45 51 47 43 41 41 39 35 35 36 35 38 39 41 43 43 44 48 50 53 53 55 60 64 68 69 72 70 72 74 76 78 79 79 74
79 79 79 76 73 69 65 60 54 53 56 54 58 66 64 59 56 53 51 49 50 50 50 51 49 48 46 45 47 48 49 51 51 52 54 55 57 58 57 58 61 68 73 74 72 73 74 75 77 78 80 80 77 77
75 77 79 77 75 70 66 63 55 53 52 53 56 57 60 65 61 58 55 54 55 53 53 54 53 53 52 53 54 56 58 58 57 58 58 60 64 63 59 60 67 77 78 75 73 77 79 79 78 81 79 78 81 84
71 78 77 76 74 71 68 64 59 52 51 51 53 54 54 52 56 57 57 59 58 58 59 58 56 56 57 59 60 62 62 63 63 63 64 66 70 71 67 64 77 76 75 77 81 83 80 81 83 83 84 84 87 88
74 76 80 76 73 73 71 67 62 57 55 54 53 53 54 54 55 55 55 57 59 60 60 59 60 65 66 65 65 66 67 69 69 69 69 71 71 70 64 73 73 75 79 82 82 81 83 82 82 85 86 88 90 92
75 79 82 80 78 76 72 68 65 62 58 56 54 54 54 55 56 55 55 57 56 55 56 57 58 60 62 67 70 72 74 74 71 70 73 70 66 66 73 74 76 80 81 81 81 82 83 85 87 89 91 94 96 101
69 71 73 78 75 76 71 69 67 65 61 59 56 54 54 54 55 55 55 55 54 52 51 54 56 59 64 68 70 72 73 71 67 68 71 69 65 72 78 79 80 83 84 82 83 85 88 90 92 94 97 99 104 107
69 74 74 71 70 67 69 70 67 64 63 61 58 57 56 55 55 55 54 52 53 54 55 57 62 66 69 71 75 74 72 72 68 69 73 71 72 78 80 80 79 80 83 86 89 91 93 94 97 100 103 107 110 114
67 70 73 74 70 72 70 71 73 70 66 66 67 65 64 63 61 58 54 54 54 54 55 61 66 68 68 71 72 72 75 75 73 72 73 71 74 76 78 79 81 84 87 91 94 96 98 102 104 107 111 114 117 121
65 66 68 72 76 74 71 73 74 71 71 72 70 72 70 69 67 63 60 59 60 61 63 65 66 68 69 71 73 74 76 76 77 76 76 77 81 83 85 87 89 92 95 98 101 104 107 111 115 118 122 124 126 128
61 60 61 64 70 73 75 74 75 75 75 76 75 76 76 75 72 71 70 70 70 70 70 70 72 73 76 79 80 81 83 84 84 85 86 89 91 91 94 97 99 101 103 107 110 113 116 120 125 127 125 121 120 119
57 57 57 57 59 64 71 75 76 81 81 80 82 85 82 80 80 80 80 79 78 78 79 80 81 83 85 88 89 91 93 95 96 96 97 98 100 102 104 106 108 110 113 116 119 123 126 125 121 119 118 114 111 109
57 56 57 58 62 64 64 64 67 69 73 82 89 89 86 88 89 88 88 88 88 89 89 91 91 91 93 96 98 101 103 104 106 107 108 110 111 114 116 119 121 122 123 124 123 120 118 115 112 111 111 109 107 104
61 59 58 56 56 59 62 65 67 74 74 76 80 83 87 93 95 96 96 94 95 97 99 100 101 102 103 104 104 106 109 110 112 114 116 118 120 122 123 124 122 119 116 112 110 109 109 111 113 109 106 105 100 100
67 63 62 63 62 62 61 62 64 67 73 78 82 84 86 89 92 95 99 102 104 105 106 107 109 110 111 112 114 114 116 119 121 121 123 123 121 119 116 114 111 110 112 114 113 115 113 108 107 104 102 100 98 96
69 73 73 72 71 70 70 68 65 67 69 71 73 75 79 85 88 91 94 96 97 101 104 104 105 106 108 111 111 111 110 109 111 113 113 114 115 116 115 115 116 118 120 117 116 112 107 104 103 100 96 94 91 92
71 71 71 71 72 73 75 77 77 75 77 77 77 79 80 82 84 84 86 88 93 96 97 99 101 104 105 106 108 108 107 108 109 111 114 114 113 114 117 116 117 114 110 106 104 100 98 97 96 93 90 89 86 85
71 71 72 73 74 74 74 76 76 78 79 79 79 80 82 83 86 87 89 90 93 95 95 96 96 101 104 105 105 103 107 110 112 114 115 115 111 110 110 108 105 106 103 99 99 98 95 92 90 88 85 84 82 80
70 70 71 72 72 73 73 74 75 77 78 78 78 79 80 80 80 80 81 82 83 84 86 88 89 90 91 93 95 97 98 99 99 100 99 99 100 101 100 98 95 94 93 90 89 88 88 85 83 80 78 76 75 74
65 67 68 68 70 70 71 73 74 75 77 78 79 80 80 80 80 81 81 82 82 84 83 84 85 85 86 87 88 88 89 89 89 88 87 88 88 88 88 87 84 83 82 81 80 79 78 76 75 74 73 71 70 69
53 55 56 57 57 59 63 66 67 68 68 70 72 73 74 75 75 75 76 77 79 79 79 80 80 81 82 83 83 83 83 82 81 80 79 79 80 80 79 77 75 74 73 73 73 72 72 71 70 70 69 68 67 66
52 53 54 55 56 58 60 62 63 63 64 65 65 65 66 67 67 66 67 68 69 69 70 72 72 71 71 71 71 71 70 69 68 69 70 72 73 72 71 71 70 69 68 68 68 67 67 66 65 65 65 63 62 61
46 46 49 48 48 52 53 55 55 56 58 60 60 60 60 59 60 61 63 62 63 64 63 63 62 61 61 61 61 62 63 65 65 63 63 65 65 65 65 66 67 66 64 62 62 63 65 64 62 61 60 58 56 56
41 42 41 42 44 45 46 47 48 47 48 50 51 51 51 53 55 56 58 58 57 55 53 52 52 52 53 54 57 59 59 60 60 61 61 61 60 61 60 60 61 61 62 61 60 58 57 57 57 55 53 54 54 55
35 35 36 35 38 38 40 40 40 41 42 44 45 46 46 47 48 48 48 48 47 47 48 48 49 50 51 53 54 56 56 56 55 53 54 55 54 55 54 54 53 54 54 54 54 54 54 54 54 53 53 53 53 52
30 31 32 33 35 37 37 37 38 39 40 40 40 40 40 40 41 43 43 44 44 44 45 46 46 47 48 49 49 48 48 49 49 49 46 47 48 48 49 49 50 49 50 50 49 49 51 51 52 52 53 54 54 53
26 27 28 29 29 30 31 31 32 33 34 35 36 38 38 38 38 39 40 40 40 41 44 46 46 45 45 44 45 45 46 46 46 47 47 46 46 46 46 46 46 45 46 46 47 48 46 45 45 45 43 44 46 47
26 26 27 27 28 29 29 30 31 31 32 32 33 35 36 35 36 37 37 37 37 39 41 42 41 41 42 42 41 42 44 45 45 45 45 46 46 46 45 45 46 47 47 47 47 48 48 46 45 44 42 41 41 40
23 24 24 25 25 25 26 27 28 29 30 31 32 33 32 32 32 34 34 35 37 37 38 39 39 39 40 40 40 40 40 40 42 42 42 42 43 44 45 45 45 46 46 46 44 43 43 43 43 42 41 41 40 39
21 21 21 22 23 23 24 24 25 26 27 28 30 30 29 29 30 32 34 34 35 36 36 37 37 38 38 38 39 39 40 41 41 41 42 42 42 42 42 42 42 42 41 41 42 43 42 40 40 40 40 39 38 37

GFSWCAN_250_spd_027.txt.gz
Wind_Speed
63 60 58 63 68 71 67 64 55 52 59 63 66 53 49 48 48 51 48 47 47 42 39 37 35 36 36 33 31 31 31 32 32 31 31 31 30 30 30 30 32 34 36 39 41 44 46 53 57 58 62 66 71 70
60 60 61 66 72 68 67 63 53 52 63 60 64 56 51 48 46 45 47 49 49 45 41 39 37 37 36 33 33 33 33 35 34 35 35 34 32 32 33 34 38 39 44 45 49 53 56 58 59 63 67 71 70 70
62 61 66 69 69 67 65 59 55 51 64 62 59 59 54 48 46 42 42 47 48 45 42 39 39 38 34 34 33 35 38 40 38 39 40 38 38 39 39 40 42 47 51 53 58 63 66 65 66 67 70 72 72 75
63 60 66 70 68 66 61 59 54 51 60 59 61 58 58 52 47 43 42 46 48 47 45 44 42 40 40 38 34 34 36 38 41 43 43 43 42 42 43 44 47 57 62 63 61 66 66 70 73 74 75 74 74 80
64 66 71 71 65 62 59 59 54 52 52 60 56 63 60 55 50 46 44 43 46 49 50 47 45 44 44 44 44 42 40 39 39 41 42 42 46 49 49 51 55 65 67 66 65 71 72 75 76 77 77 76 80 83
56 66 70 71 68 62 58 55 56 52 51 52 57 58 61 61 55 49 46 46 45 47 50 53 50 47 47 49 52 54 53 52 51 52 53 54 57 56 52 54 65 71 71 72 72 75 76 77 76 77 79 82 84 83
63 70 75 75 71 65 61 55 56 53 53 51 52 57 58 62 61 55 51 50 50 49 49 49 50 52 56 58 60 60 59 59 58 57 57 60 62 61 59 60 74 74 77 79 79 79 76 78 81 81 83 85 85 85
68 70 72 75 70 66 62 58 55 54 51 52 52 52 57 60 66 61 58 53 51 51 50 47 48 53 56 58 60 62 63 63 62 62 64 67 64 66 63 74 74 77 78 79 79 78 81 80 82 85 86 86 87 89
66 67 71 71 70 68 63 61 58 54 53 49 53 53 50 56 63 66 64 63 58 55 54 54 56 60 62 65 66 68 69 68 67 68 71 71 70 71 76 76 76 77 78 79 78 78 81 84 85 87 88 90 91 95
68 68 69 70 71 68 67 66 61 58 55 53 50 49 52 52 57 64 67 66 64 63 57 54 57 60 64 68 70 73 73 72 69 70 70 66 62 70 76 77 76 77 78 79 80 81 84 86 87 90 93 95 98 102
61 66 66 69 68 69 68 66 64 61 58 57 53 50 49 51 54 55 56 55 56 56 57 62 66 68 71 72 74 75 73 72 68 67 69 66 67 73 77 78 79 80 82 84 85 86 88 90 93 96 99 103 105 109
56 60 60 61 66 64 67 66 65 63 63 62 59 56 54 52 51 48 46 47 49 50 52 59 63 63 63 65 66 66 69 69 68 69 70 69 71 76 79 80 81 83 84 86 88 90 93 97 101 104 108 111 115 117
59 59 59 62 63 63 63 64 65 65 64 64 62 63 63 61 57 54 53 53 58 59 61 64 65 66 66 68 69 71 72 72 73 73 74 75 77 79 81 82 84 86 88 91 94 97 101 105 109 113 116 119 121 125
56 58 56 56 56 57 62 69 70 70 69 71 70 69 68 65 64 63 63 64 64 64 65 67 69 70 72 74 75 77 78 78 78 79 80 83 84 86 88 91 93 94 96 99 103 106 109 112 117 122 123 125 125 125
58 61 61 60 59 54 59 64 64 64 66 71 72 72 73 73 72 69 69 71 73 74 74 75 76 77 78 80 81 83 85 87 87 88 90 92 94 95 98 101 104 104 106 108 112 115 117 120 123 126 124 122 119 117
57 56 57 57 59 61 62 63 67 70 73 74 76 77 75 74 76 79 79 78 78 80 82 84 85 86 88 90 90 92 94 95 98 100 101 102 104 106 108 110 113 115 116 117 121 122 123 122 119 115 112 109 110 110
55 56 53 52 52 55 58 61 64 69 73 77 76 77 79 80 78 78 81 85 87 87 88 90 91 94 96 98 99 101 101 103 106 107 108 110 112 114 116 118 118 121 121 119 115 112 107 105 105 107 109 109 105 101
55 53 54 55 55 54 55 56 59 64 67 72 76 81 83 83 85 89 91 91 91 93 95 97 97 101 103 105 105 107 110 112 113 115 116 116 118 120 120 121 119 115 111 108 108 108 110 111 111 109 104 98 97 97
59 57 57 56 55 56 58 59 59 62 65 69 71 73 76 78 81 84 88 89 91 94 96 98 100 103 106 107 107 106 106 109 111 112 112 113 113 113 113 112 112 112 114 114 113 116 110 105 102 98 97 95 91 92
63 62 60 60 58 59 60 62 61 63 66 67 70 73 74 78 81 85 88 89 88 89 91 92 94 95 96 97 99 101 103 104 107 108 109 110 111 111 112 113 113 111 108 104 100 98 98 97 96 94 92 90 88 87
64 65 65 66 67 66 66 63 63 64 65 67 68 70 72 72 74 75 78 80 83 84 86 88 89 91 92 94 97 98 101 103 106 107 108 107 105 104 101 99 97 96 96 96 94 94 93 91 89 88 86 85 82 78
74 74 74 70 69 68 67 71 69 71 72 74 73 74 76 77 79 79 80 80 81 83 84 84 84 85 86 87 89 90 91 92 93 94 94 93 92 91 88 86 86 86 85 86 85 84 84 83 82 79 75 74 73 71
66 66 68 67 66 65 67 69 70 71 72 74 75 76 77 79 79 79 79 80 82 83 81 81 83 84 85 87 87 87 86 86 86 85 84 84 83 81 80 81 82 82 82 80 79 77 75 74 73 71 70 69 67 67
63 64 64 64 64 65 67 70 72 73 73 74 74 76 76 76 76 75 77 79 79 78 78 77 77 78 79 79 79 79 78 77 76 75 74 74 74 73 75 76 75 73 72 71 70 70 70 69 68 67 65 65 64 64
64 65 65 66 68 69 70 71 72 73 72 71 71 71 71 72 72 71 72 73 73 73 72 71 71 71 71 71 71 71 70 68 67 67 68 69 71 71 69 67 67 67 66 66 66 66 66 64 63 63 63 62 62 62
59 59 60 60 63 64 65 67 66 65 65 66 66 66 68 68 67 67 70 70 69 68 68 66 65 64 64 64 62 60 60 61 62 64 65 65 65 65 65 65 65 63 61 60 60 61 62 62 62 62 62 61 58 57
53 54 55 56 59 59 62 62 61 60 61 61 60 60 60 60 60 61 61 60 60 59 58 57 56 55 54 54 56 58 58 59 60 59 60 60 60 60 60 60 60 60 60 60 59 57 57 58 58 57 57 57 55 55
42 42 43 44 47 47 48 48 50 51 51 51 51 52 52 52 53 53 53 52 51 50 49 49 50 52 53 55 56 57 56 55 56 56 55 54 54 55 56 55 55 55 56 56 55 54 54 53 54 54 55 57 57 56
35 36 38 38 39 40 41 43 44 45 46 46 46 46 47 47 47 46 46 46 47 47 48 49 51 51 51 52 52 52 51 50 49 49 51 51 51 50 51 51 50 51 52 52 50 50 50 51 52 53 52 53 52 51
31 32 33 33 34 34 35 36 37 38 38 39 39 41 41 42 42 43 44 44 45 46 47 47 47 47 47 48 48 48 48 48 48 47 46 46 46 47 47 47 47 48 48 48 49 49 48 48 49 48 47 46 46 47
30 30 30 31 32 33 34 35 35 35 36 37 38 39 39 39 40 39 39 40 41 43 44 44 44 45 45 45 46 47 47 47 48 47 46 46 46 46 46 45 46 47 47 47 47 49 49 48 46 45 44 43 41 40
26 26 27 28 28 29 29 30 31 33 34 36 36 36 35 34 35 36 36 38 40 40 40 42 43 43 43 43 44 45 45 45 46 45 45 45 45 46 46 47 47 47 46 46 45 44 43 43 44 42 40 39 39 39
25 25 26 26 27 27 27 28 29 30 31 33 33 32 32 32 34 35 37 37 37 37 39 40 40 40 41 42 42 42 42 42 42 42 43 44 44 44 43 42 41 42 41 40 41 42 42 41 39 39 39 38 37 36

GFSWCAN_250_spd_030.txt.gz
Wind_Speed
60 56 54 57 56 58 62 70 69 68 65 60 53 56 58 57 52 53 52 50 49 47 46 43 42 41 39 36 33 30 30 31 32 33 33 34 32 33 34 35 36 38 39 38 36 38 38 42 46 50 55 59 64 66
58 51 50 53 58 61 69 70 66 63 59 55 53 59 58 58 56 52 50 49 48 48 47 45 44 43 40 34 32 31 31 32 32 33 34 36 36 37 37 36 39 41 44 42 46 47 46 48 53 58 62 65 68 71
55 52 53 57 62 68 71 65 61 57 55 50 55 63 59 57 53 53 50 50 47 48 47 46 44 42 41 37 35 34 34 34 34 36 37 37 39 40 41 42 44 47 49 50 50 52 55 58 60 63 66 69 72 75
56 51 55 61 66 70 68 63 58 54 51 49 62 61 57 53 49 51 49 49 47 47 47 46 45 44 43 41 39 39 38 37 36 37 38 40 42 43 44 47 48 52 55 53 51 58 61 64 67 68 71 74 78 82
51 52 55 60 67 69 66 58 55 51 47 54 66 60 55 51 46 46 47 47 47 47 48 49 47 45 45 44 43 42 42 41 39 37 35 35 37 42 44 45 49 57 58 58 59 64 65 68 71 74 78 81 84 86
55 52 54 64 69 66 66 58 54 50 44 55 65 61 55 50 46 43 41 42 42 45 48 48 50 49 49 49 49 49 48 48 46 45 44 44 46 46 45 49 66 64 64 66 67 70 71 73 75 78 82 84 87 87
52 52 55 62 68 66 63 59 55 50 44 51 62 63 56 53 49 47 45 44 43 43 44 48 50 49 52 56 56 55 54 52 50 49 50 53 54 54 53 58 68 67 69 72 74 75 78 81 83 85 87 87 89 91
55 53 60 63 67 64 62 58 55 52 47 44 55 64 60 57 55 53 50 46 45 44 44 45 46 50 53 56 57 58 59 59 58 58 59 60 59 61 61 68 70 71 75 77 79 82 83 84 84 86 89 91 92 92
55 56 64 64 69 64 62 59 56 51 48 46 46 56 64 63 60 58 56 53 50 46 45 46 49 53 54 58 58 59 59 59 59 60 61 60 60 64 68 72 75 77 78 79 80 80 82 85 88 91 90 91 91 92
51 54 65 68 69 65 61 59 56 54 50 50 50 47 47 56 66 64 62 61 57 55 51 52 54 56 59 61 62 62 60 58 56 60 64 64 65 70 75 78 78 79 79 79 81 84 87 89 89 90 91 93 94 96
51 51 61 62 68 65 59 56 54 52 52 50 49 49 50 49 48 53 61 61 61 61 61 60 63 65 65 64 65 66 66 67 66 67 71 70 73 77 81 82 82 84 86 87 86 86 87 89 91 93 95 98 101 103
52 56 62 64 69 65 59 57 56 54 52 53 50 47 47 45 46 47 46 48 54 63 70 73 75 73 72 74 74 73 75 75 74 73 73 70 72 77 79 81 82 83 84 86 88 90 92 94 96 99 102 105 108 111
50 55 62 63 66 66 63 63 61 58 55 52 52 51 50 48 45 43 45 51 56 58 61 65 67 69 70 71 71 72 73 71 73 72 73 74 77 79 80 81 83 85 87 89 92 95 98 101 104 106 109 112 115 118
53 54 57 60 64 63 67 65 62 62 58 54 56 56 54 52 52 51 53 55 55 58 61 62 63 65 67 68 71 72 73 72 72 74 76 79 81 82 85 87 89 92 95 98 101 102 106 109 111 113 116 119 121 123
50 52 56 56 60 62 64 65 63 62 61 63 64 63 60 59 59 58 58 60 61 61 62 64 66 68 70 72 73 75 77 78 79 82 85 88 91 93 96 98 100 102 104 106 108 111 115 117 119 121 121 122 123 121
45 45 47 51 56 60 61 59 61 64 66 64 64 66 68 67 66 67 67 68 69 71 72 74 75 76 79 80 81 83 85 87 90 93 95 97 100 102 104 106 110 112 113 115 117 117 119 121 120 119 118 115 115 115
50 50 50 50 51 55 60 62 62 61 62 64 65 69 72 70 71 73 75 75 76 78 79 80 81 84 85 87 89 92 94 97 100 101 103 105 107 110 113 114 114 115 116 117 117 116 114 112 109 108 109 110 110 106
53 54 53 54 54 54 57 59 60 61 62 62 62 64 68 72 73 75 77 78 80 82 84 85 88 90 91 93 95 97 100 102 104 106 107 108 111 113 115 115 114 113 112 112 111 110 111 110 110 110 106 101 100 100
50 51 51 52 54 56 58 61 61 63 66 67 68 67 68 69 73 76 79 82 84 87 89 91 92 95 97 97 100 103 105 107 110 112 113 112 111 110 110 111 112 112 111 110 111 112 109 106 102 101 101 98 95 94
49 51 52 53 53 54 54 54 56 57 59 60 65 69 72 74 77 79 80 84 87 88 89 90 92 94 96 99 101 102 103 102 101 102 106 107 106 107 107 108 109 110 110 107 104 102 101 98 94 92 91 89 85 83
53 54 54 55 57 58 56 58 59 58 59 61 62 64 67 69 70 71 72 73 75 80 85 87 90 92 92 94 95 96 94 93 93 97 101 103 103 102 102 101 101 100 99 95 91 90 89 88 87 86 84 82 79 78
58 58 59 57 58 56 57 59 61 63 63 64 64 66 67 70 72 74 75 74 76 79 82 84 83 83 87 89 90 90 90 90 91 92 93 94 94 93 94 92 90 88 87 85 84 84 84 82 80 78 75 74 74 73
63 63 64 63 63 62 63 63 63 63 64 64 64 66 68 69 70 70 72 75 76 77 79 79 80 83 85 86 86 87 86 87 89 89 89 87 85 84 83 82 81 82 82 82 81 78 77 75 74 72 70 69 67 67
62 63 64 66 66 69 70 70 69 68 67 68 68 70 70 71 71 72 73 78 79 78 79 80 80 80 81 81 81 80 80 81 81 80 80 79 79 78 76 76 77 77 77 74 73 73 72 70 68 67 65 64 64 64
64 65 64 64 63 64 64 67 68 68 67 67 67 70 72 73 72 72 73 76 74 74 75 75 75 76 75 75 75 76 77 77 75 74 73 72 71 71 72 72 71 69 68 69 68 67 66 65 64 64 63 62 62 62
60 61 62 61 62 63 63 65 66 65 66 66 66 69 70 69 67 66 69 70 69 68 68 70 71 72 73 73 72 71 69 68 67 67 67 67 67 67 66 66 65 63 62 62 63 63 63 62 62 62 62 61 61 60
57 57 57 56 58 59 60 60 60 60 60 60 62 64 65 64 64 65 65 66 67 67 67 66 66 66 66 64 63 62 62 63 64 64 63 63 63 62 62 61 61 61 60 59 58 59 60 60 60 59 60 59 57 56
56 56 56 54 55 56 59 58 58 59 60 60 61 62 62 61 61 61 60 60 60 60 60 59 59 59 59 59 60 62 62 61 60 60 59 58 57 57 56 56 56 56 57 57 56 57 57 57 57 57 57 57 57 56
47 48 49 49 49 49 50 53 54 54 54 55 55 55 56 55 55 55 54 54 54 54 55 55 56 57 58 59 58 57 57 57 57 56 55 54 53 53 53 54 54 54 55 55 54 54 55 55 55 55 55 56 56 56
40 41 42 43 44 44 45 46 47 48 48 48 48 49 49 49 49 49 50 50 51 52 52 53 54 54 54 54 54 54 54 53 52 51 51 52 52 52 52 52 53 53 53 53 52 52 52 52 52 52 53 52 51 51
33 34 36 37 37 38 39 40 41 42 43 44 45 45 45 45 45 46 47 47 48 49 49 50 50 50 51 51 50 50 51 51 51 51 51 51 51 51 51 50 49 50 51 51 51 52 51 50 50 49 47 47 47 45
29 30 30 31 32 33 34 35 37 38 39 41 41 41 41 40 41 43 43 44 45 45 45 46 46 46 47 48 49 49 50 50 51 51 51 51 49 49 49 49 48 49 49 47 47 47 47 46 45 45 45 44 42 41
27 28 29 30 31 31 32 33 34 35 36 37 38 37 36 37 38 39 41 41 42 42 43 44 44 45 46 47 47 48 48 48 47 47 47 47 48 48 48 47 46 45 45 45 44 43 44 45 45 44 43 42 42 41

GFSWCAN_250_spd_036.txt.gz
Wind_Speed
55 55 59 61 59 58 58 54 55 60 61 62 64 64 61 63 62 60 65 65 64 55 58 56 50 49 46 44 41 40 39 39 36 35 35 36 36 36 34 33 33 34 34 37 38 40 40 42 43 46 49 50 52 53
56 59 61 60 62 59 57 56 58 58 59 60 62 60 61 60 62 65 62 65 61 56 59 54 52 50 48 44 41 39 39 37 37 37 36 35 36 35 34 34 34 35 37 40 42 43 44 44 47 50 52 54 57 60
58 59 59 58 58 58 59 61 63 64 61 60 62 61 60 60 63 66 63 65 59 59 59 54 53 50 48 46 43 41 41 40 38 36 36 35 35 35 35 37 39 40 43 44 45 47 47 48 51 52 53 55 58 62
53 55 57 58 58 55 56 61 65 63 64 63 62 62 62 64 65 61 66 63 58 58 58 54 53 50 49 47 44 44 43 41 38 37 37 37 37 37 38 39 41 43 44 45 47 48 48 50 50 50 56 60 64 66
45 49 56 57 59 61 61 60 60 59 58 61 62 64 65 65 63 60 65 59 60 60 58 54 53 51 50 47 45 45 45 43 42 41 40 40 40 39 40 41 44 45 46 47 50 52 54 57 60 61 62 66 67 71
37 39 49 53 57 58 56 57 53 60 60 61 61 65 65 61 57 62 63 60 57 53 54 52 52 52 50 49 46 44 44 45 45 44 43 42 44 43 43 45 49 52 53 53 55 57 59 60 63 66 70 72 76 79
29 32 38 42 45 49 46 47 53 53 54 58 59 62 62 57 57 60 63 57 54 53 54 53 52 50 50 49 47 46 45 45 45 45 45 47 50 51 52 53 58 60 59 59 60 62 66 70 72 73 76 79 82 83
31 31 33 38 39 40 42 47 51 49 50 51 52 51 50 51 58 60 63 54 49 54 54 52 51 52 52 51 50 48 47 47 48 50 52 54 55 56 57 61 63 64 65 66 68 72 72 73 76 79 81 82 84 87
32 30 31 35 39 43 46 47 48 48 49 49 48 47 51 51 55 59 63 57 51 49 49 50 52 53 52 52 52 52 52 52 52 53 55 56 57 59 62 64 66 67 71 72 73 75 76 77 79 81 84 87 91 97
33 36 35 37 42 48 50 49 50 49 49 51 46 49 53 53 50 57 59 54 51 50 52 53 53 53 54 55 55 54 54 53 52 55 56 56 58 65 68 69 70 73 75 76 76 78 79 81 83 86 91 96 99 98
32 38 41 43 47 49 48 48 51 49 51 51 48 44 48 50 52 54 56 52 47 48 53 55 53 53 54 54 54 53 54 54 53 56 59 59 61 68 71 73 73 73 74 76 79 82 84 88 92 96 99 98 97 97
37 38 47 48 50 51 48 48 46 51 51 51 49 43 42 44 54 53 57 54 51 52 54 54 52 51 51 51 52 53 56 56 55 58 61 62 68 72 72 72 74 77 81 84 87 90 93 96 97 96 97 98 100 104
38 38 42 52 51 54 52 52 50 51 50 49 48 45 40 39 47 58 60 58 55 54 56 57 57 56 56 57 58 59 59 59 62 63 64 70 74 75 77 80 83 86 88 90 91 93 94 94 95 96 99 103 106 109
46 41 41 40 51 56 56 56 55 52 52 51 48 45 40 39 43 52 62 62 59 58 55 55 57 59 60 61 60 62 63 66 67 70 75 78 80 82 83 83 84 84 85 87 90 92 94 96 100 103 106 109 112 115
46 50 46 43 44 46 54 57 58 57 55 52 50 49 46 46 47 50 53 58 62 61 61 61 62 63 65 65 67 69 70 71 72 72 72 74 75 77 79 81 82 83 86 90 93 97 100 103 106 109 112 114 116 116
47 48 50 46 42 43 44 47 54 56 56 55 54 54 52 53 54 53 55 56 59 61 62 62 63 64 65 65 66 68 70 70 70 71 72 75 78 81 83 86 88 91 95 98 101 104 107 110 110 112 112 111 113 112
48 48 44 46 43 44 49 49 57 61 62 60 60 60 60 60 58 58 58 58 59 60 61 62 63 65 66 67 69 70 72 74 76 78 80 82 85 88 92 94 96 98 102 105 106 107 109 110 109 108 108 105 108 110
43 46 49 48 49 45 50 53 56 61 62 62 63 65 65 64 64 65 66 66 66 67 67 67 69 70 72 74 75 77 78 80 82 85 88 90 92 95 98 100 101 100 100 102 104 105 106 108 108 106 108 111 111 108
43 45 48 50 51 51 55 56 56 62 64 63 64 66 64 64 65 67 68 68 69 70 71 73 74 76 78 78 80 82 84 86 88 89 91 92 94 96 98 97 97 99 103 104 106 105 104 106 108 108 108 106 103 99
45 46 48 51 53 56 57 59 61 65 67 69 68 69 70 71 73 74 74 75 76 75 76 78 81 83 83 84 86 88 88 88 89 91 93 94 95 98 99 100 102 101 102 102 104 107 106 104 101 100 98 96 94 89
46 48 49 51 53 56 58 61 64 68 70 72 73 75 76 78 77 76 77 80 81 81 81 83 85 87 86 86 87 88 90 89 90 92 96 98 96 96 97 98 97 99 102 106 103 98 97 96 93 92 89 86 82 78
47 48 50 52 54 56 58 60 63 65 67 70 72 73 74 75 75 76 78 78 78 80 80 81 82 84 85 86 87 87 88 90 92 92 93 95 98 99 99 101 101 99 96 93 91 91 90 88 85 81 79 77 76 74
48 49 51 52 53 53 56 59 59 60 61 63 66 68 71 72 73 74 74 75 76 78 80 81 81 82 83 84 85 87 89 91 93 94 96 96 96 97 93 90 88 86 86 86 86 85 82 79 77 75 74 72 70 69
50 53 53 55 55 56 57 58 60 61 63 64 66 68 69 71 73 73 74 75 76 77 78 79 81 83 83 85 87 88 90 91 92 90 87 85 84 83 82 81 82 82 81 80 78 76 74 72 71 69 67 66 65 64
49 54 53 54 57 58 59 60 62 64 65 65 66 67 68 70 70 71 74 75 76 77 78 80 81 83 85 86 86 84 81 80 80 80 79 78 78 78 78 77 76 76 74 73 70 70 68 67 65 64 62 62 62 61
43 45 47 51 55 59 60 62 63 64 66 67 69 70 71 71 72 74 74 74 75 74 73 73 73 74 74 74 74 74 74 75 75 75 75 73 73 72 72 72 71 69 68 68 67 65 63 62 61 61 60 59 59 58
42 42 43 43 44 45 47 47 48 50 51 54 54 56 57 59 59 60 61 62 64 65 66 67 68 68 69 70 70 70 69 68 67 67 66 66 66 65 65 64 64 63 62 61 60 60 60 60 59 59 58 55 55 55
36 37 39 39 40 42 44 45 46 47 48 49 50 53 53 54 57 58 58 60 62 63 64 65 65 65 64 64 63 62 62 62 60 60 60 60 61 61 60 59 58 57 56 56 57 56 56 56 56 55 54 55 54 54
38 38 39 40 40 42 43 45 46 46 46 48 48 50 51 51 52 54 56 56 56 56 56 56 57 57 57 57 57 58 58 58 58 57 56 56 56 55 55 54 54 54 53 53 53 53 53 52 53 54 54 54 53 52
35 35 36 37 37 38 38 39 40 40 42 42 43 45 46 46 47 46 46 46 48 49 51 52 52 52 52 52 53 53 53 53 53 53 53 52 52 51 52 52 52 52 51 51 49 49 50 51 51 51 50 50 49 48
30 31 32 32 33 33 34 35 36 37 38 39 39 39 40 40 41 42 43 44 45 45 46 47 48 48 48 48 48 49 49 50 50 50 50 50 50 50 49 49 50 50 50 49 49 48 48 47 46 46 46 45 45 46
27 28 29 29 30 30 31 32 33 34 34 35 35 35 35 37 39 40 41 42 43 44 44 45 44 45 45 46 46 46 46 47 47 47 47 47 48 48 48 47 48 49 48 47 46 46 45 45 45 44 43 43 42 42
26 26 27 28 28 28 29 30 31 33 33 32 32 34 35 37 38 39 39 40 41 42 42 43 44 44 44 44 44 45 45 46 47 48 48 47 46 46 46 46 45 46 46 45 45 44 44 43 42 42 42 42 40 39

GFSWCAN_250_spd_039.txt.gz
Wind_Speed
46 46 46 45 45 46 46 46 49 53 57 59 61 63 62 62 60 65 66 69 69 69 66 66 62 62 55 55 52 49 47 45 44 41 37 38 37 37 35 34 33 34 36 39 39 39 40 43 44 47 48 49 51 53
48 48 47 46 46 47 48 51 54 58 61 63 63 64 63 62 67 70 68 66 68 70 62 61 62 58 57 55 50 50 48 45 42 39 39 37 38 39 38 37 37 38 39 40 41 41 42 43 45 46 49 52 54 56
48 48 48 49 50 51 52 53 57 61 62 62 63 61 62 69 74 70 59 67 68 63 59 65 65 57 56 53 53 49 46 42 42 42 40 38 39 39 40 41 40 41 42 40 42 42 43 46 48 50 52 54 56 57
51 50 50 51 52 54 56 58 60 61 61 61 60 63 66 66 69 70 64 63 60 60 59 63 63 58 56 52 52 51 47 45 44 43 40 40 41 41 41 40 41 42 43 44 45 46 48 47 48 51 54 57 59 62
54 54 55 54 54 55 55 56 57 56 57 64 67 63 64 67 68 64 60 55 59 58 62 62 61 59 56 54 54 52 48 45 44 44 42 42 42 42 42 42 43 45 45 46 47 47 49 52 53 57 60 63 65 66
53 53 53 55 57 58 58 58 59 61 64 65 64 63 63 65 63 61 55 60 60 63 62 56 57 58 55 55 55 53 51 48 46 45 45 44 43 43 42 44 46 48 49 48 49 53 56 60 61 64 66 67 70 75
48 48 49 51 53 54 56 57 60 62 64 64 63 63 62 62 57 57 61 60 60 62 60 56 58 58 55 55 55 54 53 50 49 48 47 48 49 48 48 48 52 52 52 54 59 62 62 67 66 70 71 76 78 80
48 46 47 48 50 52 57 61 60 62 63 62 61 58 58 59 58 60 60 58 62 63 56 52 54 55 52 52 54 54 53 52 50 48 48 50 51 51 49 54 57 58 60 63 65 68 70 70 72 75 79 81 83 85
39 44 49 49 48 47 47 49 49 50 55 55 53 56 56 56 55 58 58 55 58 62 54 49 51 55 53 52 52 53 54 53 51 50 52 52 52 53 57 61 63 65 66 68 70 72 73 76 80 82 83 85 87 88
34 35 34 36 37 42 44 43 44 47 47 48 49 48 50 55 54 55 53 49 55 58 50 50 50 51 54 54 52 54 55 56 54 54 55 54 55 60 64 65 66 68 68 68 71 75 78 81 83 85 86 87 89 93
27 29 31 34 38 38 38 36 40 41 42 42 43 48 52 47 47 49 48 49 56 56 55 53 50 51 52 54 55 53 53 55 56 58 59 58 60 67 69 68 68 69 71 75 78 81 81 82 84 86 90 94 97 99
19 20 23 25 28 30 35 38 40 40 39 45 44 46 46 45 48 46 44 47 55 58 58 52 50 51 53 55 55 56 57 55 53 59 61 58 65 69 70 70 71 74 77 79 80 81 83 87 91 94 95 94 95 98
23 21 21 24 26 29 35 36 37 38 43 47 45 45 45 44 44 46 47 48 54 58 64 61 57 56 55 57 58 59 59 57 58 58 57 59 68 69 70 73 76 77 78 80 83 87 91 93 92 93 95 97 99 102
28 30 29 28 32 35 38 36 35 37 39 41 42 45 43 41 44 48 50 50 52 54 58 64 60 58 58 60 59 60 60 61 60 61 63 70 70 72 73 74 76 80 84 87 90 92 92 93 94 96 100 103 107 110
34 34 34 37 37 40 40 41 41 42 45 45 44 44 45 46 43 42 45 48 51 56 57 60 64 63 61 58 58 60 61 62 62 65 70 71 72 74 76 80 84 87 90 90 90 92 93 96 100 105 107 109 110 110
37 38 40 39 43 48 45 46 47 47 47 46 46 48 48 50 51 49 48 48 48 51 58 62 64 66 67 64 63 63 64 63 66 70 72 74 78 82 85 88 88 88 89 92 93 96 100 104 107 109 108 109 110 110
44 43 42 45 44 42 50 55 52 51 49 48 51 51 52 53 53 53 51 52 52 53 55 57 61 67 70 71 71 71 72 73 75 77 80 82 85 85 85 86 88 90 93 96 100 104 106 107 106 105 106 108 106 106
49 46 45 47 49 49 47 46 50 51 54 56 55 54 58 57 57 58 59 59 60 59 57 57 59 62 65 69 72 75 76 78 80 80 81 83 84 86 88 91 94 97 101 103 104 104 103 104 105 105 105 105 106 108
46 45 47 48 47 49 48 50 50 49 49 52 57 63 67 65 68 67 67 66 65 64 64 65 66 67 70 71 74 76 79 81 82 84 86 88 91 94 96 97 99 101 101 101 100 103 103 104 106 104 105 107 110 111
44 45 46 47 48 50 51 53 53 51 53 56 59 60 61 65 67 70 72 72 71 71 70 71 74 76 78 80 82 84 86 88 90 89 89 91 92 96 97 99 100 99 100 102 102 102 104 104 105 107 109 108 106 104
51 49 49 50 51 54 53 53 56 57 59 58 59 61 62 63 67 69 70 73 75 75 75 77 79 81 82 83 84 85 86 87 88 89 92 94 96 99 99 97 97 99 100 101 102 102 103 106 107 105 103 102 100 98
47 45 49 51 54 55 54 55 56 57 60 63 64 65 68 68 69 71 73 74 76 79 81 82 84 85 86 86 86 86 87 88 90 92 93 96 95 96 96 98 99 100 101 100 100 102 104 103 101 99 97 95 90 85
48 48 49 48 50 52 56 57 59 59 61 63 64 67 70 72 73 74 75 77 79 81 83 84 85 85 85 85 87 88 89 90 91 93 94 94 95 96 97 98 99 100 100 99 99 98 97 95 94 91 87 83 81 79
47 49 50 51 53 54 55 57 59 59 60 61 62 64 67 69 70 72 74 76 77 78 79 80 81 83 86 87 88 89 90 90 91 92 93 95 96 96 97 98 97 95 94 93 92 91 89 86 83 80 78 76 75 72
49 51 52 52 53 55 56 57 59 60 62 62 63 64 66 67 68 69 71 73 75 77 79 81 83 84 85 86 86 86 87 89 91 93 93 94 95 94 92 90 90 89 88 86 83 80 78 77 76 74 71 69 68 66
43 47 51 53 53 53 54 56 59 60 62 63 65 67 68 69 70 70 72 74 77 79 80 81 82 83 84 85 86 87 89 90 91 91 89 88 88 86 86 85 83 80 78 76 74 74 72 70 69 67 65 64 64 63
37 39 39 42 46 51 53 55 56 58 59 61 63 65 67 69 69 70 72 73 75 76 77 79 81 83 85 85 85 86 86 85 84 84 83 81 79 76 75 74 73 71 71 70 68 67 66 65 64 63 61 60 59 58
34 34 36 38 40 40 43 45 47 49 52 53 56 59 60 62 65 67 68 70 71 73 73 74 75 77 79 79 79 78 78 76 74 73 71 70 69 69 68 67 66 65 64 63 62 62 61 60 60 58 58 57 57 56
40 40 41 42 43 45 46 47 49 50 52 53 54 56 57 59 60 62 64 65 65 67 68 69 70 70 70 70 69 67 67 66 66 65 64 64 64 64 62 61 61 60 59 57 57 57 56 56 56 55 55 55 54 53
38 39 40 41 42 42 43 44 46 47 48 49 50 52 53 54 55 56 57 59 60 60 60 60 60 60 60 60 60 60 60 60 60 60 60 59 58 57 57 56 55 55 54 54 54 54 54 53 53 53 53 52 51 50
33 34 35 36 37 38 38 39 39 40 41 42 43 44 45 46 47 48 49 50 51 52 52 52 52 53 53 53 54 55 55 55 55 54 53 52 52 51 51 52 53 53 54 52 51 51 50 50 50 49 49 48 47 46
29 29 30 30 31 31 32 33 34 35 36 37 38 39 40 42 43 43 44 45 45 46 47 48 49 49 49 49 49 49 49 48 48 48 48 49 50 51 51 51 50 50 49 49 49 48 47 46 45 45 44 44 43 43
27 27 28 29 29 30 31 31 32 32 32 32 32 34 36 38 39 40 41 42 42 42 42 42 43 43 44 44 45 46 46 47 48 49 49 48 48 47 47 47 47 47 46 45 44 44 44 44 43 43 42 42 42 41

GFSWCAN_250_spd_042.txt.gz
Wind_Speed
30 32 35 38 40 38 38 38 38 41 44 49 51 56 61 62 60 59 56 46 32 46 59 58 55 54 53 44 44 63 54 56 49 52 49 47 46 43 41 39 38 36 35 34 33 34 36 40 41 44 44 46 49 51
35 37 39 40 40 39 38 37 39 45 50 54 56 58 61 60 62 61 58 65 31 60 51 49 53 56 61 50 50 58 63 59 54 51 49 46 46 43 42 40 40 40 38 37 36 34 38 40 41 44 49 51 52 53
36 37 37 37 36 36 37 39 42 46 50 56 59 61 62 64 61 53 56 60 64 52 55 58 60 67 65 68 59 60 58 52 53 52 52 47 45 41 41 40 42 41 42 40 41 40 40 44 42 46 50 50 52 54
36 35 33 34 36 36 38 42 47 50 56 59 61 59 57 53 50 54 45 36 39 50 51 54 60 62 68 68 51 68 58 57 54 53 50 48 46 43 41 39 41 43 44 43 46 44 47 42 44 52 50 51 52 55
40 38 38 39 39 41 44 45 51 54 56 60 62 65 67 59 60 64 74 71 57 53 55 63 65 67 63 66 67 62 58 55 54 53 49 48 48 46 43 42 42 43 44 46 46 48 49 44 48 51 52 53 58 63
44 45 43 40 40 43 47 50 54 55 54 58 61 63 64 63 64 66 68 58 61 62 65 64 63 61 59 57 57 58 55 54 52 50 49 48 49 46 44 45 43 47 48 49 48 51 50 51 51 55 57 62 66 70
41 42 43 45 47 47 49 48 49 54 58 59 57 60 58 57 56 53 60 64 62 64 65 64 56 57 58 59 55 52 51 51 52 53 50 49 49 48 48 47 47 51 51 52 54 54 54 55 57 61 65 69 72 75
41 42 43 43 45 45 48 50 52 54 53 53 55 55 55 55 53 58 60 61 63 66 60 55 51 56 55 58 54 48 50 53 55 55 54 53 52 51 49 50 52 55 55 57 59 59 58 62 65 68 71 74 77 79
34 35 36 38 42 43 42 42 43 45 48 52 55 55 53 56 59 61 57 56 60 59 54 52 49 53 52 52 54 54 54 55 54 54 56 56 54 52 53 57 57 59 59 59 62 64 66 68 71 73 75 76 79 83
31 31 35 36 39 43 45 46 45 45 49 52 57 60 58 59 57 56 54 50 52 52 52 50 48 50 48 48 51 55 56 55 52 52 54 54 55 58 61 61 62 63 64 64 66 68 70 73 75 76 79 82 85 88
31 32 36 34 35 39 41 45 47 48 49 51 54 55 54 50 49 53 53 51 47 49 49 48 48 48 45 44 47 51 53 50 48 50 54 55 56 63 66 66 67 66 67 67 69 72 74 76 78 81 84 87 88 90
28 30 32 33 34 35 39 42 46 46 49 50 52 50 48 47 48 48 48 46 46 48 46 48 55 54 51 48 47 48 52 54 53 53 54 50 56 64 67 68 69 69 70 71 73 74 76 79 83 85 88 90 92 95
22 24 24 25 24 29 30 34 34 36 39 44 44 40 39 40 41 43 45 46 47 51 49 48 51 56 56 53 52 53 52 53 54 55 55 55 64 67 68 68 68 69 70 72 75 79 82 84 87 89 91 93 97 101
19 20 23 23 24 26 27 30 29 30 36 38 38 37 36 37 40 43 45 44 47 49 45 45 49 54 60 59 57 58 57 56 55 54 53 63 67 68 70 72 72 73 76 79 81 83 85 88 89 93 96 99 104 104
19 19 19 20 21 21 25 27 27 29 33 35 34 38 40 41 45 46 44 43 44 46 47 47 47 52 60 62 64 64 61 59 57 58 64 66 67 69 71 72 74 76 79 82 83 85 88 92 95 99 103 104 105 107
23 23 24 23 24 25 27 31 30 30 33 31 33 39 38 38 43 45 44 43 45 46 47 48 50 52 54 56 60 63 68 70 70 71 69 69 70 71 72 75 77 78 80 84 87 91 94 99 102 102 103 106 109 114
29 28 30 30 31 30 31 34 37 38 36 35 38 41 41 40 40 44 47 47 46 46 48 50 52 55 56 57 59 61 63 65 70 72 74 75 76 77 79 81 84 87 90 92 95 98 99 99 101 105 109 112 113 114
40 37 36 35 37 39 40 41 39 39 40 42 44 44 45 46 47 47 48 49 52 54 56 57 57 57 56 56 57 59 62 65 70 74 77 81 84 86 88 91 93 95 95 95 95 98 100 104 107 109 110 111 109 108
46 44 45 43 43 41 40 44 45 46 46 45 45 46 48 50 52 53 54 56 58 59 60 61 62 62 62 62 62 62 63 64 66 68 72 75 77 81 83 86 89 93 95 97 99 103 106 105 106 107 106 106 107 107
49 47 47 47 46 46 43 42 46 49 48 49 50 53 54 54 55 58 60 62 64 65 66 66 67 68 69 68 68 68 69 70 72 75 79 83 86 88 90 93 96 97 100 102 101 101 102 103 105 105 106 106 104 104
44 46 47 47 46 48 48 47 49 51 52 54 56 56 55 54 56 59 62 66 70 72 73 74 74 75 76 77 78 79 81 82 84 86 89 91 92 94 95 96 96 95 96 98 100 100 102 105 104 104 104 103 104 102
56 53 54 53 54 49 51 50 52 52 52 52 54 55 58 61 64 65 65 67 68 69 71 72 75 78 80 81 82 83 85 87 88 89 91 92 94 95 94 94 96 97 98 100 100 100 100 101 101 100 100 99 100 101
58 59 56 55 58 56 54 55 56 56 56 56 57 59 60 63 65 66 68 69 70 70 72 75 77 78 79 80 82 84 85 86 88 90 91 92 94 96 96 96 97 98 98 97 97 97 97 97 96 96 97 97 97 94
56 57 58 57 55 55 54 56 55 55 60 62 63 63 62 62 63 65 69 70 72 73 75 77 79 80 81 82 83 83 84 85 87 89 91 92 94 96 98 98 97 96 95 95 95 93 93 93 93 95 96 92 88 85
53 54 55 57 57 58 60 59 59 60 60 60 61 61 62 63 62 64 66 67 69 71 72 74 75 77 78 80 82 83 84 86 88 90 91 91 91 92 93 92 92 91 89 90 90 89 89 90 91 89 86 83 81 79
48 50 52 54 54 55 56 57 59 59 60 62 63 63 64 64 64 64 64 65 67 68 70 71 73 74 76 77 79 81 83 83 85 85 86 86 86 86 87 86 86 88 85 85 85 86 85 83 81 79 77 75 74 73
40 43 46 49 52 54 55 56 56 57 58 59 59 60 60 62 63 63 64 65 66 66 67 69 71 72 74 76 77 78 79 80 80 81 81 82 82 82 82 82 83 82 82 82 80 78 76 75 73 71 71 69 68 67
38 39 42 43 45 46 48 51 53 55 57 58 59 60 60 61 62 62 63 64 66 67 69 70 71 72 73 74 75 76 76 77 78 79 78 79 80 80 79 77 75 74 73 72 71 71 70 69 68 67 67 66 65 65
41 42 43 43 44 46 47 49 50 52 54 54 55 56 58 59 60 62 63 64 64 66 67 68 69 70 70 71 72 73 73 74 75 75 74 72 71 71 69 69 69 68 68 67 66 65 65 65 64 64 63 63 61 59
39 40 41 42 43 43 44 45 46 47 48 50 51 53 54 56 57 57 59 60 61 62 63 64 64 65 65 65 65 65 65 65 65 65 65 64 64 64 65 65 64 64 63 63 62 62 62 62 60 59 58 57 57 56
37 36 37 38 39 40 41 41 41 42 42 43 45 47 47 48 49 50 51 52 53 53 54 54 55 56 56 57 57 58 58 58 59 60 60 60 59 59 60 60 60 61 61 60 59 58 56 56 56 55 54 53 52 51
32 31 32 32 32 33 34 35 36 37 38 38 39 40 41 43 43 45 46 47 48 48 49 50 51 51 52 53 53 53 54 54 55 55 55 55 56 56 57 57 56 55 55 55 55 54 53 51 50 50 49 49 48 47
27 27 28 29 29 30 30 31 32 33 34 35 35 37 38 40 41 41 41 42 43 44 45 46 46 47 47 48 48 49 49 51 51 52 52 52 52 53 53 52 51 50 50 49 48 48 48 48 47 46 45 45 44 43

GFSWCAN_250_spd_045.txt.gz
Wind_Speed
21 23 28 31 33 35 36 38 42 43 43 46 49 52 51 48 50 54 56 51 45 49 54 57 62 61 57 48 47 40 44 37 35 32 33 39 44 46 34 37 37 38 40 40 38 36 34 33 35 35 41 44 43 44
25 28 31 32 34 34 34 34 36 36 40 44 47 46 43 49 53 52 50 51 49 46 48 53 51 48 38 44 45 51 46 42 45 40 32 40 45 47 40 38 40 42 44 43 40 41 37 32 34 41 46 43 43 45
27 30 32 33 34 33 32 33 36 39 41 46 49 53 54 52 51 53 54 50 46 39 35 34 36 40 41 39 39 52 54 48 48 44 43 40 43 46 45 43 42 44 46 45 44 43 39 39 40 43 47 47 47 49
31 31 31 30 29 30 34 39 41 42 46 52 58 64 59 60 60 54 54 52 42 29 25 26 30 35 38 43 51 45 43 43 44 47 48 51 48 48 48 44 45 45 46 47 46 43 44 43 45 48 50 50 51 54
34 33 32 30 31 32 35 39 43 47 53 61 67 69 66 63 62 62 58 51 31 27 29 34 38 31 42 40 55 55 48 53 52 51 52 55 53 52 49 45 46 48 48 45 45 45 46 48 49 50 52 52 54 57
39 38 36 37 37 39 42 45 49 53 57 64 69 73 78 80 73 65 69 60 53 55 53 61 40 41 60 68 72 60 36 49 49 51 52 56 54 52 47 45 48 51 51 49 48 47 47 49 51 52 53 55 58 61
41 42 41 39 41 43 45 51 55 56 59 62 65 66 66 62 68 64 60 63 59 55 63 59 54 46 57 71 73 55 55 51 48 46 50 51 49 50 46 46 50 52 55 54 52 51 52 54 55 56 57 60 62 65
42 40 40 37 37 39 42 49 57 64 64 69 69 71 75 79 76 72 69 64 68 74 71 58 51 52 57 58 74 75 66 63 60 56 51 52 52 49 46 49 53 54 55 56 56 56 57 58 60 62 63 66 68 72
42 45 45 38 37 39 41 43 45 56 61 68 73 74 69 72 71 66 63 64 60 59 50 46 49 51 51 61 74 83 76 68 66 55 50 53 51 47 48 54 57 58 58 59 60 60 60 60 63 66 69 71 74 76
35 39 41 44 42 37 36 35 39 43 50 56 59 67 68 76 72 71 66 65 60 53 43 41 45 49 52 61 71 73 71 63 56 48 49 48 47 51 54 58 61 60 63 63 64 65 66 66 69 71 72 74 76 79
28 31 37 39 40 42 42 39 38 37 34 33 40 51 55 59 61 61 60 59 52 47 46 47 52 57 62 63 64 63 62 60 58 50 47 43 46 54 57 59 61 62 65 66 67 67 67 68 71 73 74 77 79 81
22 25 27 29 33 37 39 42 41 41 45 45 46 47 49 53 51 55 57 61 57 55 51 52 55 59 59 62 56 55 54 52 53 55 55 51 55 60 61 61 62 63 64 64 64 66 67 69 71 74 77 80 82 85
15 16 18 21 25 29 32 32 32 32 33 34 36 36 36 39 45 45 50 55 57 54 56 55 54 55 54 53 52 53 54 51 49 49 47 50 57 62 65 65 65 65 64 66 68 70 73 75 77 79 82 84 86 89
16 18 18 18 18 20 24 31 32 32 33 33 33 34 36 41 42 44 45 48 48 48 48 49 50 53 53 51 49 48 50 52 52 49 51 55 58 62 63 65 68 67 69 71 71 72 74 77 80 82 85 87 89 92
12 15 19 21 19 19 24 26 28 30 31 32 36 37 36 39 40 40 39 42 47 48 49 48 45 48 51 48 48 51 56 56 56 57 60 61 62 63 64 66 67 68 70 71 74 78 81 83 85 87 89 91 94 97
12 13 16 20 22 23 27 25 27 29 28 30 34 36 39 39 39 38 41 41 42 44 45 45 44 47 51 51 50 49 50 53 60 64 66 68 68 68 71 72 72 76 79 81 84 87 89 90 91 94 96 98 101 103
16 15 13 13 16 20 24 27 29 29 29 28 27 32 34 37 36 38 39 41 42 43 44 45 46 48 52 53 53 53 53 55 56 59 63 67 70 73 74 74 76 79 83 86 87 88 90 93 96 98 99 96 98 102
26 25 23 22 22 21 22 25 29 30 31 32 34 37 37 37 38 41 41 40 42 46 48 48 49 50 51 53 55 56 57 58 58 59 60 62 65 68 71 74 77 79 82 84 87 88 89 90 92 94 98 101 103 106
34 35 34 33 32 33 33 32 32 33 35 37 38 38 38 40 42 45 48 48 47 48 51 54 56 56 56 57 58 60 61 63 63 64 65 67 68 69 71 73 75 78 80 83 86 89 92 95 98 101 103 105 106 103
42 41 40 43 42 43 41 41 42 40 39 40 40 41 43 45 46 48 50 52 54 54 56 57 59 62 64 66 67 69 69 70 71 71 72 74 76 78 80 81 82 84 87 89 93 96 99 101 103 103 102 102 102 101
46 47 48 45 46 49 48 48 47 45 46 47 47 48 49 50 50 52 54 55 58 60 62 64 66 68 70 72 74 74 75 75 76 76 78 79 81 83 85 88 90 93 95 97 98 99 99 100 99 99 100 100 100 101
49 47 48 46 47 46 49 52 51 49 50 52 52 52 52 53 55 57 56 58 60 63 65 68 71 72 73 74 74 74 74 76 78 80 81 83 84 86 88 90 92 93 94 94 94 95 95 95 94 96 97 98 99 98
57 54 53 52 52 50 51 52 55 54 52 50 48 50 51 52 55 59 63 64 65 66 68 69 71 72 74 75 78 80 80 80 80 81 82 84 85 86 87 88 89 89 90 91 90 91 92 93 94 94 92 92 93 92
56 57 57 60 58 57 55 54 55 57 56 58 59 61 60 60 62 63 64 65 66 67 69 71 73 76 77 79 80 81 81 80 80 81 82 83 85 85 86 86 87 87 88 87 88 89 90 89 89 89 89 88 86 84
49 54 54 57 59 61 61 61 61 61 63 64 64 64 65 66 66 66 67 68 69 70 71 73 75 76 76 76 76 77 78 78 79 79 80 81 82 82 82 84 84 84 85 85 85 85 84 84 84 83 81 79 78 77
45 45 47 49 51 52 54 56 57 58 58 59 62 62 62 63 63 64 63 64 64 65 66 67 69 71 72 73 74 74 75 76 76 76 77 77 78 79 80 81 82 80 80 80 80 79 78 77 76 74 74 74 74 75
43 43 42 42 42 44 46 47 49 52 54 55 56 57 58 59 60 61 61 62 62 62 63 64 64 65 66 67 68 69 70 71 72 72 72 73 74 74 74 74 75 75 75 74 72 72 71 71 71 71 71 71 70 69
41 40 41 40 41 42 42 44 46 48 50 52 53 54 55 56 57 58 59 60 61 61 62 63 64 65 65 65 65 65 66 67 68 68 69 70 69 67 68 68 68 67 68 68 69 69 69 69 69 68 67 67 67 67
39 41 42 41 41 42 43 44 45 46 48 48 49 50 51 52 53 54 55 55 55 56 57 58 59 60 60 60 61 61 62 63 64 64 64 65 66 65 66 66 66 66 66 66 66 65 65 65 64 64 64 64 63 62
36 38 38 38 39 40 40 41 42 44 45 46 47 47 48 49 50 50 52 53 54 55 56 56 56 57 59 58 58 59 59 60 60 60 60 60 61 62 63 63 63 62 62 61 61 61 61 61 61 60 60 60 60 59
30 31 32 32 34 35 36 36 36 37 38 40 40 42 43 44 44 46 47 47 49 50 50 50 50 50 51 52 53 54 53 54 55 56 57 57 58 58 58 59 59 60 60 60 59 59 59 58 57 56 55 54 54 53
28 28 28 29 30 31 31 32 33 34 34 34 36 37 38 38 40 41 41 41 42 44 45 45 46 46 47 48 50 51 52 52 52 53 53 54 54 55 56 56 56 56 57 56 55 54 53 53 52 51 50 48 47 47
25 26 26 27 27 27 28 28 29 30 31 31 32 35 37 37 37 38 38 39 40 41 42 43 44 44 45 46 47 47 49 50 51 51 52 52 52 52 52 52 51 51 50 49 49 48 48 47 47 46 45 44 43 42

GFSWCAN_250_spd_048.txt.gz
Wind_Speed
13 17 24 30 33 34 36 38 40 43 47 51 54 57 57 57 65 64 62 70 77 86 85 80 80 76 73 70 68 67 68 64 63 59 58 54 50 46 42 39 40 42 35 32 33 33 31 36 36 39 39 40 38 39
13 19 24 28 29 29 32 34 37 42 47 49 51 51 52 53 57 58 57 62 70 77 76 75 73 70 67 69 67 66 62 63 60 55 50 46 42 39 35 38 36 39 36 34 34 31 34 39 42 43 44 41 40 42
17 18 22 27 29 31 32 34 36 39 42 44 46 50 54 54 54 56 58 60 60 64 67 67 66 65 64 63 61 60 57 55 53 53 48 39 39 41 36 31 38 39 45 40 36 35 37 40 45 45 46 46 46 47
21 21 23 25 28 30 31 32 34 37 40 44 49 53 55 57 57 56 57 59 58 56 56 57 53 52 52 49 49 47 48 52 52 56 54 46 43 41 32 30 31 39 41 47 44 40 41 42 46 48 48 49 51 52
27 25 24 26 28 30 32 34 36 40 46 50 53 56 59 58 57 58 58 56 52 48 43 42 42 44 44 44 45 44 48 48 51 57 57 59 48 45 40 36 32 42 44 46 47 44 44 44 44 47 49 51 53 56
30 30 27 27 30 34 37 40 43 47 53 59 63 67 65 60 58 56 53 50 47 46 45 44 41 41 38 36 36 37 49 48 45 53 54 48 50 48 43 34 38 44 47 50 49 48 48 47 48 50 51 52 53 55
32 33 31 33 35 38 41 43 47 53 60 65 67 69 67 64 61 57 57 56 57 53 50 49 42 34 22 20 32 39 37 39 39 46 55 45 46 48 47 44 50 47 52 53 53 51 50 50 52 54 56 58 59 61
36 34 34 36 38 42 46 50 55 62 67 71 71 71 71 72 72 68 63 57 50 49 51 44 44 38 39 35 30 34 45 49 51 51 53 57 53 51 49 49 49 51 52 52 53 52 53 54 55 55 58 61 63 65
42 38 36 36 37 40 46 50 57 63 71 71 70 71 73 74 71 63 59 51 51 39 47 55 56 58 47 45 38 45 51 58 57 55 48 50 49 46 47 51 53 54 52 51 54 55 56 57 58 59 61 64 65 68
37 35 35 33 35 39 42 48 55 60 64 74 77 75 74 71 64 60 52 52 47 47 45 45 52 56 47 53 53 56 56 60 60 63 62 54 46 49 52 49 49 54 56 56 57 58 59 60 61 63 65 67 70 72
35 29 31 30 26 30 39 37 42 48 61 70 68 73 69 67 66 67 67 63 55 55 54 51 52 56 55 51 53 62 66 70 63 60 61 57 51 56 61 63 58 57 58 61 61 61 61 61 62 64 67 70 72 74
24 28 28 26 24 28 33 38 35 40 52 61 68 66 64 67 68 66 61 57 54 55 56 56 57 56 58 51 50 52 57 67 73 67 60 58 61 68 71 62 60 58 57 57 60 61 63 65 67 69 71 73 75 78
21 22 30 29 28 28 23 23 28 28 33 41 50 57 63 62 58 56 59 59 53 54 53 50 56 51 48 45 49 51 53 58 67 77 77 75 75 76 77 75 66 64 66 66 67 67 68 69 71 73 76 79 82 84
19 21 20 18 23 26 25 22 20 22 28 38 44 56 59 60 55 52 52 51 47 45 45 46 47 46 41 40 42 44 46 49 51 61 81 81 75 77 76 73 76 77 76 73 71 71 71 73 76 78 80 82 85 87
20 18 16 16 15 14 19 25 28 31 34 43 52 56 54 52 51 50 51 50 49 47 50 47 44 43 43 44 44 47 49 52 55 60 66 67 66 68 69 69 69 69 69 69 70 71 73 75 78 81 84 88 91 95
19 18 17 16 20 20 17 15 18 20 26 35 44 48 49 51 50 49 49 52 54 54 54 54 57 56 53 49 51 52 53 55 59 62 63 63 62 62 65 68 70 73 74 76 77 78 80 83 86 90 92 92 92 93
17 17 19 22 22 21 23 29 30 28 25 25 26 28 32 36 38 40 42 46 50 52 51 49 53 55 54 54 55 54 55 58 60 63 65 65 64 65 67 71 74 75 77 79 80 82 85 85 85 85 87 89 90 92
16 16 18 19 20 21 23 28 30 31 35 37 36 36 35 36 38 39 40 42 44 45 47 48 50 50 51 54 57 58 59 60 60 63 67 68 67 68 69 70 71 73 74 75 76 79 81 83 84 87 90 93 95 98
22 22 22 23 24 24 25 25 27 30 34 37 41 42 41 42 44 45 46 48 49 50 50 50 51 51 53 55 57 59 60 61 62 63 65 68 71 72 73 73 74 74 76 79 82 85 88 90 92 94 97 98 100 102
32 32 33 32 34 33 30 31 33 35 36 38 40 40 41 42 43 45 48 48 49 50 52 54 56 57 58 58 59 61 62 65 67 68 69 71 72 74 76 79 81 82 84 87 89 91 93 94 95 96 97 97 98 101
39 38 38 39 41 39 40 42 42 41 42 43 43 43 44 46 47 47 49 50 51 52 53 55 57 59 62 63 64 65 66 67 69 70 72 75 77 79 82 84 85 87 89 90 90 91 92 93 93 94 95 96 97 98
45 43 44 43 47 48 48 47 48 50 50 50 51 49 48 50 51 52 53 55 56 58 59 61 62 63 65 67 69 70 72 73 75 76 77 79 82 84 85 86 86 86 87 89 89 90 91 91 92 94 94 95 94 93
47 46 47 46 47 46 46 46 48 48 50 50 51 54 56 58 59 58 58 58 59 60 63 65 67 68 70 71 72 74 76 77 79 80 81 81 82 83 84 84 85 86 85 85 86 86 87 87 87 88 87 87 88 88
51 53 53 52 54 55 52 53 52 53 53 54 54 53 53 54 56 59 61 61 62 65 65 66 67 69 71 72 74 76 77 77 78 79 80 81 82 83 83 83 83 84 84 84 84 83 82 83 83 83 83 83 84 83
49 51 52 55 56 57 59 58 58 55 55 56 56 56 57 58 58 60 62 64 65 66 66 67 68 69 71 72 73 74 75 76 77 78 79 80 79 79 79 80 80 81 81 80 81 81 81 80 80 80 80 79 79 78
39 41 44 46 47 50 50 52 54 56 56 56 57 59 61 63 64 65 66 68 68 69 69 70 70 69 69 69 70 70 70 70 70 70 72 73 73 74 75 75 76 76 75 76 76 77 76 76 75 74 73 72 71 71
38 39 39 39 39 38 41 40 42 45 47 49 51 53 54 56 58 60 62 62 64 64 64 63 63 63 63 64 66 66 67 67 67 67 68 69 69 70 70 70 71 71 71 70 70 69 68 68 67 67 67 67 66 66
36 35 34 34 36 35 36 39 40 42 43 44 45 46 47 48 50 51 52 52 52 53 54 55 56 57 58 58 59 59 61 61 62 62 63 63 64 64 65 66 66 66 66 65 64 64 64 64 64 64 63 64 64 63
34 35 35 35 35 35 37 38 38 39 39 40 40 40 41 42 43 43 44 44 45 46 47 49 50 50 52 53 54 55 56 57 59 60 59 59 59 59 59 60 60 60 61 62 62 61 61 62 62 62 61 61 61 60
34 34 34 34 34 34 35 36 36 37 37 38 39 39 39 40 40 41 43 44 44 44 46 47 49 49 49 51 51 52 51 52 53 53 54 56 56 56 57 57 57 57 57 57 57 57 57 57 58 58 57 56 56 56
30 30 31 31 31 31 31 32 32 31 32 34 35 36 36 38 39 39 40 41 40 41 42 42 43 44 45 45 45 47 48 48 50 50 51 51 52 52 53 54 55 55 55 56 56 56 55 55 53 53 52 51 51 50
26 27 27 26 26 27 28 28 29 28 29 31 31 31 33 34 34 34 35 36 37 37 38 39 40 41 42 42 43 44 44 44 44 46 47 48 49 50 52 53 53 53 53 52 52 51 50 50 49 48 47 46 45 44
22 23 22 22 23 24 25 25 26 26 26 27 29 30 31 31 32 32 32 33 34 35 35 36 36 37 37 38 40 41 43 44 45 47 47 48 48 47 47 47 47 46 47 47 47 47 46 45 45 44 43 42 42 41

GFSWCAN_250_spd_051.txt.gz
Wind_Speed
8 13 19 25 30 32 35 38 42 45 48 50 54 57 56 58 64 72 81 85 91 95 93 93 89 83 77 74 72 67 68 64 65 64 62 63 63 57 61 58 57 56 52 44 38 37 36 39 37 39 40 37 37 34
9 14 20 25 29 30 31 34 38 41 43 45 48 50 52 54 59 67 75 78 85 92 87 86 83 82 80 79 76 69 63 61 60 62 60 63 63 59 58 59 55 56 51 43 35 34 38 41 40 42 42 40 39 40
11 15 20 25 29 30 30 33 36 39 41 42 44 46 48 49 55 62 73 77 79 84 88 85 85 82 81 77 78 71 69 64 61 64 65 61 61 61 59 56 54 50 46 39 35 35 36 38 42 41 41 41 42 44
17 16 19 23 25 26 29 32 35 37 39 40 42 44 46 50 54 59 67 73 75 78 79 80 78 79 80 77 71 68 67 64 64 63 60 63 61 61 58 54 48 45 45 36 36 29 36 38 44 47 46 46 46 47
22 20 20 20 22 26 28 30 32 33 34 38 41 46 50 54 58 63 65 68 68 62 64 67 70 75 78 77 74 73 67 64 63 62 60 63 63 58 55 52 49 46 45 44 43 40 36 38 37 44 49 49 49 50
23 23 23 23 24 26 30 32 35 37 42 46 50 52 54 57 59 60 60 58 56 56 57 61 65 67 66 69 68 67 67 64 66 66 65 62 57 58 58 58 52 52 52 51 49 48 43 41 40 43 48 51 52 53
26 24 24 23 25 27 30 33 37 40 43 46 51 55 59 61 59 56 56 55 57 55 57 58 56 55 55 59 59 60 61 61 62 61 61 57 56 57 55 57 55 57 54 49 47 48 46 46 45 45 50 53 54 55
29 26 25 25 26 28 31 35 39 42 46 50 55 59 63 64 64 63 62 60 56 52 50 46 46 46 46 48 49 51 52 53 52 48 46 47 52 52 54 56 56 50 51 52 54 54 53 52 50 50 51 54 56 57
34 29 27 26 29 30 32 35 39 43 50 56 61 64 66 65 62 59 56 55 53 49 50 50 49 47 43 40 36 39 40 36 27 30 38 44 49 55 58 56 55 54 59 59 56 54 55 55 54 55 56 56 58 60
34 30 29 29 31 34 34 38 44 49 54 60 63 65 66 66 63 62 59 54 52 53 53 50 49 47 43 38 32 33 39 32 18 34 44 48 53 59 56 60 65 66 59 55 56 56 53 54 56 58 61 63 63 66
38 32 28 26 27 34 41 44 48 52 54 59 64 64 65 65 63 62 61 58 55 54 57 58 52 40 39 33 33 34 43 45 44 52 58 55 56 60 47 45 56 61 60 58 58 60 59 59 58 62 65 66 66 66
33 32 30 28 29 33 35 44 49 52 58 61 62 67 67 67 67 66 67 66 62 66 61 60 54 52 53 54 52 55 55 56 60 58 62 60 57 63 56 56 59 60 56 59 64 65 65 65 67 67 67 66 68 72
29 23 27 25 27 26 28 35 52 52 53 53 56 59 58 61 64 66 64 65 64 66 65 64 61 58 57 58 66 65 62 57 49 45 45 50 57 61 65 67 69 68 66 70 71 72 72 71 70 76 83 81 82 82
13 19 15 16 16 18 20 24 32 39 42 48 50 55 55 55 56 60 59 59 59 55 54 55 57 65 59 51 51 57 54 51 48 45 52 60 62 67 69 69 73 74 73 74 75 74 75 78 83 86 82 77 77 79
21 17 11 13 13 7 9 12 8 25 33 39 43 51 51 50 51 51 52 51 50 49 51 51 52 54 52 52 54 52 52 50 53 57 63 64 65 65 65 66 69 73 77 81 85 85 87 90 87 80 82 84 83 86
25 22 24 30 28 15 9 8 15 7 33 29 36 41 39 44 46 47 51 49 50 50 46 45 44 49 46 43 46 52 56 54 55 49 47 50 53 56 58 61 64 67 69 72 75 82 82 80 79 79 82 86 90 92
13 16 19 31 33 23 23 27 25 29 36 34 34 34 28 34 38 43 42 45 44 40 41 44 43 43 42 41 43 46 50 54 55 54 55 56 57 59 62 65 67 70 74 76 78 81 82 83 83 83 84 85 88 89
18 20 19 18 16 16 17 21 25 26 26 31 49 47 39 43 40 36 36 37 37 38 41 43 43 47 48 49 50 51 54 56 56 57 59 62 64 64 65 67 70 72 75 77 79 82 84 86 87 89 90 91 92 93
18 16 18 21 24 26 27 27 26 27 28 29 32 41 50 51 53 51 50 50 52 52 53 54 55 56 56 58 59 60 61 61 61 63 65 66 67 69 71 72 74 75 76 78 79 81 84 86 88 90 93 95 97 100
26 26 25 25 26 26 26 28 31 35 39 40 40 41 42 43 44 45 47 48 48 50 51 53 54 56 57 58 59 61 63 65 66 66 66 67 69 71 73 75 76 78 79 81 83 86 88 90 92 95 98 100 100 100
32 32 34 36 36 36 36 37 37 37 38 40 43 45 46 48 49 51 53 54 54 55 56 57 59 59 60 61 62 63 63 63 64 66 68 70 71 73 75 76 78 80 82 83 86 88 91 92 93 93 95 96 97 99
37 36 37 38 38 40 41 44 46 48 48 47 47 48 48 48 49 51 53 54 55 56 58 59 61 62 63 65 65 66 67 68 70 71 72 73 75 77 80 81 83 85 85 86 87 89 91 92 94 94 95 96 96 96
45 45 46 45 46 45 47 47 48 49 51 53 54 55 55 57 58 58 59 59 59 60 62 64 66 67 68 69 70 71 72 74 75 75 77 79 80 81 82 83 85 87 88 89 90 91 91 91 92 92 91 90 90 90
45 43 43 45 46 49 51 51 49 48 49 50 51 52 52 53 54 57 61 63 64 66 68 70 70 72 73 74 74 75 76 77 79 80 80 80 80 80 80 81 82 83 85 86 87 86 86 85 85 85 86 86 85 85
49 49 49 53 53 54 53 54 53 54 56 56 56 58 59 60 60 60 60 60 62 63 65 67 69 70 72 72 72 73 74 75 76 77 77 78 79 80 81 80 80 79 79 80 80 81 81 82 82 81 82 82 82 82
46 47 48 49 50 51 51 52 54 55 57 57 56 58 61 63 64 64 65 67 68 68 68 68 68 69 71 72 73 73 74 73 73 75 75 75 75 75 74 74 76 77 77 78 78 78 78 78 78 78 78 76 75 75
41 43 43 44 44 45 46 46 46 47 47 48 50 53 55 56 57 57 57 58 62 64 66 68 69 69 70 70 70 70 70 70 70 70 69 69 69 69 69 70 70 71 71 72 72 73 72 72 71 70 70 69 68 68
39 41 42 41 41 40 40 42 42 43 44 46 48 49 48 48 47 48 48 48 49 50 51 52 53 54 55 56 57 58 59 60 61 62 62 63 63 64 65 66 66 66 66 65 65 64 64 65 64 64 64 63 64 62
35 34 35 34 35 36 36 36 37 37 37 38 39 40 40 41 41 42 42 43 44 45 46 45 46 48 49 50 52 53 54 55 56 57 58 58 59 59 59 59 59 60 60 60 60 60 60 60 61 61 61 60 59 58
32 32 32 32 32 32 31 32 32 33 34 34 35 36 37 37 37 38 38 39 40 42 42 43 43 45 46 47 48 49 50 51 51 51 51 52 52 53 53 53 53 54 55 56 57 57 57 56 54 54 54 55 54 55
30 30 29 28 29 29 29 28 29 31 31 31 32 33 34 35 35 35 35 36 37 38 38 39 39 39 39 41 42 43 44 45 45 46 47 47 48 48 49 50 51 52 52 52 52 52 52 52 52 52 51 50 50 50
25 26 27 27 27 27 28 28 27 28 30 30 31 31 31 32 32 32 32 32 33 34 34 34 35 36 36 37 38 39 39 40 41 41 42 44 45 46 47 48 49 50 50 51 52 52 51 50 49 48 47 46 46 45
22 21 21 21 23 25 24 24 24 24 25 26 27 28 27 28 28 29 29 29 30 31 31 32 32 33 33 34 34 35 36 37 38 39 40 41 42 43 44 44 45 46 46 47 47 47 46 46 45 45 44 43 42 41

GFSWCAN_250_spd_054.txt.gz
Wind_Speed
2 9 13 18 23 27 32 37 40 43 45 48 50 54 57 59 60 62 67 73 78 86 98 97 92 87 84 81 80 81 81 74 69 64 62 62 59 58 55 51 52 52 56 56 59 58 51 51 45 42 39 42 37 37
4 8 14 18 22 25 27 30 34 38 41 45 48 50 52 54 55 57 62 69 74 84 92 94 93 90 85 85 86 84 76 71 66 62 57 55 54 53 47 47 49 52 57 60 60 55 50 45 44 45 43 39 37 37
9 10 16 21 23 25 28 31 34 36 39 41 41 43 45 47 50 56 62 67 69 79 90 96 96 96 90 88 85 82 76 71 65 58 57 54 54 53 50 51 53 54 56 59 56 52 51 46 45 42 36 33 36 39
15 13 15 19 21 23 25 27 30 32 33 35 37 38 42 45 51 55 57 63 70 79 84 95 96 95 91 88 84 82 79 72 67 62 59 57 54 55 53 53 54 54 57 56 56 51 48 49 47 43 42 37 35 39
18 17 17 19 21 22 23 26 29 31 32 33 35 38 43 47 50 54 60 66 74 79 81 90 92 94 93 89 85 84 78 72 67 63 61 61 60 58 60 57 53 52 55 59 55 54 52 48 47 50 48 44 43 38
19 16 16 16 17 19 20 21 23 26 29 33 36 40 44 48 54 58 60 62 65 71 81 88 89 91 92 88 85 84 81 73 70 66 64 65 62 62 62 56 57 58 58 58 55 54 53 49 53 56 55 51 49 49
24 22 19 17 16 18 20 22 24 26 28 32 38 43 47 50 52 54 55 56 62 69 74 77 83 87 85 83 81 80 78 74 72 71 69 67 66 65 63 59 62 64 65 63 58 56 54 56 58 56 59 59 59 58
25 24 24 22 22 22 22 23 24 26 30 33 38 43 46 49 51 52 59 61 65 66 68 70 76 80 81 78 76 78 77 77 74 71 67 67 69 69 63 61 62 63 65 63 58 57 60 59 59 61 58 61 64 59
30 26 24 24 24 25 27 30 31 32 35 38 39 40 42 46 51 52 51 55 59 57 55 59 65 70 73 76 75 74 72 70 71 69 68 70 66 61 61 62 60 60 60 61 59 58 60 61 60 61 63 64 65 65
35 32 28 25 22 24 28 31 33 35 37 38 38 42 46 49 52 52 53 50 49 51 51 51 52 57 60 64 67 67 66 67 64 60 58 58 56 55 54 52 53 54 55 57 60 60 56 58 58 61 63 67 68 65
31 31 27 27 24 21 21 25 33 38 39 41 43 45 49 53 55 54 52 50 48 48 49 49 50 51 54 54 54 53 54 54 52 50 51 49 42 43 45 46 48 52 55 58 56 56 58 61 65 68 69 71 69 67
40 32 33 20 25 27 25 25 28 35 44 47 49 51 51 54 56 56 56 55 55 54 52 51 50 50 49 48 48 46 49 48 39 41 44 44 42 41 43 49 51 51 55 52 49 50 51 54 59 64 66 69 72 72
33 34 34 31 25 22 25 28 30 32 36 42 50 53 54 51 49 50 49 48 48 48 47 47 48 48 49 49 47 46 43 40 39 42 39 36 43 40 47 49 47 54 56 57 58 57 59 63 66 72 76 78 81 81
23 27 34 33 26 24 25 32 30 35 38 47 47 47 47 49 50 51 51 50 49 49 49 51 55 57 56 53 51 45 44 40 44 41 47 55 53 52 52 54 49 53 55 60 65 69 72 73 76 80 79 80 83 83
16 13 19 25 26 23 22 18 18 21 28 37 42 44 44 45 46 48 49 48 49 52 57 57 56 57 54 55 51 48 50 49 44 50 58 62 67 59 55 54 53 55 61 68 71 74 73 74 74 73 73 73 76 79
8 6 7 10 15 19 10 15 11 11 4 16 29 34 37 40 42 43 47 49 53 55 56 58 56 57 57 55 55 56 57 58 58 55 58 59 55 58 56 58 60 63 66 63 61 63 65 67 68 70 73 77 81 85
13 13 14 13 16 6 11 2 9 8 5 14 22 25 28 29 40 42 44 48 53 54 55 58 60 59 57 57 59 55 56 58 53 55 56 56 57 59 61 64 68 71 72 64 64 66 67 70 73 76 80 83 85 87
14 14 17 22 27 12 10 11 15 26 18 17 23 21 23 37 32 37 46 48 48 51 53 54 53 58 61 64 60 56 56 62 62 58 54 57 62 66 71 73 72 72 67 67 69 71 74 77 79 82 85 87 89 90
15 15 16 25 30 29 23 21 18 26 29 36 37 34 32 34 40 37 39 44 45 48 50 48 51 55 53 51 52 54 54 56 59 62 63 61 61 63 68 71 71 70 71 73 75 78 81 83 84 86 87 89 91 93
19 19 20 22 25 27 26 23 22 23 26 31 32 35 38 39 47 46 41 41 42 45 44 46 47 48 51 54 55 55 57 58 60 61 62 63 64 67 69 71 73 74 77 79 81 83 84 85 87 89 91 93 95 96
25 26 27 27 26 26 27 29 31 32 33 34 36 37 38 38 40 42 47 52 55 57 56 56 56 58 59 60 60 61 62 63 64 65 67 69 72 73 74 76 78 80 81 82 83 84 86 88 89 91 92 94 95 97
30 30 33 37 35 34 35 37 37 37 39 39 40 42 44 47 49 51 52 53 54 55 57 58 59 60 61 62 63 64 66 67 68 70 71 73 75 76 77 78 79 80 82 83 85 86 88 90 92 93 94 95 95 96
38 38 38 39 41 42 44 44 45 46 49 51 52 52 53 54 54 54 56 59 61 62 63 63 64 65 66 67 68 69 70 70 71 71 72 74 75 77 78 80 82 83 84 86 87 89 91 92 93 93 94 95 96 95
44 44 46 48 51 52 52 51 51 55 57 57 58 59 60 61 63 63 65 66 68 67 67 68 68 69 71 72 73 74 74 75 75 76 77 78 80 81 82 83 84 86 87 88 89 89 91 93 94 94 94 93 93 91
49 50 50 52 50 51 53 55 55 55 57 59 62 62 63 64 64 65 65 68 69 70 71 73 75 75 76 76 76 77 78 79 79 79 79 79 80 82 84 84 85 85 86 88 89 89 89 88 87 86 85 85 84 84
51 53 53 54 54 56 59 60 62 62 62 61 62 61 62 63 63 64 66 67 68 69 70 71 73 75 75 74 74 75 75 75 77 78 79 80 80 81 82 83 84 83 82 81 79 78 78 79 80 80 80 79 79 78
54 55 56 56 58 60 61 62 61 59 58 57 57 57 56 57 58 58 60 62 64 64 65 67 69 71 73 74 74 74 74 73 73 73 74 75 75 75 74 73 72 72 72 72 73 74 74 75 75 74 74 73 72 71
51 51 50 49 50 52 52 51 51 52 52 52 53 54 54 53 52 52 53 52 51 51 50 51 51 52 53 55 57 58 59 60 61 62 62 63 64 65 65 66 66 66 67 68 68 68 68 69 69 68 67 67 67 66
47 45 46 46 47 47 47 48 48 50 51 50 50 49 48 47 46 46 46 46 46 47 48 49 50 50 51 51 52 53 54 55 55 56 57 59 60 60 61 61 61 62 62 62 62 63 63 62 63 63 63 63 62 62
41 41 43 43 42 39 39 42 43 43 43 43 43 44 44 43 43 43 43 43 43 44 45 46 48 49 50 50 51 51 52 52 53 54 54 54 54 55 55 56 57 57 58 58 58 58 59 59 58 58 58 58 57 56
38 37 35 33 33 35 36 37 37 37 36 37 37 37 37 37 36 36 37 37 37 36 37 39 40 41 42 43 44 44 45 46 46 47 48 49 49 50 50 51 51 52 53 54 54 54 53 53 53 52 51 50 50 49
32 30 29 28 29 29 30 30 30 30 30 30 29 29 30 31 32 32 32 33 33 33 33 34 35 35 36 37 38 39 40 41 42 42 43 44 44 45 47 48 48 48 48 49 50 50 50 49 49 49 48 46 45 45
26 25 24 24 24 25 24 23 24 25 26 27 27 27 26 27 27 28 29 30 30 31 31 32 32 32 33 34 35 36 36 37 38 39 40 41 41 42 43 43 44 45 45 45 45 46 46 46 45 44 43 43 42 41

GFSWCAN_250_spd_057.txt.gz
Wind_Speed
11 8 9 12 15 21 25 28 31 36 41 45 47 48 49 55 57 55 56 58 64 72 78 84 93 98 93 89 87 84 90 82 75 68 62 59 58 56 56 52 52 50 45 46 49 48 40 47 46 48 51 52 43 42
5 1 5 12 16 20 24 28 31 35 39 42 44 45 48 50 50 53 53 56 63 70 75 81 90 97 95 92 92 87 84 83 76 72 65 61 59 58 55 50 50 49 49 51 52 50 47 48 49 48 53 51 46 40
7 7 10 14 17 18 22 27 30 33 35 37 38 42 44 45 49 51 54 56 61 68 78 83 94 99 98 95 93 88 84 82 76 73 69 67 62 60 58 54 52 52 53 53 55 49 46 46 49 53 54 50 45 41
13 13 15 17 19 22 23 24 26 29 32 34 36 37 40 45 48 51 53 56 61 69 78 86 90 100 101 98 92 87 84 78 76 72 68 63 58 57 54 52 49 47 47 46 44 46 52 52 52 53 53 49 46 46
18 16 17 19 19 22 23 24 26 28 30 32 34 37 40 42 44 46 48 52 57 64 71 81 90 97 99 97 92 89 84 79 75 69 64 58 55 53 53 51 46 49 49 50 49 53 55 55 55 57 54 54 49 48
18 19 18 17 17 18 20 22 25 26 27 29 30 32 33 36 38 40 44 49 54 60 70 74 81 90 93 94 93 90 86 80 74 68 65 61 58 56 54 49 49 53 54 54 54 58 58 59 58 61 59 58 52 51
17 17 19 20 20 19 18 19 21 22 24 26 27 29 32 37 40 45 53 56 58 60 67 77 81 87 94 95 93 90 84 77 73 70 64 62 60 59 57 53 54 56 57 58 59 60 59 63 64 64 64 61 53 52
25 20 16 16 19 22 23 23 23 24 25 26 28 32 35 36 42 46 48 49 53 58 65 73 76 86 92 95 93 89 83 79 75 71 67 66 66 63 57 54 56 57 59 61 62 63 65 67 66 65 64 58 57 56
29 26 21 18 16 17 18 20 23 24 24 25 27 28 30 34 37 39 42 47 52 57 61 66 71 75 83 88 89 87 82 79 76 72 70 70 67 62 56 59 60 62 63 64 64 69 70 67 66 64 61 59 59 58
36 30 26 23 19 18 17 18 19 23 25 24 22 23 25 28 31 31 37 41 45 46 52 59 64 72 76 81 84 84 80 75 84 80 74 68 62 61 61 63 64 66 67 69 70 70 66 65 64 62 56 52 54 57
36 40 32 28 24 21 18 18 20 21 21 25 30 30 29 28 30 30 32 37 41 46 53 61 64 72 77 83 83 80 79 83 79 69 68 65 62 64 66 70 71 71 71 71 67 65 61 61 59 54 46 47 49 51
40 37 32 27 24 21 20 18 20 23 25 24 27 30 35 38 40 42 43 45 47 49 53 58 64 69 74 78 78 76 75 72 69 67 66 63 64 66 68 69 68 67 62 60 59 59 56 57 51 47 49 50 51 56
43 35 33 30 27 23 20 19 16 19 23 31 36 39 41 42 42 43 43 42 45 50 54 57 59 59 61 64 65 67 68 68 67 68 67 65 65 67 66 60 57 59 57 55 55 55 54 53 51 50 51 57 61 63
39 39 38 38 32 29 27 27 23 17 20 27 34 43 44 48 48 48 50 52 53 54 53 51 51 51 52 55 59 62 64 62 63 63 62 62 60 60 56 57 59 59 56 58 52 55 52 49 52 55 61 64 68 68
30 35 23 30 27 33 31 26 24 22 32 34 34 39 37 37 38 41 43 43 41 41 41 41 42 45 48 51 53 55 54 53 53 56 59 58 58 59 61 62 61 59 56 54 51 55 57 56 56 61 66 69 71 74
22 19 28 20 22 21 25 25 26 17 23 28 28 36 39 38 38 38 37 36 37 39 41 42 45 46 47 48 51 51 50 51 55 57 57 59 60 60 62 62 58 58 59 61 61 64 60 64 67 70 71 71 73 78
9 11 13 16 17 23 13 16 16 13 18 14 23 21 24 27 29 30 31 32 36 39 40 41 46 48 48 48 49 51 53 54 57 59 59 59 59 56 57 57 57 60 61 60 61 62 65 69 74 77 79 82 85 86
3 4 6 4 3 9 8 9 15 10 6 2 13 8 16 16 21 32 34 40 39 39 42 46 46 46 49 51 53 55 57 60 58 60 62 62 60 60 61 61 62 63 64 64 66 68 72 76 80 85 87 90 90 89
10 5 4 8 10 8 7 5 5 8 7 9 9 11 15 13 20 27 33 36 41 45 44 44 46 50 51 54 58 60 59 61 61 61 63 64 63 64 62 64 66 71 74 76 76 75 78 82 85 86 88 90 91 91
11 12 11 10 12 15 16 16 15 18 15 22 26 23 25 32 29 26 27 34 38 39 44 47 48 53 55 57 59 58 59 62 63 66 66 68 68 66 67 70 74 75 76 77 80 84 84 83 85 86 88 90 93 95
17 15 15 15 16 18 22 23 22 22 21 20 22 30 35 39 39 40 46 45 42 44 49 49 51 55 62 63 65 66 65 65 67 69 74 73 73 77 79 77 75 74 76 78 79 81 83 85 87 89 91 93 94 95
26 26 26 25 25 26 27 27 26 26 26 27 29 32 34 36 39 42 43 48 51 51 54 58 60 62 61 62 64 67 71 73 74 74 74 75 77 77 76 75 76 78 79 81 83 84 84 85 86 88 90 92 93 94
34 35 34 34 34 32 34 36 38 39 39 40 41 43 44 44 45 47 50 52 55 56 58 59 60 61 62 63 65 66 68 69 71 72 73 75 76 77 78 79 80 81 81 82 83 84 85 86 88 89 90 90 90 91
42 40 40 41 41 43 43 44 45 48 51 52 53 54 55 56 57 58 60 61 63 64 64 65 64 65 66 67 70 71 72 73 73 73 73 74 74 75 76 78 79 80 81 82 83 84 85 86 87 88 90 92 93 92
48 47 46 47 49 51 53 55 56 56 57 60 61 61 63 64 64 65 65 66 68 69 69 69 70 70 71 71 71 71 71 72 73 74 73 73 74 74 74 75 76 77 79 81 84 85 86 87 87 88 88 86 85 84
49 50 51 52 53 54 56 58 60 62 63 63 62 60 60 62 64 66 66 65 65 67 68 67 68 69 70 70 71 71 70 69 69 69 71 72 73 74 75 77 78 79 80 80 80 80 80 78 77 76 76 76 76 77
52 53 53 54 55 56 58 62 63 63 62 61 62 62 61 59 57 55 54 53 55 57 58 60 62 64 66 66 66 66 66 66 66 66 66 67 68 69 69 69 69 69 68 69 69 70 70 71 71 71 71 70 70 70
51 53 55 53 55 59 62 60 58 55 55 55 55 54 52 51 50 48 47 46 45 44 44 45 46 47 49 51 53 54 56 57 58 59 60 60 61 62 63 63 63 64 64 64 65 65 65 65 65 65 65 65 65 65
52 52 53 56 58 57 55 52 50 49 50 51 52 51 50 49 47 46 45 44 43 42 42 42 43 43 44 45 46 47 48 50 51 52 53 54 55 56 57 57 58 58 58 58 59 59 60 60 60 61 62 62 62 62
47 49 51 50 49 47 44 43 42 44 47 47 45 44 43 42 42 42 42 41 41 40 41 41 41 41 42 42 43 44 44 45 46 47 48 50 51 51 52 53 53 54 54 55 55 56 56 57 58 58 58 58 58 57
40 40 40 39 38 37 35 35 38 39 39 40 39 39 38 37 37 38 38 38 38 37 37 37 37 38 38 38 39 40 41 42 42 43 44 45 46 47 48 49 49 50 50 51 52 52 53 52 52 52 52 51 51 50
36 36 35 34 33 32 32 33 33 33 32 32 31 30 31 31 31 31 32 33 33 33 33 33 33 34 34 35 36 36 37 38 39 40 40 41 42 43 43 44 45 46 47 48 47 47 48 48 48 48 47 47 47 46
30 30 29 29 28 28 27 27 27 27 29 27 27 27 27 27 27 28 29 30 30 31 31 31 31 32 32 33 33 33 34 35 36 37 38 39 40 41 42 42 42 43 43 44 44 44 44 44 44 45 45 43 42 42

GFSWCAN_250_spd_060.txt.gz
Wind_Speed
20 15 11 8 7 11 16 22 26 30 34 38 41 44 47 51 55 59 59 58 58 67 71 78 84 87 95 99 99 94 97 93 87 80 73 68 63 60 57 56 53 53 49 45 44 41 35 46 48 48 49 51 47 43
16 10 6 3 6 11 17 22 25 28 32 38 41 45 48 52 56 57 55 56 57 62 68 76 84 91 94 99 99 96 91 93 85 80 75 71 68 63 60 58 55 50 47 45 43 41 45 48 51 50 48 44 43 44
13 7 3 5 9 13 18 22 26 30 35 38 41 44 48 51 51 51 52 52 54 63 67 75 84 88 96 102 100 98 96 90 83 79 79 76 70 65 61 57 56 52 50 49 49 48 50 51 51 47 43 43 45 45
14 10 8 10 12 15 20 23 26 30 32 36 40 42 45 46 47 48 49 51 55 61 67 76 83 88 96 99 99 97 92 87 84 81 79 74 70 65 60 57 52 53 51 48 47 48 51 50 49 46 47 47 48 51
17 14 12 13 18 20 21 24 27 29 32 34 37 39 40 41 44 45 45 47 52 57 63 68 80 88 94 96 100 97 91 84 80 78 75 73 70 66 61 58 53 52 51 51 48 53 53 52 52 50 51 51 53 54
20 18 17 15 18 22 24 25 26 28 31 35 36 36 37 38 38 39 42 48 52 55 61 68 80 86 89 93 101 100 92 86 80 74 71 69 68 66 61 57 53 52 52 53 51 53 52 52 54 56 56 56 57 59
23 21 18 19 20 22 23 24 26 27 28 29 30 32 35 37 39 42 48 51 52 56 61 66 74 79 82 90 98 97 92 84 78 74 68 66 65 65 61 51 53 53 53 53 53 54 55 57 57 59 59 61 62 63
25 23 22 21 19 20 22 23 23 24 24 25 25 26 29 32 35 39 42 45 48 53 58 64 73 79 79 86 94 99 92 85 80 74 71 67 65 60 52 50 55 56 56 57 58 57 58 60 60 61 62 63 65 65
31 26 25 24 22 22 21 21 21 22 23 24 25 26 27 28 27 31 35 38 43 48 51 57 62 64 66 78 89 93 91 84 79 73 72 69 61 52 51 56 60 61 61 61 60 60 61 62 63 64 66 68 70 70
36 32 28 27 26 23 21 20 21 21 21 20 19 19 21 24 26 30 33 38 43 47 50 53 61 72 75 84 91 92 90 83 81 77 76 69 62 61 60 61 63 64 63 63 64 63 66 67 67 69 70 74 74 72
41 39 34 31 28 26 25 24 22 21 21 23 26 28 27 26 25 25 26 30 35 37 43 52 64 76 87 88 92 92 91 84 82 80 79 73 68 69 66 65 64 65 65 66 66 67 67 69 72 73 75 74 72 70
43 41 38 37 32 27 25 24 24 24 23 23 24 25 26 27 30 32 33 32 33 35 43 52 59 67 64 64 72 77 83 85 84 82 81 78 75 74 71 69 69 69 68 68 68 70 72 73 74 74 74 73 72 69
43 40 41 37 33 29 23 19 20 19 21 23 27 27 28 30 32 33 36 37 40 40 43 49 55 61 64 61 67 74 81 84 83 82 80 79 75 72 70 69 69 70 72 73 73 72 72 74 75 76 73 67 66 63
39 41 35 36 40 28 26 22 18 18 20 20 22 27 27 28 31 32 34 37 42 46 51 57 63 63 62 62 66 72 76 79 81 80 78 75 74 71 71 72 73 74 74 73 75 74 76 77 74 72 67 65 61 62
31 34 32 35 37 35 29 27 19 20 22 23 25 26 28 28 31 34 35 38 41 44 48 51 53 54 57 60 65 67 72 75 75 74 73 74 74 73 74 73 72 73 74 76 75 75 75 70 66 65 67 66 61 64
29 32 29 27 37 36 30 25 26 23 21 20 22 27 27 29 29 31 32 33 34 35 38 42 45 47 50 53 55 60 64 67 69 71 72 73 73 74 75 74 72 75 76 76 75 71 69 68 68 69 67 68 70 72
16 22 26 18 23 26 29 31 29 23 12 22 21 20 22 24 24 26 28 29 31 33 35 38 40 42 45 47 51 55 59 62 64 67 69 71 73 75 72 72 75 74 72 71 70 69 70 70 72 70 68 68 71 74
11 10 16 14 18 23 24 25 28 22 20 17 15 12 13 15 20 21 25 30 32 34 35 37 40 42 46 48 51 53 56 58 59 60 62 65 66 64 68 71 69 69 68 70 71 71 72 72 69 73 76 76 79 84
6 8 8 8 8 9 11 15 14 12 12 12 6 7 4 5 2 9 19 21 22 25 30 35 37 40 43 45 47 50 53 54 54 56 59 59 60 62 65 66 66 67 70 70 70 72 72 71 74 77 79 82 84 88
0 2 2 3 1 2 3 3 3 3 5 7 6 8 8 8 11 11 12 17 26 28 29 32 36 39 39 42 44 48 53 52 54 54 57 60 62 65 66 67 68 68 69 70 72 76 77 79 81 84 87 88 92 97
8 7 5 4 4 7 9 10 9 9 10 11 10 11 18 20 19 21 25 26 24 27 32 37 43 45 45 45 46 48 52 56 58 57 58 61 65 67 70 69 68 70 72 74 77 80 84 85 87 90 92 96 96 95
15 14 14 14 15 14 15 17 17 18 18 19 20 21 23 24 27 32 35 37 39 42 44 46 47 47 48 50 54 57 56 57 59 62 67 72 72 72 73 76 79 80 80 82 84 86 88 90 92 93 93 93 94 92
25 24 25 25 26 27 27 28 29 30 30 30 31 32 32 34 36 39 42 43 45 48 52 56 57 58 60 62 64 63 65 68 70 71 73 74 75 77 77 78 81 83 84 86 87 89 90 89 89 88 87 87 87 87
33 33 34 34 34 35 35 37 37 38 40 41 42 43 45 46 48 49 51 53 55 57 59 60 62 64 65 66 68 69 70 70 71 72 73 75 75 77 79 80 82 83 84 85 85 84 84 84 84 83 83 83 84 84
42 41 41 42 43 45 46 46 47 47 48 50 52 52 54 55 56 57 59 61 62 61 62 63 63 63 64 63 63 63 64 66 68 70 70 70 70 70 70 71 73 75 76 77 77 77 77 77 77 77 78 79 78 77
48 48 49 48 49 51 51 51 52 53 55 57 57 57 57 56 56 56 57 58 60 62 63 63 64 64 64 64 64 64 66 66 65 65 65 66 65 65 65 64 64 65 67 68 69 69 69 70 69 69 69 71 71 72
51 51 51 51 52 53 54 55 56 58 59 60 60 58 54 52 52 53 53 53 52 51 51 51 51 52 52 53 54 55 56 57 57 58 59 58 57 57 57 58 58 59 61 62 62 63 63 63 64 64 65 66 66 66
51 51 52 52 53 53 55 56 57 57 58 57 54 52 50 50 48 44 43 42 42 42 41 41 42 43 45 47 49 51 53 54 54 54 54 54 55 55 56 57 58 58 58 59 59 59 59 59 60 60 59 60 61 61
52 52 52 52 52 52 53 54 54 53 50 47 46 46 44 42 41 40 40 39 38 37 36 36 37 37 38 39 41 42 44 45 47 48 49 50 51 51 51 51 52 53 53 54 54 54 54 54 55 55 56 56 57 57
49 48 47 46 47 47 47 46 44 42 40 40 41 40 39 38 37 37 37 36 35 35 34 34 34 34 34 35 35 36 37 38 39 40 41 42 44 44 45 46 46 47 48 49 49 50 50 51 52 52 53 53 53 54
37 38 40 40 41 40 39 38 37 35 36 36 35 35 34 34 33 32 31 31 31 31 31 31 31 30 31 32 32 33 34 35 36 36 37 38 39 40 41 42 43 44 45 45 47 47 48 48 49 50 50 50 50 49
35 35 35 35 35 35 34 33 33 32 30 30 30 28 27 27 28 28 29 29 30 30 30 30 30 30 30 31 31 31 32 33 34 34 35 36 37 37 38 39 40 41 42 43 44 45 46 46 46 45 45 45 45 44
31 31 31 32 32 31 30 29 27 26 27 28 27 26 26 26 26 27 27 28 28 29 29 29 29 29 29 28 29 29 30 30 31 31 33 33 34 35 36 38 39 40 40 40 41 41 42 41 41 40 40 40 40 40

GFSWCAN_250_spd_063.txt.gz
Wind_Speed
26 20 16 12 12 13 18 22 24 27 32 36 40 43 45 47 49 54 56 59 59 60 60 58 70 79 87 94 99 96 100 99 97 94 85 80 75 70 70 66 64 63 61 56 53 48 45 50 56 48 48 48 49 44
18 13 11 8 7 10 14 18 21 25 30 34 37 40 43 47 54 58 59 57 60 61 56 60 70 78 85 91 99 103 98 97 94 93 88 83 77 73 67 66 66 63 59 56 50 47 49 52 52 51 50 53 48 46
14 13 8 3 3 7 12 17 20 23 26 30 35 39 43 50 54 54 55 55 59 58 56 62 69 77 85 90 96 99 104 99 98 95 93 89 83 79 72 66 64 61 59 55 51 49 50 51 51 51 52 56 48 48
15 13 8 4 5 9 14 19 22 25 29 33 37 41 48 51 51 53 52 56 56 55 55 60 69 76 84 89 93 96 102 101 99 98 92 87 81 77 71 66 63 61 59 54 50 51 55 53 55 55 55 54 52 50
15 14 11 10 11 12 17 20 24 28 32 37 42 47 48 49 53 54 57 56 55 56 55 60 65 73 82 88 88 95 99 94 93 93 88 81 77 75 70 69 63 63 60 57 57 60 61 59 60 56 55 55 54 53
15 17 14 15 17 17 20 23 25 29 32 35 39 44 46 48 49 51 49 45 46 48 52 56 61 68 78 83 85 92 95 94 94 91 84 81 78 74 69 64 64 65 62 61 60 60 57 57 58 57 57 57 57 55
17 18 18 18 21 24 25 25 27 28 30 32 35 38 40 42 41 39 43 46 47 48 49 54 59 65 71 76 80 87 90 91 89 89 85 82 78 73 69 63 68 68 65 62 61 60 60 59 58 58 59 60 59 57
19 21 21 22 22 26 29 29 28 28 28 29 30 30 32 34 38 41 41 41 42 43 46 49 56 59 63 72 76 81 85 89 83 81 79 76 72 70 67 66 71 67 67 65 65 63 61 60 63 62 63 61 59 58
22 22 22 23 25 26 27 29 31 30 29 28 27 26 26 28 29 29 31 33 37 39 42 46 49 54 59 67 73 79 86 86 82 79 77 75 71 66 64 72 71 71 69 67 66 62 64 65 66 65 63 62 62 62
27 24 24 24 25 25 26 27 27 27 27 28 28 28 27 26 27 28 28 30 33 34 37 40 42 46 51 64 73 76 85 81 81 79 78 73 70 70 69 66 68 69 69 70 70 68 67 68 67 67 67 65 65 66
34 29 25 25 26 25 25 25 26 26 27 26 26 26 27 30 31 30 30 32 33 33 34 35 40 43 50 62 69 73 76 74 76 78 78 74 72 68 65 67 66 67 68 68 68 68 69 69 69 69 69 69 69 71
38 36 31 26 25 26 26 25 24 23 22 20 20 20 22 23 26 29 31 33 33 34 36 41 40 46 53 63 68 72 76 72 74 79 80 77 73 72 71 69 68 67 66 66 66 67 68 69 70 71 71 73 74 75
39 38 36 32 29 27 24 22 20 19 19 19 20 21 23 25 26 30 30 26 33 37 41 43 48 53 59 65 70 77 76 76 77 80 79 79 78 77 74 72 72 71 71 70 71 71 73 74 75 75 76 77 79 79
42 41 42 41 34 29 27 24 21 19 17 17 18 19 19 20 20 20 22 30 36 39 41 44 47 52 55 62 68 68 70 75 78 76 80 81 81 79 78 77 77 77 75 76 76 76 77 78 80 80 80 82 83 84
38 39 41 37 38 32 27 27 22 17 16 16 15 17 17 16 19 23 27 29 32 35 39 41 42 46 52 52 53 56 59 66 73 79 81 81 82 82 82 81 80 81 79 78 78 80 82 84 85 85 84 84 83 83
30 27 34 34 34 33 31 24 20 18 17 16 17 17 18 19 19 23 27 30 29 29 33 35 37 39 42 43 43 44 47 57 71 73 76 79 81 81 82 82 82 82 81 82 82 83 85 86 87 87 87 87 87 84
21 23 25 31 34 30 28 24 26 24 18 18 20 16 19 20 20 20 19 21 24 26 27 28 30 32 35 38 41 44 48 53 61 68 72 74 77 80 82 83 84 84 85 85 85 86 88 87 88 90 90 87 84 82
14 16 21 26 28 27 28 29 27 25 27 27 24 23 21 17 16 20 24 25 24 24 24 27 29 31 34 36 38 42 47 52 57 62 67 71 74 77 79 80 82 82 84 87 87 88 88 88 88 88 85 85 83 81
14 14 14 14 17 19 21 20 21 23 23 21 22 18 15 15 11 10 13 17 20 23 25 28 30 33 35 37 40 43 46 49 53 57 61 65 69 73 75 77 80 81 84 86 85 85 83 85 85 85 83 81 81 82
10 10 10 9 11 13 14 15 14 14 13 14 11 9 8 8 4 3 3 8 13 14 19 25 29 33 37 40 43 46 50 52 55 58 61 64 67 69 71 73 74 76 78 79 79 80 80 80 79 77 77 77 80 83
5 5 6 5 6 8 9 9 9 7 7 6 7 6 5 5 6 6 7 10 13 15 22 26 28 32 36 40 44 47 50 53 55 58 61 63 65 66 68 70 71 73 74 75 75 74 76 76 78 79 82 83 86 89
7 6 5 5 5 4 5 6 8 9 10 11 11 13 14 15 16 17 20 21 23 25 27 30 32 34 39 42 45 48 51 54 55 56 57 59 60 61 62 65 68 70 72 72 73 74 77 78 80 82 83 85 88 90
15 15 14 14 14 14 15 16 18 20 20 20 21 22 24 26 26 27 29 31 34 36 39 42 44 46 49 51 54 55 57 58 60 61 63 64 66 68 69 70 71 72 73 75 77 79 80 82 83 84 85 86 86 86
25 24 23 22 23 25 26 27 28 29 31 32 32 32 33 36 39 40 42 44 46 48 50 53 55 58 59 61 62 64 65 66 66 67 67 68 70 71 71 71 72 73 73 73 74 75 76 79 80 80 81 82 83 84
34 34 34 34 35 35 35 36 37 38 39 41 43 44 43 43 45 47 51 54 57 59 61 63 64 66 66 66 65 64 64 65 65 65 65 65 65 67 68 70 71 72 73 74 76 77 78 79 79 80 82 82 82 83
42 42 43 42 43 43 43 45 47 49 49 50 50 50 50 50 50 52 53 55 56 56 54 54 55 56 57 58 60 61 62 63 63 64 65 66 66 66 66 66 68 69 69 69 70 70 71 72 73 74 75 76 75 74
47 46 47 49 49 50 52 53 54 54 54 55 54 55 54 55 56 55 54 53 52 53 53 54 54 55 56 56 55 54 54 53 54 54 55 56 57 58 59 59 60 60 61 62 62 63 63 64 65 65 65 65 65 65
51 52 52 52 53 54 54 54 55 55 55 55 55 55 55 51 51 48 48 49 48 47 46 46 46 47 47 47 48 49 51 53 54 55 55 56 56 56 56 56 57 57 58 58 58 59 59 59 60 60 60 61 60 60
53 53 53 54 53 53 52 51 51 51 51 51 49 47 44 42 42 41 39 38 38 38 38 38 38 39 40 41 42 43 44 45 47 49 51 52 53 54 53 54 54 54 54 54 55 55 55 55 56 55 55 55 55 55
53 53 52 52 51 48 46 46 45 45 43 41 39 39 39 39 37 36 35 34 33 33 33 33 32 33 33 34 35 36 37 38 39 40 41 42 43 45 46 47 47 48 48 49 49 49 49 49 49 50 50 50 51 51
49 49 46 43 42 41 42 41 39 38 37 36 36 36 35 33 32 31 29 29 29 29 29 28 29 29 29 29 29 30 31 32 33 34 35 36 37 39 39 40 41 42 42 42 43 44 44 45 45 45 46 46 47 47
40 40 39 39 39 39 37 35 34 33 31 31 30 29 27 27 27 28 28 28 28 28 28 28 28 27 27 27 27 28 28 29 30 31 32 33 34 35 35 36 37 38 39 39 40 40 41 41 42 42 43 43 44 44
38 38 36 35 34 33 33 30 28 26 26 27 28 28 27 26 26 25 25 25 24 25 25 25 25 25 25 26 26 26 27 27 28 29 29 30 31 32 33 34 35 36 36 36 37 38 38 39 39 40 40 40 40 40

GFSWCAN_250_spd_066.txt.gz
Wind_Speed
34 32 30 29 27 25 24 26 28 29 32 36 39 43 47 49 50 52 49 51 52 54 59 60 62 63 68 71 77 78 90 85 82 91 89 79 77 73 73 75 77 78 76 73 72 69 60 57 58 55 54 59 52 48
27 25 21 18 14 13 15 18 20 22 27 32 34 37 40 45 48 50 51 53 56 59 61 59 62 65 67 74 79 86 83 86 81 87 84 81 79 77 74 75 75 71 71 70 68 61 59 60 62 63 61 57 55 51
23 20 14 9 6 6 8 10 13 17 23 26 28 34 38 43 47 50 52 52 56 60 59 62 57 62 65 71 75 78 79 80 84 86 86 86 85 77 75 72 75 70 70 70 70 65 63 63 65 62 62 61 57 52
19 14 8 4 2 2 7 10 13 16 19 23 29 34 38 43 48 52 52 55 59 57 55 57 58 54 57 66 73 75 80 85 87 91 90 86 84 81 77 76 76 72 70 70 66 64 61 61 62 64 63 59 55 55
15 10 6 5 5 6 10 14 17 20 23 26 30 35 40 44 48 53 55 56 56 54 55 54 48 49 57 62 69 74 79 82 88 92 85 83 84 86 82 76 69 68 69 70 64 63 63 63 63 61 62 60 59 60
12 10 8 8 8 9 13 16 19 23 26 30 35 39 42 46 49 50 54 54 52 50 47 47 49 51 55 59 65 73 80 84 94 77 74 82 86 85 80 71 72 69 68 68 66 64 63 62 62 63 64 65 63 61
12 11 10 9 12 14 15 18 19 22 26 29 32 36 41 43 44 46 44 43 40 44 45 49 49 49 52 57 63 73 79 79 81 80 81 82 84 84 82 72 72 73 73 72 67 64 63 63 66 65 67 68 66 64
14 14 14 13 15 18 19 22 24 23 23 24 27 30 32 35 38 40 37 37 39 42 44 44 46 48 50 51 59 70 74 81 81 86 81 85 86 82 77 77 78 80 77 72 68 66 67 68 65 67 69 69 67 65
19 19 18 17 18 21 23 24 26 27 27 27 27 28 30 32 33 34 36 38 40 40 41 42 42 43 45 46 54 63 70 73 75 72 74 81 84 83 81 82 82 77 73 70 70 68 71 68 68 68 68 68 67 67
23 23 23 21 21 22 23 26 27 28 29 29 29 29 30 31 31 31 32 33 34 33 34 35 34 35 37 43 47 53 61 64 69 69 71 77 83 83 77 78 78 77 73 73 73 69 69 71 72 71 70 70 70 73
26 24 25 25 24 24 24 24 26 27 27 26 27 29 29 31 32 32 32 31 31 31 29 28 29 31 37 42 43 47 55 62 65 66 70 78 83 73 77 77 78 77 75 74 71 70 70 71 72 72 74 73 73 75
31 28 26 25 25 24 24 23 22 22 22 23 25 26 27 29 31 31 30 30 27 26 28 29 31 34 38 42 42 47 53 61 63 66 66 70 75 79 80 78 77 76 74 71 69 70 72 73 74 75 77 76 77 79
35 33 29 27 26 25 24 23 21 19 18 16 17 19 21 23 24 25 26 27 27 30 30 29 32 36 37 37 40 45 50 51 52 56 60 69 76 77 76 76 75 73 71 71 72 74 74 74 75 75 77 78 79 79
36 35 32 30 28 28 26 24 22 19 17 15 14 15 15 16 18 21 20 21 26 27 30 31 30 33 35 36 38 41 47 50 55 55 58 64 71 75 76 75 75 73 73 73 74 74 75 76 77 77 77 77 79 80
38 37 36 36 34 32 30 27 23 20 17 15 13 11 13 15 16 16 17 20 24 29 30 26 25 26 27 32 37 40 42 43 50 56 57 60 66 71 74 76 75 75 76 76 76 77 78 78 78 80 81 83 84 86
32 34 34 37 37 34 30 27 24 21 18 15 14 12 12 13 15 17 19 21 24 23 22 21 23 25 26 29 30 33 40 42 45 49 51 55 62 69 74 77 77 78 79 79 79 81 82 83 84 85 87 88 89 91
28 29 33 35 33 31 29 26 22 21 19 18 16 11 11 12 14 15 16 18 21 20 18 16 16 16 16 17 23 30 35 38 42 46 50 55 61 67 72 76 77 79 82 85 86 87 89 90 90 90 92 93 95 96
21 23 27 27 27 27 28 28 28 28 29 29 26 21 16 13 13 17 17 17 15 16 16 15 16 18 19 20 21 24 30 36 42 46 50 57 62 67 72 76 79 82 84 87 89 91 93 93 94 95 97 97 98 98
15 17 18 19 20 19 20 21 20 23 25 26 26 25 24 22 19 16 16 16 16 14 13 14 16 18 19 21 23 26 30 34 38 43 49 56 63 67 71 76 81 84 86 88 91 93 94 94 96 96 97 98 98 98
13 12 12 14 15 17 19 20 17 17 19 19 18 17 17 18 18 15 11 8 6 5 6 8 11 14 17 21 25 29 33 36 39 42 46 50 55 60 64 69 73 76 78 81 83 85 87 88 89 91 92 92 93 95
13 11 10 9 9 11 13 14 16 16 16 14 12 12 10 8 7 5 4 3 2 7 9 13 16 20 22 25 29 33 36 39 43 46 50 53 57 60 64 67 70 73 76 78 79 81 83 85 87 89 89 89 89 89
10 7 4 3 1 2 3 4 6 6 7 7 8 10 11 12 13 13 13 11 12 16 18 20 24 29 32 35 38 41 44 46 49 51 54 57 59 62 64 66 69 72 74 76 77 78 80 81 82 83 84 85 85 86
10 7 7 6 7 8 9 9 11 11 12 13 13 14 14 15 18 21 22 24 26 29 31 32 34 36 39 42 44 47 50 52 55 58 60 62 64 66 67 68 70 71 72 74 74 76 77 79 80 81 82 84 84 84
15 14 14 14 15 17 17 18 20 22 23 23 23 25 26 28 29 30 31 34 38 42 45 47 48 51 52 54 55 56 58 61 62 64 65 66 68 69 70 71 72 73 74 75 76 77 78 78 78 78 79 80 82 84
21 21 23 25 26 27 28 29 31 33 33 34 35 35 37 39 40 42 43 44 46 49 52 55 59 62 65 66 66 65 63 61 59 58 59 59 60 62 63 64 66 68 69 70 72 73 74 76 77 79 80 82 82 83
30 31 32 33 35 35 36 37 38 39 40 42 43 45 45 46 48 50 51 52 54 57 59 60 62 62 60 58 56 56 56 58 59 59 60 61 62 63 64 66 67 68 70 71 72 73 73 74 74 75 75 76 76 76
39 40 41 42 42 43 44 45 46 47 48 48 48 49 50 53 55 58 59 59 59 58 55 52 52 53 53 54 56 57 58 59 59 60 60 60 60 61 61 61 62 63 64 65 65 66 68 68 69 69 69 68 67 67
46 47 47 49 49 49 50 51 51 52 52 51 51 53 56 57 58 57 57 54 49 48 48 48 47 47 48 49 49 50 51 51 51 52 53 53 54 55 56 56 57 58 58 59 59 59 59 60 61 61 61 60 60 61
51 52 52 53 53 53 54 53 53 53 54 53 53 52 51 51 51 48 45 45 44 43 43 42 42 43 43 43 43 44 45 45 46 48 49 50 50 51 52 52 53 54 54 54 54 55 55 55 56 56 57 57 57 57
54 55 55 55 56 55 54 53 52 50 48 47 46 46 45 43 42 42 42 41 40 39 38 38 38 37 37 36 36 37 38 38 39 40 41 42 43 44 45 45 46 47 48 48 49 50 51 51 52 53 53 53 54 54
57 56 55 53 52 51 48 47 45 43 43 42 42 41 39 38 39 39 37 36 35 34 33 33 33 32 32 32 33 33 34 35 36 36 37 38 39 40 40 41 42 42 43 43 44 45 45 46 47 48 49 49 49 49
50 50 48 46 44 42 42 42 40 38 38 38 37 34 35 35 34 33 33 32 32 31 31 31 30 30 30 31 31 31 32 32 33 34 34 35 35 36 37 37 38 38 39 40 40 41 42 43 43 44 44 45 45 45
41 41 41 41 40 38 37 36 36 35 34 34 34 33 33 31 30 29 28 28 29 29 28 29 29 30 30 30 29 29 29 29 29 30 30 31 31 32 33 33 34 35 36 36 37 37 38 40 41 41 41 41 41 40

GFSWCAN_250_spd_069.txt.gz
Wind_Speed
36 34 32 32 32 31 30 30 30 31 33 38 42 45 51 55 55 54 52 48 44 45 54 55 61 61 64 63 60 64 72 66 65 73 74 75 71 72 72 72 75 73 76 73 69 64 55 55 58 53 53 56 59 57
31 29 28 25 25 23 23 23 23 23 24 28 34 40 44 48 49 47 50 47 47 49 51 55 58 61 60 60 61 65 60 63 65 71 70 74 72 75 74 72 75 72 68 75 72 62 62 64 67 63 61 60 60 54
27 25 23 22 19 16 15 15 17 18 20 24 28 32 36 39 41 44 46 45 45 48 52 57 59 57 57 57 57 55 54 57 62 69 71 78 80 72 66 68 71 71 71 79 74 66 66 66 64 66 68 66 65 62
22 20 19 15 11 8 7 9 11 14 17 20 23 26 30 33 38 42 42 42 44 49 49 53 53 50 45 46 49 49 54 58 64 71 77 79 75 64 68 73 73 73 73 72 77 74 70 66 59 69 67 70 68 67
19 18 15 9 5 2 2 6 12 16 19 21 23 26 29 32 36 40 42 44 48 47 48 50 47 49 51 47 49 48 53 58 65 71 73 73 68 67 71 75 75 73 71 71 71 74 73 69 71 67 66 72 71 67
17 15 12 7 4 2 4 7 9 13 17 20 23 26 29 32 36 39 43 47 44 43 44 43 45 43 44 46 47 48 54 55 62 68 69 66 70 68 74 71 71 70 69 66 65 72 75 74 71 70 70 70 70 67
15 14 11 9 8 7 8 9 10 13 15 17 20 24 27 30 32 36 37 34 36 39 40 43 43 43 44 44 45 48 52 55 58 63 61 68 74 72 73 72 72 73 74 71 65 67 72 73 70 70 71 70 69 68
14 14 12 12 12 13 14 14 13 14 15 17 19 22 26 28 30 31 32 33 35 35 38 41 44 45 45 45 43 44 47 51 56 59 64 70 73 74 74 80 80 78 75 76 71 68 71 69 69 69 69 70 68 66
15 15 16 16 16 17 18 20 21 21 20 19 19 22 25 27 28 32 33 35 38 41 42 42 41 42 42 41 39 40 43 48 54 58 68 71 76 69 69 74 75 77 75 72 71 70 72 76 74 70 70 70 66 66
17 17 18 20 20 19 21 23 25 26 25 26 28 27 29 31 33 35 36 36 35 36 37 37 36 35 32 32 32 36 41 47 52 58 65 67 71 68 68 73 79 83 81 78 77 75 75 75 70 68 69 69 69 70
19 20 21 21 22 23 23 23 23 24 25 25 24 27 30 31 33 34 35 35 34 32 30 30 29 29 29 28 30 35 39 43 49 54 60 60 59 58 65 71 77 82 83 82 79 76 77 76 73 71 72 76 76 75
22 23 23 24 23 24 24 25 24 23 21 20 23 26 28 30 30 30 29 28 27 25 27 28 29 29 29 29 31 35 36 40 45 50 54 51 55 56 60 70 72 77 81 83 82 82 80 79 75 72 73 76 76 76
26 26 26 26 26 25 24 22 21 22 22 22 21 19 18 19 20 21 22 24 26 26 27 28 29 30 26 29 33 31 34 39 44 48 50 51 54 55 62 73 76 75 77 80 80 80 81 82 81 80 79 78 78 77
29 29 28 28 28 26 25 24 23 21 18 17 18 19 19 19 19 20 20 21 22 24 25 26 24 21 28 29 30 28 29 31 36 40 45 48 50 53 61 70 77 79 79 79 81 81 82 83 84 83 82 81 78 78
31 32 32 31 30 29 27 25 23 22 20 18 16 14 14 14 16 18 19 20 21 22 20 18 16 18 24 25 24 24 25 28 35 41 42 43 45 50 56 64 73 77 78 79 80 81 82 84 85 84 83 81 82 82
33 32 33 32 32 31 29 27 26 23 20 18 17 15 14 14 14 16 17 18 17 17 12 12 14 20 23 22 22 24 24 25 32 34 34 38 43 47 51 57 62 69 76 80 82 82 83 85 86 86 86 85 84 85
32 32 34 34 34 32 30 28 26 24 22 19 19 16 14 15 13 11 12 14 9 8 12 12 9 8 11 14 14 15 16 16 22 29 31 33 40 45 49 54 61 67 73 78 81 83 85 86 87 87 87 87 88 89
25 27 29 30 30 30 28 29 28 26 24 22 21 20 17 14 11 11 14 14 14 14 14 14 12 9 8 10 11 13 14 17 21 24 29 34 37 43 47 52 58 64 70 75 80 84 87 88 89 89 90 92 93 94
18 21 23 24 24 23 23 23 22 23 25 23 22 22 19 17 14 13 13 12 13 15 15 13 13 15 16 18 19 19 19 20 22 25 29 34 39 42 47 52 56 61 66 72 77 81 84 87 90 92 94 96 97 98
13 15 17 18 18 18 16 16 14 15 15 17 18 18 17 17 17 16 17 15 13 10 8 5 3 3 5 9 11 15 20 24 27 28 30 34 38 42 47 51 54 58 63 68 72 76 79 81 84 87 90 92 94 97
9 10 12 13 13 15 16 17 16 16 15 15 16 14 15 15 16 17 17 17 16 13 11 10 9 10 11 13 15 18 21 23 26 30 34 40 42 46 50 53 57 60 65 69 71 74 77 80 83 85 87 89 91 94
9 8 7 6 7 8 11 11 12 14 15 16 17 17 16 15 15 14 14 13 13 15 17 19 21 22 24 26 27 29 31 33 34 36 38 41 45 49 52 56 59 62 64 67 69 72 74 75 76 78 79 82 84 85
11 7 5 1 2 5 8 9 10 12 13 15 17 18 19 18 19 19 19 20 21 22 24 26 29 32 35 37 39 41 42 44 46 48 50 52 53 55 57 58 60 62 64 66 68 71 73 74 76 77 79 80 82 83
14 12 10 8 7 8 11 13 15 17 18 20 22 24 25 27 27 28 30 31 33 35 38 41 43 45 46 49 52 54 56 57 58 59 60 61 61 62 62 63 64 65 66 68 69 71 72 74 75 77 78 79 80 82
19 19 19 18 17 17 19 21 22 22 24 27 28 30 32 34 34 36 38 41 44 48 49 51 53 56 59 61 62 62 61 60 59 57 57 57 58 58 60 61 63 65 66 67 69 71 72 73 73 75 76 77 79 81
25 25 26 25 25 26 27 28 29 31 33 35 36 37 38 38 40 44 46 49 51 54 56 59 60 61 61 59 59 59 60 60 59 60 60 60 59 59 59 60 60 62 64 65 67 68 69 71 72 71 72 72 72 73
31 30 31 31 32 33 35 36 37 38 39 40 39 40 42 44 46 49 51 53 56 58 59 58 56 53 52 52 53 53 54 54 55 56 56 56 57 57 58 58 58 58 59 60 60 61 62 62 63 64 64 64 64 64
33 34 35 37 39 41 42 43 44 45 44 43 44 47 47 49 50 51 53 54 55 52 49 48 47 47 46 45 45 46 46 46 46 46 47 47 48 48 48 48 49 50 51 52 53 54 54 55 55 56 56 56 57 57
38 40 41 43 45 47 48 47 47 46 48 49 48 47 48 48 49 50 50 49 47 45 45 44 42 42 40 40 40 39 39 39 40 40 41 41 42 42 42 43 44 45 46 47 48 48 49 50 50 51 51 52 53 53
45 46 47 48 49 49 48 48 48 48 48 46 45 45 46 47 47 46 46 44 43 42 41 39 37 36 35 35 35 35 35 35 36 36 37 37 37 38 38 39 40 41 42 43 44 45 46 46 47 48 49 49 50 51
50 50 50 50 48 48 48 48 48 46 43 43 44 44 44 43 43 41 40 39 37 36 36 36 36 36 36 35 35 35 34 33 34 34 34 34 35 35 36 37 37 38 39 40 41 42 43 43 44 45 46 47 47 48
46 47 46 46 45 46 46 44 42 42 41 41 41 41 40 38 37 36 36 35 35 35 35 35 34 34 33 33 32 32 32 32 32 32 33 33 34 34 35 35 36 37 38 38 39 40 41 42 43 43 44 44 45 45
43 43 43 43 41 40 39 40 39 39 38 38 37 37 36 35 34 34 34 33 33 32 32 32 32 32 32 32 32 32 32 32 32 32 32 32 32 32 33 34 35 35 36 37 37 37 38 39 39 40 41 41 41 41

GFSWCAN_250_spd_072.txt.gz
Wind_Speed
36 35 33 31 31 32 33 34 35 37 40 44 47 49 52 55 55 53 52 54 54 45 50 50 51 49 54 55 54 60 63 56 48 45 54 61 62 66 69 68 69 75 76 69 66 66 62 64 64 70 64 61 62 61
32 29 29 28 28 28 27 27 27 29 32 35 40 44 47 48 48 48 49 52 52 46 49 52 56 59 62 61 63 64 57 59 49 47 51 61 65 68 68 74 73 73 73 70 65 67 65 68 67 66 66 65 66 62
28 27 24 22 20 18 16 17 19 19 22 26 29 35 39 41 43 46 51 49 45 40 43 54 59 63 64 64 63 60 60 55 44 45 53 60 66 70 74 73 70 68 71 72 70 66 64 69 70 69 69 66 66 64
24 21 18 15 13 12 12 12 12 13 16 19 23 27 31 35 39 44 46 45 45 41 44 50 63 68 61 58 58 60 59 47 43 48 55 60 66 68 69 68 68 68 71 70 70 69 68 69 71 72 69 64 66 65
20 16 14 13 11 9 7 5 5 9 13 16 20 23 26 31 36 38 39 44 44 43 46 52 53 55 55 54 55 51 44 42 48 49 53 60 61 66 66 66 65 65 68 73 72 76 72 69 73 69 68 66 64 68
16 14 14 12 9 6 4 3 3 5 10 15 19 22 25 28 31 35 40 43 46 45 50 48 45 44 44 46 43 38 41 46 47 51 52 56 62 65 64 64 71 71 75 77 76 74 73 70 75 73 69 73 74 71
16 15 13 11 8 8 8 8 10 10 13 17 20 23 25 27 29 32 35 37 38 41 39 38 42 44 41 35 36 42 47 47 47 48 50 54 58 63 68 67 72 69 68 73 74 74 76 69 73 76 73 72 73 72
16 15 13 12 10 13 15 15 16 16 17 19 20 22 26 28 30 32 33 34 32 29 30 35 34 32 37 41 43 44 43 42 40 42 46 50 56 62 63 58 65 66 66 71 74 73 73 72 69 75 79 78 75 71
16 15 15 15 15 16 19 22 22 21 21 23 23 23 24 26 30 31 31 29 30 31 36 38 41 42 41 40 37 35 36 37 40 42 44 45 51 53 59 58 62 65 68 73 75 73 72 71 72 74 77 78 79 75
16 16 16 16 20 21 20 22 24 26 27 29 30 29 30 31 34 35 37 38 38 38 38 37 36 34 31 31 30 32 34 35 35 38 41 45 49 55 58 65 71 73 73 76 77 75 74 73 73 75 77 77 77 76
18 18 18 19 20 24 25 25 26 25 26 29 32 36 36 37 36 33 32 32 32 32 31 30 30 28 29 29 30 31 30 31 34 36 36 39 45 51 58 65 69 73 74 76 77 77 75 73 72 73 74 74 74 73
20 21 22 22 23 23 25 26 27 28 28 24 24 27 27 27 28 29 28 27 26 27 28 26 24 25 25 25 25 27 29 33 36 34 33 38 43 47 52 52 54 66 72 76 78 77 76 74 73 74 74 74 75 76
24 24 24 25 24 24 23 25 27 27 28 28 26 25 25 25 23 22 23 23 22 22 21 22 24 24 24 24 26 27 32 37 33 31 31 35 41 45 50 53 60 69 66 72 76 77 75 73 75 76 77 77 79 81
26 26 25 26 27 27 25 23 22 23 24 26 27 25 26 24 23 21 20 18 18 18 18 19 20 21 22 23 27 30 33 30 33 32 30 32 37 42 47 55 62 65 68 70 73 76 78 77 78 81 82 82 82 83
27 27 28 27 27 28 27 25 23 22 22 20 19 22 22 22 22 22 21 20 19 18 16 14 13 15 19 20 20 23 24 26 30 32 32 31 33 35 39 47 55 61 62 69 72 74 78 80 82 85 87 88 88 88
31 30 29 29 29 29 28 26 24 23 22 20 19 18 19 19 19 19 18 16 14 13 12 12 14 16 17 14 15 17 17 20 23 25 25 27 30 34 38 43 48 55 61 64 69 75 76 79 83 86 88 90 91 93
31 32 32 33 31 31 29 27 26 24 22 21 19 18 17 16 16 15 13 13 12 12 12 13 13 13 12 8 8 11 13 16 18 19 20 22 27 31 35 41 46 53 59 63 68 71 75 81 83 85 87 89 90 92
29 29 30 31 31 30 31 30 26 24 22 21 20 22 18 13 13 12 12 15 13 12 12 10 11 14 15 15 17 15 15 17 19 19 20 20 24 28 33 38 42 47 53 60 63 68 73 78 83 88 89 90 91 93
23 23 25 26 26 27 27 29 23 24 22 21 19 20 20 21 16 12 12 14 11 9 8 6 7 9 10 12 14 14 15 17 19 21 22 23 25 28 33 36 42 47 51 56 61 67 71 75 76 77 80 85 89 91
17 18 21 21 22 18 21 21 18 20 20 19 19 19 19 22 26 25 22 20 16 14 10 8 7 5 5 4 5 8 13 15 16 19 21 23 27 30 33 37 43 46 50 54 57 58 63 67 71 74 76 79 82 85
12 12 15 15 18 17 19 18 19 19 17 18 16 15 14 18 15 14 14 12 7 4 4 3 1 1 3 5 8 10 12 14 15 17 19 23 28 31 33 36 42 48 51 54 57 60 63 66 69 72 75 77 80 82
7 7 8 10 13 14 14 15 16 17 18 19 19 19 18 17 17 17 18 17 17 18 18 19 21 22 23 23 25 26 28 29 29 30 31 32 34 36 38 41 45 49 52 55 58 61 64 66 69 71 73 75 77 79
7 3 2 3 5 5 7 9 10 12 14 14 15 16 16 17 17 18 20 21 22 24 25 27 29 30 32 34 36 38 39 41 43 44 45 45 46 47 48 49 52 54 57 59 61 63 65 67 69 70 72 74 76 77
11 8 6 5 5 6 6 8 10 12 14 15 17 19 20 21 22 23 25 28 29 31 34 37 39 41 44 46 48 49 49 50 50 50 51 52 53 55 56 57 58 59 59 60 61 62 63 65 67 69 70 73 75 77
18 16 15 14 14 15 16 16 17 17 18 19 21 23 25 26 27 29 32 34 37 40 44 46 48 51 54 56 56 56 55 54 54 54 54 54 53 54 55 55 56 57 58 59 60 61 63 65 66 68 70 71 72 74
23 22 21 22 22 23 23 25 26 28 28 27 27 28 29 31 32 34 37 40 43 46 48 51 53 56 58 57 57 57 56 54 54 53 53 52 52 53 54 54 54 53 53 54 56 57 57 59 61 62 63 64 65 65
28 28 29 30 30 30 31 33 34 34 34 33 34 36 37 38 41 44 44 46 49 51 52 53 54 53 51 48 47 46 45 45 45 45 46 46 46 46 46 46 47 47 47 47 49 50 51 51 52 53 54 55 55 56
31 32 33 34 35 36 37 37 37 37 37 38 40 42 44 45 45 45 48 50 50 51 52 49 46 45 45 44 42 41 41 40 40 40 41 40 41 41 41 41 41 42 42 43 43 44 45 46 46 47 48 49 49 50
31 33 35 36 38 39 40 39 39 39 41 43 45 45 45 45 46 47 48 48 48 47 46 45 44 42 40 39 38 36 35 34 33 34 35 35 35 36 36 36 37 38 38 39 40 40 41 42 43 44 45 45 46 47
38 39 38 39 40 40 41 41 43 44 45 43 41 42 44 44 45 45 45 44 43 42 41 39 38 37 36 36 34 33 32 31 31 30 31 31 32 33 33 34 34 35 35 36 37 38 39 40 40 41 42 42 43 44
39 38 38 39 42 43 44 44 44 42 41 41 41 42 42 43 43 42 41 39 37 37 36 35 33 32 32 33 31 30 30 30 30 30 30 30 31 31 32 33 33 33 34 34 35 35 36 37 38 40 41 42 42 43
37 39 40 40 41 41 41 40 41 40 39 38 39 39 39 38 38 36 35 35 35 34 33 31 31 30 29 30 31 31 30 29 29 29 29 29 29 30 30 30 31 32 33 34 35 36 37 37 38 38 39 39 40 41
38 38 38 39 40 39 39 38 37 37 36 35 34 34 35 34 34 32 32 32 31 30 30 30 30 30 29 29 28 29 29 29 29 28 28 28 28 29 30 30 31 32 33 34 34 34 35 35 36 37 37 38 39 39

GFSWCAN_250_spd_075.txt.gz
Wind_Speed
33 33 32 32 34 34 35 36 38 40 42 44 47 50 54 56 58 56 54 52 46 46 48 51 52 51 52 51 51 57 52 45 41 37 42 47 54 60 62 62 63 70 69 67 70 69 65 68 70 66 65 68 67 63
31 28 28 29 28 29 30 31 32 34 37 40 42 45 48 50 51 50 49 51 50 52 55 53 54 56 57 56 57 56 51 46 42 39 40 48 54 60 64 65 69 70 70 70 69 69 73 73 72 69 68 69 65 64
27 26 25 25 25 26 26 26 27 29 30 32 34 37 41 43 43 43 49 53 51 52 56 58 54 59 60 52 49 49 48 46 41 39 39 46 51 57 62 67 72 70 69 71 70 75 77 75 74 72 69 67 64 64
24 22 21 20 19 18 16 16 18 20 22 25 27 29 32 36 39 42 49 50 48 52 56 56 62 57 58 55 53 55 52 50 48 42 39 45 51 56 63 68 70 71 71 76 71 77 77 76 75 75 71 69 69 66
20 18 16 13 10 9 9 9 10 12 15 19 22 24 28 32 35 43 44 43 45 49 56 60 59 62 64 60 59 54 54 54 54 47 41 46 52 57 61 66 70 71 69 70 68 72 73 76 75 74 72 69 68 69
17 14 11 9 5 4 2 3 6 8 11 15 19 22 26 29 32 30 33 39 43 49 51 58 60 65 64 62 60 58 58 58 57 48 46 47 54 57 59 62 69 70 66 66 68 66 75 76 74 75 73 70 70 68
14 12 11 8 5 2 2 4 7 9 11 15 20 22 25 28 33 40 43 44 43 45 42 48 59 61 58 56 55 56 58 56 51 44 41 44 53 55 55 59 65 66 66 64 67 68 75 80 79 78 76 72 71 71
15 14 11 9 7 4 7 9 11 12 14 17 21 25 28 30 32 32 34 37 37 34 34 38 41 47 52 51 50 46 42 38 32 34 36 41 50 51 51 55 61 62 65 62 64 68 68 77 83 80 79 75 74 73
16 14 12 12 10 8 11 14 17 19 19 19 21 24 26 26 27 29 32 32 33 31 32 36 40 41 40 39 39 36 34 35 37 41 46 50 51 51 53 54 56 59 61 60 64 70 70 73 85 84 83 81 79 75
16 16 14 15 16 14 13 15 21 26 28 26 25 26 29 29 28 29 30 31 33 35 35 32 31 34 35 35 36 35 35 35 38 41 41 40 43 44 47 50 52 58 59 61 65 70 73 75 82 88 86 84 80 79
17 17 17 18 21 18 18 18 20 24 28 32 32 32 33 33 33 34 33 32 33 33 34 35 34 33 34 34 34 34 34 35 36 38 38 39 42 42 44 49 52 58 62 65 70 75 75 75 81 86 87 84 81 80
20 20 20 20 22 23 22 23 24 23 24 27 30 31 30 30 30 31 32 30 29 28 29 29 30 31 31 31 32 32 33 34 36 35 35 35 36 40 45 48 49 54 59 63 68 73 76 77 79 83 85 85 84 81
23 22 23 24 23 25 27 27 27 26 28 30 30 30 30 30 29 28 27 28 29 30 29 28 28 28 27 27 27 27 28 29 31 30 32 32 36 40 42 44 44 54 58 58 62 68 72 74 74 77 81 82 82 82
24 24 25 25 26 26 26 26 29 30 29 30 31 32 31 29 29 29 28 28 27 25 25 24 23 24 24 23 23 21 25 26 28 27 22 28 31 32 36 40 43 49 52 53 56 62 68 72 73 76 80 80 80 82
26 25 26 27 26 26 27 28 27 26 27 27 28 29 30 30 30 29 27 26 25 22 20 18 17 17 17 17 19 20 20 23 24 22 20 22 25 27 28 32 37 43 49 55 60 63 63 70 74 76 78 81 82 83
29 29 28 29 28 27 27 26 25 24 24 23 21 22 22 22 23 23 21 19 18 16 14 12 12 13 14 14 15 15 18 19 20 21 21 22 23 25 27 30 34 38 44 50 54 58 62 68 74 76 77 80 83 86
34 33 31 30 29 27 26 25 24 23 22 20 19 18 18 19 18 17 16 14 12 10 9 10 9 10 10 11 15 16 17 18 17 18 19 22 23 24 26 28 31 37 42 49 53 54 56 60 66 73 79 83 85 87
33 35 35 36 36 33 28 26 24 22 21 20 19 19 20 21 18 14 13 11 9 8 5 6 8 7 6 8 14 14 13 13 15 17 17 18 21 23 25 27 29 32 38 43 49 54 57 59 63 69 73 76 79 84
28 30 30 30 31 32 31 28 26 26 22 21 22 23 22 19 16 13 10 9 6 7 8 8 6 4 5 5 7 8 11 13 14 14 15 18 20 23 26 29 31 33 36 40 45 52 56 59 63 66 70 74 80 87
24 25 28 29 27 28 29 27 24 27 28 27 22 23 22 22 20 19 16 15 13 11 8 6 5 4 4 5 6 7 8 9 8 10 14 16 18 20 24 28 29 32 35 36 42 48 53 58 63 66 69 72 75 79
18 19 19 22 23 18 22 24 25 24 27 27 29 26 26 25 22 18 16 15 9 5 3 3 3 3 7 6 7 9 11 12 15 19 22 24 25 26 27 29 31 34 36 40 44 46 49 54 59 63 67 69 72 75
11 11 13 13 16 13 15 16 15 16 17 18 18 17 14 12 10 9 8 6 6 9 11 13 15 17 17 18 21 23 25 27 28 30 31 33 33 34 35 37 39 40 42 45 48 50 53 57 60 63 65 68 71 73
8 6 6 7 7 7 9 9 10 12 12 12 11 11 9 8 8 9 11 14 17 19 21 23 24 27 29 30 32 34 35 36 38 40 41 41 42 43 43 45 45 47 48 50 51 53 56 59 61 64 66 68 71 73
7 4 2 2 3 6 9 10 11 12 13 14 15 15 16 16 16 17 20 22 24 26 30 32 34 36 38 40 43 44 45 46 47 47 47 47 46 46 47 48 49 50 52 53 55 56 57 59 61 63 65 67 69 71
10 8 8 8 9 11 12 13 14 15 17 18 19 19 19 19 20 22 24 27 29 33 35 38 41 44 47 48 49 50 49 50 51 50 48 47 46 46 46 47 47 48 49 51 52 54 56 57 58 60 61 63 64 66
14 14 15 15 16 18 19 21 23 25 26 27 29 30 30 30 31 32 35 37 40 42 45 47 50 52 53 53 54 52 48 45 43 43 43 43 42 43 43 44 44 44 44 44 45 46 47 48 50 51 52 54 55 56
19 21 21 23 23 24 25 27 28 30 31 32 33 34 35 35 36 38 40 43 46 48 50 51 52 52 51 49 46 44 43 42 41 40 39 40 40 39 39 39 39 40 40 40 40 41 42 43 44 46 46 47 48 49
22 23 24 26 27 29 31 33 34 35 36 37 38 40 41 42 42 43 45 47 49 50 51 51 50 48 46 44 42 40 39 38 37 36 35 35 35 35 36 36 35 36 36 36 36 37 38 39 40 41 42 43 44 45
25 26 28 30 31 32 34 36 37 38 40 41 43 44 44 44 45 47 48 49 49 49 47 46 44 42 40 38 36 35 35 35 35 34 34 33 33 34 35 35 35 35 35 35 36 36 36 37 38 39 40 41 42 42
32 34 34 35 36 37 39 40 41 43 44 43 42 43 44 46 46 47 48 47 45 44 42 40 38 37 35 34 33 32 31 31 31 31 31 31 31 30 31 32 32 33 33 34 34 35 35 36 37 37 38 39 39 40
38 38 38 38 40 41 41 41 41 41 41 42 43 44 44 44 44 44 43 42 40 38 37 37 36 34 32 30 30 29 29 29 29 29 29 29 29 29 28 29 30 30 31 31 32 32 33 34 35 36 36 37 37 37
40 39 39 40 39 39 39 40 41 41 41 41 41 40 40 41 41 40 38 38 37 35 33 32 31 32 31 30 28 27 27 27 27 26 26 26 27 27 27 28 28 29 29 29 30 31 31 32 32 32 33 34 35 35
38 38 38 39 39 39 38 38 37 38 37 37 37 37 37 37 37 35 34 34 33 32 30 29 29 28 28 28 28 28 27 27 26 26 25 25 26 26 26 26 27 27 28 28 28 28 28 29 30 31 31 32 33 33

GFSWCAN_250_spd_078.txt.gz
Wind_Speed
31 34 36 36 37 38 41 42 43 45 47 50 53 55 55 54 54 51 48 40 38 38 42 43 44 44 47 50 54 57 51 41 43 39 38 38 42 48 49 50 53 54 57 60 63 64 58 60 60 58 63 63 64 66
32 33 33 33 34 35 35 36 37 38 40 43 45 48 50 52 54 53 52 47 41 48 46 46 44 44 46 51 57 54 49 41 41 39 37 41 46 49 55 56 56 54 56 60 58 54 55 55 58 57 62 67 66 66
30 29 29 30 29 29 30 30 29 31 33 36 39 42 43 45 46 46 51 51 44 51 51 50 47 49 48 50 52 49 46 39 37 38 40 38 39 44 49 56 58 55 56 59 57 56 59 57 59 65 68 69 69 70
25 25 25 25 25 26 24 23 25 26 28 30 32 35 38 39 41 41 48 48 48 54 58 56 55 49 53 49 46 47 45 39 35 35 34 35 41 47 48 52 57 60 57 60 61 65 61 59 62 67 68 70 72 74
22 21 20 19 20 20 19 19 20 21 23 25 25 27 31 34 36 41 45 45 44 46 56 62 58 56 54 50 49 48 44 40 36 35 33 37 41 45 49 53 57 60 61 59 63 65 65 66 66 69 72 71 74 74
17 17 15 14 12 11 11 12 13 15 17 20 22 24 27 29 35 40 37 35 37 43 53 59 59 61 59 56 52 47 43 41 39 38 37 37 40 43 47 53 56 59 62 62 62 65 65 69 63 68 71 74 77 76
15 12 11 10 8 7 6 5 7 11 14 17 20 25 30 33 34 37 42 43 43 46 50 57 64 67 61 58 52 52 49 48 45 41 38 39 43 44 45 50 53 56 59 61 62 66 65 67 67 66 73 80 79 77
11 12 12 10 8 5 3 2 6 10 12 15 19 23 26 29 30 33 36 38 40 43 50 57 60 60 59 58 62 56 48 43 35 36 38 40 44 41 38 42 50 55 57 57 62 64 64 63 71 70 72 84 84 82
13 13 12 10 9 7 3 5 9 12 14 16 18 21 22 23 24 26 28 31 34 37 39 42 48 51 55 59 52 45 40 39 39 41 44 46 46 36 35 44 51 56 58 56 58 62 65 65 71 73 72 82 86 85
14 14 13 12 11 8 6 6 10 16 19 19 19 20 22 23 25 26 26 27 30 33 37 39 43 48 48 50 48 46 43 40 41 40 41 41 40 36 37 46 53 59 61 56 55 58 63 66 68 74 75 77 85 85
14 15 15 15 15 14 12 9 10 16 22 24 26 26 25 25 27 27 28 30 32 33 34 37 39 40 44 44 41 38 37 35 36 35 34 32 33 40 48 52 56 58 57 53 53 56 61 66 70 73 79 79 82 86
15 17 17 18 20 20 18 16 14 14 17 24 29 31 35 35 34 33 32 32 35 36 35 35 35 35 34 36 36 35 34 33 33 32 32 36 38 40 44 48 50 52 52 50 51 54 55 62 68 72 75 81 81 83
17 23 22 20 21 23 23 23 21 19 22 27 30 28 28 30 30 30 29 29 30 29 28 28 29 28 29 30 30 30 31 33 32 32 33 34 34 35 37 38 40 42 46 48 50 53 55 59 61 67 72 75 80 80
20 23 26 25 23 24 25 25 26 25 24 26 29 31 30 29 28 27 26 26 26 25 23 22 22 23 23 24 25 27 28 27 28 28 28 28 30 32 33 35 38 42 43 45 48 52 55 55 56 64 71 75 78 82
23 25 26 27 28 25 26 26 26 26 26 27 27 29 30 30 29 27 27 25 24 23 22 21 19 20 20 21 21 22 23 24 25 26 26 27 27 28 30 32 34 38 40 44 47 49 51 53 53 61 67 73 77 79
27 27 27 28 28 27 27 26 25 25 25 25 27 29 29 31 31 30 28 26 24 22 21 20 19 19 18 19 19 19 19 20 21 21 22 23 23 24 27 27 30 34 37 39 41 45 49 51 54 58 63 70 74 77
31 31 30 29 28 27 26 27 27 26 27 28 28 27 26 26 26 24 23 21 20 17 15 13 11 13 13 13 15 17 19 19 20 20 20 20 20 21 22 25 27 30 32 37 40 43 46 48 49 51 57 67 71 73
35 33 32 30 28 28 27 26 28 29 28 28 26 25 25 24 22 20 18 15 12 9 8 6 4 2 5 10 12 12 13 15 16 17 18 19 20 22 25 26 27 28 30 34 37 40 43 46 49 51 54 58 64 69
34 34 34 33 30 28 27 28 27 28 28 27 25 23 21 19 18 17 16 14 14 13 10 7 5 2 0 1 3 7 10 14 16 17 17 17 18 21 23 24 26 27 29 32 35 39 42 45 46 50 54 58 63 66
30 30 30 31 32 30 31 30 28 27 28 27 26 26 26 26 26 24 22 19 17 13 9 6 4 3 3 5 8 10 13 14 16 17 19 20 20 21 22 24 27 30 32 33 36 38 40 42 45 47 50 53 59 63
23 24 26 26 27 29 31 31 32 32 34 33 32 30 27 27 24 22 18 13 10 7 2 2 4 4 6 7 8 9 12 15 17 20 22 25 26 27 28 29 32 34 37 39 40 41 42 44 46 48 50 53 56 59
16 17 19 22 23 20 23 22 21 24 23 22 21 18 16 14 11 8 6 5 5 5 6 7 11 13 15 17 19 21 24 25 27 28 29 31 33 35 37 39 40 40 41 42 43 45 47 48 49 51 52 54 57 60
13 13 13 17 17 17 19 19 18 17 16 14 11 8 7 5 7 7 8 9 11 12 13 16 19 21 23 26 28 30 32 33 35 37 38 40 41 41 43 43 44 45 46 48 49 51 52 53 55 56 57 59 60 61
8 7 7 7 8 10 11 11 12 12 13 13 13 14 15 15 15 17 19 21 22 24 25 27 30 33 36 38 39 41 42 43 43 44 44 44 44 45 45 45 45 46 47 49 50 51 52 54 56 58 59 61 62 63
5 3 1 2 4 5 7 8 11 13 15 15 17 18 20 20 23 25 28 29 31 32 35 38 40 43 45 46 47 46 45 44 44 44 42 41 41 42 42 43 44 44 45 46 47 48 49 50 51 52 54 55 57 58
5 5 6 7 9 11 12 14 15 16 17 20 22 24 26 28 31 34 36 38 41 44 46 48 50 52 53 52 50 48 46 43 40 38 38 38 38 38 39 40 41 42 42 43 43 44 44 45 46 47 48 50 51 52
10 10 11 12 14 15 17 18 19 21 23 25 27 30 32 35 38 40 43 46 49 50 52 54 55 55 53 51 47 44 42 40 38 37 36 35 35 35 35 35 36 37 38 39 40 40 40 40 41 41 42 44 44 45
13 13 15 17 19 21 22 23 25 26 27 29 32 36 39 42 44 47 50 51 53 54 55 54 52 50 47 44 42 40 38 36 35 34 34 34 34 34 34 35 35 35 36 36 37 38 38 38 39 39 40 41 42 42
18 19 21 22 24 26 28 29 31 32 33 35 38 41 44 47 49 51 52 53 53 53 51 48 46 42 39 37 36 36 35 34 33 33 33 33 33 33 33 33 34 34 35 35 35 36 36 36 37 37 38 38 39 40
25 26 27 29 31 32 34 35 37 38 40 43 44 46 48 50 51 51 51 51 49 46 44 42 39 37 35 34 33 32 32 32 32 32 31 31 32 33 33 33 33 33 34 33 34 34 35 35 35 35 36 37 38 38
30 31 33 35 36 37 39 41 42 43 44 44 45 48 49 50 49 47 47 44 42 40 40 38 35 34 33 32 31 31 31 31 31 31 31 31 31 31 31 32 32 32 32 33 33 33 33 34 35 35 36 36 37 37
36 37 39 39 39 41 43 44 43 43 45 46 46 45 45 45 44 43 41 39 38 38 36 35 33 31 30 30 30 30 30 30 30 30 30 30 31 31 30 30 31 31 31 31 31 32 33 33 33 33 33 33 33 34
41 41 41 43 44 44 43 44 44 45 44 44 42 41 41 40 40 39 38 35 34 34 32 32 31 31 31 30 29 29 28 28 28 29 30 30 30 30 30 29 29 30 30 30 30 30 29 29 30 30 31 31 32 32

GFSWCAN_250_spd_084.txt.gz
Wind_Speed
26 27 28 28 29 31 33 36 38 39 40 40 40 40 40 36 34 32 43 43 41 42 41 41 42 42 43 44 46 48 44 42 40 38 43 45 47 48 48 46 44 41 42 44 49 49 52 54 58 59 58 51 53 58
27 26 28 30 34 36 39 40 41 41 40 39 39 39 39 37 34 32 43 47 45 45 39 42 43 41 42 42 42 44 45 42 38 41 44 44 44 45 42 43 42 38 41 41 43 49 51 53 55 57 59 49 53 56
27 28 31 34 35 37 38 38 37 35 35 34 34 34 34 35 32 34 38 50 45 45 41 39 39 40 40 40 42 43 43 41 41 42 43 43 44 44 45 43 43 41 42 43 44 49 51 56 56 57 56 50 52 54
28 30 31 31 33 32 31 31 30 30 30 29 29 30 30 32 32 34 39 53 52 49 42 36 37 36 35 40 41 43 41 41 40 42 41 40 41 42 43 41 41 40 41 42 44 47 50 52 53 57 54 49 49 53
28 27 27 27 27 28 26 24 24 24 25 25 26 27 29 31 31 33 39 50 55 53 46 42 35 33 33 36 39 38 39 40 39 39 40 42 41 42 42 40 41 40 41 41 40 43 48 50 50 52 52 50 45 52
25 24 24 22 21 19 18 18 18 17 18 21 23 24 27 28 28 29 32 40 57 55 52 47 41 37 37 35 32 36 38 38 40 42 41 41 43 43 43 43 41 40 41 40 39 41 42 45 48 53 54 50 47 46
22 20 18 17 15 13 12 12 12 12 13 16 19 22 24 26 30 33 36 42 53 62 59 55 48 42 40 32 29 29 30 35 39 42 43 45 44 43 43 42 42 41 42 42 41 42 44 47 47 49 51 52 52 53
15 13 13 9 6 5 4 6 7 8 11 14 17 20 24 27 29 30 32 35 43 57 67 60 56 48 39 35 34 31 28 29 35 41 45 46 45 43 39 40 42 43 42 41 41 42 43 44 47 51 55 56 55 53
10 9 7 2 0 3 5 5 6 8 10 11 14 17 20 23 26 27 29 34 40 48 59 64 58 52 44 38 38 33 30 31 34 38 43 43 42 36 38 41 42 43 43 44 45 45 47 47 46 47 49 52 55 57
9 7 5 4 8 10 11 9 9 11 12 13 14 14 16 20 23 27 29 34 38 45 52 57 61 57 48 42 38 36 34 33 34 36 39 39 37 36 38 40 42 43 44 44 43 44 47 49 49 49 50 50 52 54
7 7 6 9 13 15 13 13 13 15 17 17 16 17 18 18 20 23 26 30 34 38 41 45 47 50 51 47 44 39 34 32 33 31 29 30 29 31 39 42 43 44 44 44 45 45 46 48 50 50 49 48 48 47
8 9 9 12 17 16 14 14 15 16 18 19 21 21 20 19 20 22 25 27 30 33 36 38 39 44 46 46 41 33 27 24 19 20 19 26 33 37 39 40 42 45 48 49 49 48 47 47 45 45 48 50 48 47
12 14 13 16 20 19 16 15 14 15 18 18 19 20 19 20 21 23 24 26 26 28 29 29 32 33 36 38 33 24 15 13 11 16 20 24 33 36 39 45 49 51 52 49 46 42 41 41 43 46 48 47 47 45
15 19 18 20 23 19 18 20 20 21 23 22 23 23 21 21 21 22 21 22 22 23 24 26 26 27 28 26 24 23 24 22 19 22 26 28 28 33 37 40 42 42 41 40 39 38 38 38 38 38 39 40 40 41
19 21 23 24 26 23 25 27 27 27 27 27 27 26 25 25 26 26 24 23 22 21 21 20 20 21 21 21 22 22 21 23 25 24 24 27 29 31 32 33 33 34 35 35 35 35 36 36 37 39 40 41 42 44
23 24 26 25 28 28 28 29 30 30 31 30 30 29 27 26 28 28 27 26 25 24 22 20 19 18 16 17 17 18 17 18 20 22 23 24 25 25 26 27 30 32 34 34 35 37 37 39 40 41 41 43 45 47
24 27 28 27 27 29 30 30 30 30 30 32 31 29 30 30 30 30 29 27 25 24 22 19 17 16 14 14 14 14 14 15 15 15 16 19 22 25 28 29 31 33 34 34 35 36 38 39 41 42 43 44 46 48
28 28 30 31 30 31 32 33 34 34 34 32 31 29 28 29 29 27 26 25 22 20 17 14 12 9 7 6 7 8 10 12 14 17 22 25 27 29 29 30 31 33 34 36 38 38 39 40 41 42 43 44 46 47
27 28 29 28 29 30 29 30 30 30 30 30 29 28 27 26 25 25 24 22 21 19 16 13 10 7 8 8 11 13 16 16 19 19 20 22 23 24 25 27 29 30 31 33 35 37 39 40 41 43 44 46 47 49
28 27 29 29 27 26 28 29 29 28 28 30 31 31 30 30 29 28 26 23 20 17 14 10 7 5 4 3 4 7 10 13 15 18 20 21 23 25 26 28 30 32 33 35 36 38 39 40 42 44 45 47 49 50
31 31 30 29 28 27 28 30 32 32 31 31 30 28 26 24 22 19 16 13 9 5 3 3 4 7 6 10 13 15 18 21 24 26 27 28 29 31 33 35 36 38 40 41 42 42 43 44 45 45 47 48 49 50
39 38 37 35 34 32 32 31 30 29 26 24 22 20 18 15 11 9 6 4 2 2 3 7 10 13 16 19 22 25 27 29 30 32 34 36 38 39 40 41 43 44 46 47 48 49 50 50 50 50 51 51 52 54
34 33 31 31 31 28 24 25 22 19 18 15 13 10 8 6 4 1 5 7 9 11 13 16 19 21 24 27 29 31 32 34 36 37 38 40 41 41 42 43 44 45 47 48 49 50 51 52 53 54 54 55 56 57
25 28 25 22 22 22 20 17 15 12 10 7 4 3 1 4 7 9 12 16 16 18 23 26 29 31 33 33 34 34 34 34 35 36 36 37 39 41 43 45 46 47 48 48 49 50 51 52 52 53 54 54 55 55
18 19 18 15 14 12 10 8 5 3 1 2 5 7 10 12 14 16 19 22 26 30 34 37 39 40 39 38 35 35 33 32 31 32 34 36 38 39 41 42 43 45 45 46 47 47 47 47 47 48 48 48 48 48
12 11 9 9 7 5 4 3 4 6 7 8 11 14 16 19 22 25 29 32 36 40 44 46 47 47 43 41 36 33 31 30 30 29 30 32 33 34 35 36 38 38 40 40 41 42 42 42 43 43 44 44 45 45
9 9 7 7 8 7 7 7 8 9 10 13 17 20 23 25 28 32 36 40 44 48 49 49 48 45 42 39 36 34 32 30 30 30 30 30 31 31 32 33 33 34 35 36 36 37 38 38 39 39 40 40 41 42
11 11 10 10 9 10 11 11 13 14 16 20 24 27 29 32 36 40 44 46 48 49 48 47 44 41 38 35 33 31 30 29 29 30 29 29 29 29 29 30 31 31 32 32 32 33 33 34 35 35 36 37 37 38
15 15 15 14 14 16 18 19 19 19 22 27 30 32 36 39 42 46 47 47 48 48 45 42 40 37 34 33 31 29 28 28 28 28 28 28 28 29 29 29 30 30 30 30 31 31 31 32 32 33 34 34 34 35
17 18 20 21 21 23 25 27 25 25 29 32 34 37 41 43 44 46 47 47 45 43 41 39 36 34 32 31 30 29 28 28 28 29 29 29 29 29 29 29 29 29 30 30 31 31 31 31 32 32 33 33 33 33
22 24 25 26 26 28 32 31 31 33 34 36 39 40 41 43 45 46 45 42 41 40 39 36 36 34 33 31 29 28 28 28 28 29 29 28 29 29 29 30 30 30 30 30 30 30 29 30 30 31 31 31 32 31
26 28 29 30 31 34 34 34 35 36 37 38 39 41 43 43 42 40 39 39 39 39 38 37 35 34 32 32 31 30 29 29 28 28 28 29 29 29 29 30 30 30 29 29 29 30 30 29 29 29 28 29 29 29
31 31 31 33 34 34 34 34 35 36 37 39 40 40 40 38 38 37 36 37 37 38 36 35 34 32 31 31 30 29 29 29 29 29 30 30 30 30 29 28 28 29 29 29 28 28 27 27 27 27 27 28 28 29

GFSWCAN_250_spd_087.txt.gz
Wind_Speed
26 26 26 27 28 28 28 29 30 32 34 36 38 39 39 36 36 35 38 38 37 39 35 37 34 36 38 41 40 40 43 44 46 41 40 42 45 48 49 50 52 52 52 55 57 57 58 54 57 63 63 63 57 70
26 26 27 28 30 31 32 34 37 39 41 41 40 39 37 37 36 37 37 43 43 40 37 38 39 37 37 38 41 42 45 45 42 40 42 42 47 48 47 45 45 44 47 51 49 50 45 49 52 56 57 58 58 62
27 26 28 31 32 36 39 40 39 39 39 39 38 36 36 38 37 36 38 38 48 43 39 37 41 39 39 38 40 42 42 43 40 38 39 43 42 44 44 45 43 44 47 46 47 46 47 50 50 53 55 55 55 57
27 29 31 35 36 36 37 36 35 34 33 33 32 32 33 33 35 34 38 42 48 46 40 38 38 41 39 39 42 42 42 38 39 41 41 42 44 45 46 44 44 43 45 45 43 44 48 47 49 52 55 57 56 57
28 32 33 32 31 31 31 29 28 28 29 30 30 30 30 32 34 34 38 39 45 43 40 32 37 38 40 41 42 41 39 37 39 41 44 45 44 46 45 44 42 41 43 42 41 43 43 44 47 50 55 57 57 56
30 27 26 27 27 26 25 24 24 24 24 24 25 27 29 31 32 32 32 35 43 42 42 35 33 38 39 39 40 41 40 38 37 42 43 44 44 45 44 43 42 43 40 41 41 40 42 44 46 49 53 55 56 55
23 22 24 23 22 21 19 18 17 17 17 20 23 25 26 28 30 34 39 44 45 46 43 41 34 36 36 33 35 39 35 35 38 42 44 44 45 45 43 40 42 41 40 42 42 41 41 45 47 48 52 54 55 55
18 19 19 17 15 13 14 13 12 12 15 17 20 22 25 29 31 32 35 40 43 48 46 44 38 34 32 34 31 26 30 33 37 42 45 46 45 44 40 42 44 44 42 42 43 43 44 45 48 50 52 54 55 54
15 13 12 10 8 7 8 8 9 11 12 16 20 21 23 25 27 29 33 37 42 46 47 46 42 39 37 31 29 26 26 31 36 41 43 44 44 40 42 45 45 45 43 42 43 44 44 46 48 50 53 56 57 56
9 8 4 2 3 5 7 8 11 14 16 17 18 19 20 21 23 27 31 37 43 49 51 45 40 38 37 33 31 30 32 31 35 40 42 42 41 45 46 47 47 46 45 42 41 42 42 44 46 46 48 50 52 53
3 1 3 4 6 9 10 11 12 15 19 21 22 22 23 23 24 27 31 35 40 45 48 49 46 39 37 36 35 33 30 32 33 35 38 40 40 43 48 48 47 45 43 42 41 42 44 46 48 48 49 50 49 49
3 6 4 6 10 10 11 12 14 15 17 19 22 22 21 21 21 24 27 31 35 40 43 46 46 45 43 38 36 36 36 35 33 36 33 32 41 45 46 42 39 40 41 41 43 45 47 48 48 49 49 48 47 47
8 9 9 12 15 15 14 13 15 16 18 20 21 22 20 20 20 21 25 28 31 34 37 40 42 43 43 41 39 37 34 33 31 34 36 38 39 37 36 36 37 40 44 46 46 47 48 49 48 47 46 46 47 45
12 13 13 16 18 19 19 19 20 19 19 21 23 23 20 20 20 21 22 23 25 29 31 33 35 37 37 37 35 27 14 21 29 26 29 27 25 32 36 37 40 44 47 50 52 50 47 46 47 47 47 49 52 53
16 18 19 20 19 21 21 21 23 24 25 26 25 25 25 23 22 21 21 22 23 23 23 24 26 28 29 30 28 23 17 15 21 27 29 31 33 35 39 44 47 49 50 50 49 48 49 47 45 45 45 45 46 46
22 23 23 22 22 24 25 26 27 28 29 27 26 27 26 26 25 25 25 24 23 23 23 23 24 25 26 26 26 26 27 27 27 27 30 36 41 43 45 46 45 44 44 45 45 44 42 41 42 42 41 41 42 43
26 25 25 25 25 26 27 27 27 30 33 30 30 28 29 28 27 25 24 23 22 22 21 21 22 22 21 22 22 23 23 24 25 27 29 30 31 33 34 34 35 37 39 41 41 41 40 41 43 43 42 42 43 43
29 28 26 29 30 31 31 33 32 33 32 31 31 30 30 29 28 26 24 22 20 19 17 16 16 16 17 16 16 16 16 17 19 20 23 26 27 29 30 31 32 33 34 36 37 39 39 40 41 43 44 44 44 45
31 32 31 31 33 34 33 33 35 32 30 28 29 29 28 27 26 25 24 22 19 17 14 11 7 5 4 7 10 12 14 15 16 18 20 21 23 26 28 30 32 33 35 36 37 37 37 37 37 39 41 42 44 45
31 32 33 32 31 30 31 32 31 29 28 28 28 27 26 26 25 23 21 18 17 14 12 11 8 6 3 2 3 5 9 12 14 17 20 22 25 27 29 30 32 33 34 35 35 36 36 37 38 39 40 41 42 43
32 32 32 31 31 29 28 29 30 30 30 30 30 28 27 25 23 20 17 15 12 9 6 3 2 4 4 6 9 13 16 19 22 24 26 28 31 33 34 36 37 38 39 40 41 42 43 44 45 46 46 47 47 48
32 31 32 33 35 36 35 34 33 31 29 26 24 21 19 16 14 11 8 6 3 2 4 6 9 12 14 16 20 23 25 28 31 34 37 39 41 42 44 45 46 48 49 50 51 51 52 53 53 54 54 54 54 54
38 37 37 36 34 31 28 27 25 22 19 16 13 12 10 8 5 2 3 6 9 12 15 17 19 21 24 26 28 30 32 34 36 38 39 41 44 46 48 49 50 51 52 53 53 54 54 54 55 55 55 55 56 56
32 31 28 27 25 24 21 19 15 13 10 7 6 4 1 3 5 8 10 14 15 16 20 23 27 30 32 33 34 34 34 34 36 37 40 43 46 47 49 50 51 52 53 53 53 52 52 52 52 52 52 52 52 51
26 24 21 18 17 13 12 10 7 4 1 2 4 5 7 9 11 13 16 19 23 27 30 33 37 37 37 37 35 33 33 33 34 37 39 42 44 47 49 50 51 51 51 51 51 50 49 48 48 47 46 46 46 46
18 17 16 13 10 7 4 2 2 3 5 6 8 11 13 16 19 22 25 29 33 37 40 43 45 46 42 40 37 34 34 34 34 34 36 38 39 41 42 43 43 43 43 42 42 42 42 42 42 42 42 43 43 43
11 9 7 5 5 5 5 5 6 7 9 12 15 17 20 23 26 29 34 37 41 45 47 48 47 45 42 40 37 36 34 33 33 34 34 34 34 34 34 33 34 35 35 35 36 36 37 37 38 38 39 39 39 40
8 8 7 7 7 9 9 10 12 14 16 19 22 24 27 30 33 36 40 44 47 49 50 49 48 45 42 39 36 33 31 31 32 30 30 30 30 30 30 30 31 32 32 33 33 34 34 35 35 36 37 37 38 38
8 10 12 13 14 15 16 18 19 20 23 26 29 31 34 37 40 43 46 49 49 50 50 47 44 41 37 33 31 29 29 29 28 28 29 29 29 29 29 29 29 30 30 30 31 31 32 32 33 34 34 35 36 36
11 13 16 17 19 21 23 25 27 29 30 33 35 38 41 43 45 47 50 50 50 48 45 43 41 37 33 29 28 28 28 28 28 28 27 27 27 28 28 28 28 29 29 30 30 31 31 32 32 32 32 33 33 33
16 18 20 23 24 26 27 29 31 33 36 38 41 43 45 48 48 49 50 48 46 44 43 41 39 36 32 30 29 28 28 27 27 27 27 27 27 27 27 28 28 28 29 30 30 30 30 30 30 31 31 31 31 31
21 22 25 28 30 32 33 35 36 38 40 41 43 45 46 47 48 47 45 43 42 41 41 39 38 35 33 31 30 29 28 28 27 27 27 27 28 29 29 30 29 29 28 28 29 29 29 28 28 28 28 27 27 28
25 27 30 32 34 35 36 37 38 39 40 42 43 44 44 44 43 41 40 40 39 38 38 37 35 34 32 31 30 29 29 29 29 29 29 29 28 28 29 28 28 28 28 28 27 26 26 25 25 25 26 26 27 27

GFSWCAN_250_spd_090.txt.gz
Wind_Speed
34 32 31 30 28 25 25 25 25 25 25 26 28 30 31 31 31 31 33 36 36 36 35 26 27 29 28 28 28 31 32 31 34 35 38 40 42 41 42 47 50 54 57 61 63 61 65 68 74 69 67 68 70 73
33 31 30 30 29 28 27 27 28 30 31 32 33 34 35 35 35 34 36 38 38 42 44 28 32 31 30 29 29 31 33 34 33 35 37 38 40 39 42 44 46 48 52 58 62 62 63 63 66 68 64 62 64 69
32 31 31 31 31 29 31 32 34 36 38 38 39 40 41 40 39 39 37 34 40 46 45 29 34 30 30 29 30 30 32 33 32 32 35 37 38 39 40 42 41 41 44 51 51 56 59 61 64 61 64 66 65 64
30 30 31 32 32 32 35 37 37 39 40 40 40 40 40 40 39 38 38 38 39 43 42 33 32 34 33 33 33 33 33 36 35 37 38 39 40 40 41 41 41 40 45 41 41 44 45 47 49 51 54 58 61 58
28 30 31 31 34 36 36 35 34 34 34 34 34 34 34 35 36 36 36 37 38 40 42 34 33 31 36 36 35 35 35 35 34 34 37 41 42 42 42 43 41 40 42 42 42 41 41 40 45 47 50 50 53 55
28 28 30 32 32 29 27 28 28 28 28 28 30 31 31 32 32 32 31 32 37 39 39 38 38 34 34 37 37 37 36 32 32 34 38 40 42 43 44 43 41 43 44 40 41 40 40 44 46 45 49 52 54 57
26 28 28 27 24 23 23 21 21 20 21 22 25 26 28 29 30 31 36 40 37 37 38 38 37 34 33 35 35 36 31 29 33 36 38 40 42 43 43 40 41 42 43 43 45 40 43 41 44 45 48 52 55 57
25 23 21 21 21 18 17 16 14 14 15 18 22 24 26 28 29 32 34 35 37 36 37 37 36 33 32 35 35 35 32 32 33 36 38 39 41 43 41 41 43 43 43 43 43 41 43 42 43 43 45 49 53 56
21 16 17 16 16 15 12 9 8 11 13 15 18 20 22 24 27 29 31 32 34 35 37 38 35 35 35 32 31 28 27 31 35 37 38 38 38 38 40 42 42 42 42 42 42 41 41 39 39 41 42 46 50 53
13 13 12 11 11 9 7 6 7 11 13 15 16 17 18 21 24 26 27 28 30 33 36 36 36 36 34 30 29 27 29 30 35 37 37 35 38 39 42 43 42 43 43 42 41 40 39 40 41 42 44 47 50 52
10 8 6 5 5 4 4 4 6 10 15 18 20 20 19 20 20 23 26 28 31 34 32 34 35 36 32 30 31 29 28 29 32 33 31 32 36 39 42 42 42 42 42 43 43 43 44 44 44 46 47 48 49 51
6 5 4 2 3 5 6 9 9 9 12 15 19 22 22 23 23 23 24 26 28 27 28 30 33 33 32 31 29 29 28 26 24 24 24 28 35 40 43 42 42 42 42 43 43 44 45 47 48 49 50 49 49 50
4 5 5 7 9 10 9 10 13 15 15 16 17 19 21 21 22 22 22 23 24 24 25 25 26 31 33 31 30 28 24 24 24 22 21 31 38 35 34 34 35 36 39 41 42 43 45 45 45 46 47 49 49 50
11 10 11 13 14 13 13 14 16 16 16 17 17 20 21 21 20 20 20 20 20 21 22 21 22 26 28 28 29 31 30 29 27 28 32 35 33 30 31 32 34 36 39 42 44 44 44 45 46 47 48 49 46 45
15 16 17 18 18 17 17 18 18 19 19 20 20 21 20 19 18 18 17 17 17 17 18 18 19 20 22 25 28 29 28 27 31 35 34 28 29 30 34 35 39 43 43 44 47 47 48 49 50 48 45 46 48 50
19 21 22 21 20 21 21 21 21 21 22 22 21 23 23 23 22 21 20 19 18 17 15 13 12 11 13 15 15 18 19 19 18 20 24 26 28 32 34 35 37 41 44 48 50 51 51 51 50 49 51 51 51 49
22 22 24 24 25 25 25 26 25 24 24 24 25 23 23 24 24 23 21 20 19 17 16 16 16 16 16 17 16 17 17 19 26 30 35 36 37 41 44 45 46 48 51 52 52 53 54 54 53 51 49 48 47 46
27 25 26 27 28 29 31 32 30 29 28 28 28 28 26 26 26 25 23 21 19 17 15 13 12 12 13 14 16 17 19 21 24 28 33 37 40 42 43 46 48 50 51 51 50 49 48 48 49 50 49 48 48 48
31 30 32 34 36 35 35 35 34 33 31 31 29 29 29 29 28 27 25 24 22 20 18 15 13 11 9 8 8 11 15 18 20 23 26 28 30 32 35 36 38 38 40 41 43 44 45 46 46 46 45 45 46 46
33 31 34 36 38 35 33 34 34 32 31 31 30 29 30 31 31 29 27 25 22 19 15 12 10 8 6 5 7 10 12 14 18 21 23 26 28 29 31 33 35 37 38 38 39 39 40 40 40 40 41 42 43 43
37 36 34 33 34 33 31 30 31 31 31 32 31 30 29 27 24 22 21 19 15 12 9 7 7 7 7 7 9 12 15 17 20 22 24 26 29 31 33 35 36 37 39 40 42 43 43 44 44 45 46 46 46 46
35 35 34 34 36 36 37 37 36 33 30 27 26 24 22 19 16 13 11 10 7 6 6 7 9 12 14 16 19 21 24 27 31 34 36 38 41 43 44 45 46 47 48 49 49 49 50 50 51 51 52 52 53 53
37 39 40 39 37 35 33 29 26 24 21 19 17 15 12 9 7 6 6 6 9 12 13 13 16 19 22 25 28 30 32 34 36 39 41 43 46 48 50 51 51 52 53 53 53 53 53 52 53 53 53 53 53 52
38 38 36 33 29 26 24 22 19 16 14 11 9 7 7 6 7 8 10 13 16 17 20 23 27 30 32 35 35 36 36 36 36 39 41 44 46 48 49 51 51 52 51 51 51 51 50 49 48 48 47 47 47 47
33 30 27 24 21 19 15 14 12 9 8 6 6 6 6 9 11 14 16 20 23 27 30 33 36 38 39 38 37 37 36 36 36 36 38 41 43 45 47 48 48 48 48 47 47 46 45 44 43 43 42 42 42 43
24 21 19 16 13 10 7 5 5 4 4 4 7 10 13 15 17 21 25 29 32 36 39 43 46 47 47 45 42 39 37 36 36 37 38 39 40 40 41 42 43 43 42 42 42 42 42 42 42 42 42 42 42 42
15 12 10 7 5 2 1 1 2 3 6 10 14 17 21 23 26 29 33 37 41 44 47 50 51 51 51 47 43 39 37 35 36 36 36 36 37 37 37 37 37 36 37 37 37 38 39 39 39 39 40 40 41 41
8 6 4 2 2 3 4 6 8 11 14 17 21 24 26 29 33 36 41 43 47 50 52 53 53 52 48 44 40 37 35 34 34 34 34 34 34 33 33 33 33 33 34 34 35 36 36 37 37 38 38 38 39 39
3 1 4 6 9 10 12 14 16 18 21 24 26 29 32 36 40 43 46 49 52 54 56 56 53 49 45 41 36 33 32 32 32 32 32 31 31 31 32 32 32 32 32 32 33 33 34 34 35 36 36 37 37 38
4 6 9 11 13 15 16 19 21 25 27 29 32 35 38 42 45 48 50 53 54 56 54 52 49 46 43 38 34 32 32 32 31 30 30 29 29 30 30 30 30 31 31 32 32 33 33 33 33 33 34 34 34 35
10 11 14 17 19 20 22 23 25 27 30 33 36 40 43 46 48 50 53 54 54 52 50 48 47 43 40 36 34 33 32 30 30 30 29 29 29 29 30 30 31 31 31 31 31 31 31 31 31 32 32 33 33 33
15 17 19 22 25 27 29 29 30 33 36 39 41 45 46 49 51 52 51 50 49 47 46 44 42 41 38 36 34 32 31 30 30 29 29 29 30 31 31 31 31 30 30 30 29 30 29 29 29 29 29 29 29 29
22 25 27 28 30 31 32 33 36 39 41 43 45 46 48 49 49 49 47 45 43 42 42 41 40 38 36 35 33 32 31 30 30 30 30 31 31 31 31 31 30 30 30 29 29 28 27 27 27 26 26 26 26 27

GFSWCAN_250_spd_093.txt.gz
Wind_Speed
52 44 44 42 37 34 31 30 28 27 26 24 23 23 22 21 22 26 28 29 26 29 26 20 18 24 22 20 21 21 23 25 26 32 36 39 40 40 42 42 39 39 38 40 42 49 55 56 58 58 63 59 61 64
48 43 43 40 36 34 32 31 31 30 30 29 28 28 27 28 27 27 30 30 29 34 33 23 21 22 22 21 21 20 20 24 30 35 34 36 39 40 39 38 36 38 39 40 44 49 54 55 56 57 61 58 57 63
46 42 41 38 35 34 33 33 33 33 32 32 32 32 33 31 29 30 29 28 32 39 32 31 24 18 23 24 22 19 22 26 28 31 34 36 36 36 37 37 37 37 38 42 43 45 51 57 57 60 57 56 52 59
43 40 38 36 34 33 32 33 35 35 34 35 35 37 37 36 35 34 34 33 35 35 33 32 24 28 24 27 23 21 25 27 30 31 32 33 34 34 34 35 35 36 39 41 40 40 42 50 56 58 60 58 56 53
40 37 36 33 32 34 34 33 33 34 36 39 40 41 40 39 38 38 36 35 34 35 34 32 30 30 31 26 27 23 26 27 32 34 35 35 35 34 35 34 36 36 37 39 38 39 42 43 47 49 51 54 56 57
35 34 31 31 34 31 31 32 32 33 33 35 36 35 36 34 33 32 29 31 36 35 36 32 31 35 33 29 29 28 26 26 27 31 34 35 37 37 35 35 38 37 40 40 35 38 35 40 41 42 43 44 49 51
31 29 29 31 28 29 27 25 27 28 28 31 31 31 33 31 28 28 35 36 34 33 36 32 35 36 33 29 29 29 27 27 29 31 33 35 36 37 37 38 39 40 42 40 38 37 37 39 40 39 39 40 44 47
26 27 25 25 25 22 20 19 19 20 21 25 27 28 29 28 28 29 34 31 32 34 34 32 35 34 32 33 30 29 29 29 30 31 33 35 35 34 34 39 41 43 42 40 37 37 39 38 38 38 38 41 43 46
24 21 18 19 18 16 14 12 12 14 16 18 21 23 24 26 28 31 32 31 30 30 30 32 35 34 34 34 30 29 29 31 33 34 35 33 32 34 39 40 39 40 41 41 39 40 40 41 39 40 39 41 43 45
18 14 12 13 11 10 8 7 8 9 12 15 17 19 22 24 25 26 26 26 27 28 28 31 34 34 35 32 29 29 30 30 32 31 32 31 31 34 37 39 41 41 42 42 41 41 41 42 40 42 42 41 43 46
10 7 7 7 6 6 6 5 5 7 10 13 15 16 18 19 19 19 20 25 25 26 27 30 30 28 31 29 27 27 28 30 32 32 31 29 30 33 36 37 37 37 37 38 38 40 39 40 40 40 41 41 43 45
6 4 5 4 3 3 4 6 7 7 7 11 17 19 21 22 23 25 25 24 23 23 26 27 28 29 32 27 23 25 26 25 25 24 23 27 32 33 34 34 35 33 36 37 38 39 40 42 43 44 45 46 47 49
5 5 7 6 6 6 5 7 8 11 11 10 11 13 16 17 19 20 20 21 21 20 22 25 29 33 32 26 25 25 24 21 18 17 24 31 34 31 27 29 28 27 30 32 33 35 38 40 41 43 44 45 46 48
8 9 10 10 11 10 9 10 10 12 12 12 13 13 14 14 15 14 13 14 15 17 19 24 29 33 33 29 26 24 22 19 18 20 26 26 22 20 20 22 23 25 27 31 33 35 36 38 39 40 42 43 44 45
13 14 14 15 15 15 14 14 15 15 15 15 15 14 14 13 13 12 12 14 15 16 18 21 27 32 31 28 25 25 24 23 26 30 26 21 21 20 21 22 25 26 28 31 34 36 37 39 41 42 43 43 45 47
19 20 20 20 20 20 20 20 19 18 18 17 16 17 18 18 17 17 17 17 16 16 16 18 21 25 29 30 31 30 30 31 30 26 23 26 29 29 29 30 32 33 35 38 40 41 42 43 44 44 45 44 43 43
22 23 24 24 24 24 25 25 24 23 23 23 22 20 20 20 20 18 17 17 16 17 18 19 20 20 22 23 26 28 30 28 30 31 31 33 34 35 36 38 41 42 43 43 44 46 48 48 47 47 48 51 53 54
26 27 27 27 28 29 29 27 27 27 27 27 27 27 26 25 25 23 22 20 19 16 17 16 15 15 15 15 16 16 17 19 24 28 30 32 35 39 41 43 43 43 45 47 48 49 51 53 54 55 55 55 55 52
30 30 30 31 33 34 34 35 34 33 33 32 33 33 33 32 32 30 27 25 23 21 20 17 15 12 10 9 10 9 9 10 14 19 24 27 32 35 40 43 47 49 50 50 51 51 51 50 50 49 49 49 50 51
32 35 36 37 37 38 39 38 37 36 37 37 37 36 35 33 32 29 27 25 24 21 19 16 13 10 7 5 5 6 8 12 14 17 20 23 26 28 32 35 37 39 41 43 45 46 48 49 50 50 51 51 52 53
35 39 40 40 39 39 39 39 39 39 38 36 34 32 30 28 26 25 23 22 19 16 14 13 11 10 8 7 7 9 12 15 17 20 23 25 29 31 35 37 39 41 43 45 46 47 49 50 51 51 52 52 53 53
37 39 39 39 42 40 40 39 36 34 33 30 29 27 25 23 20 18 18 16 14 13 12 10 11 12 14 15 17 19 22 24 27 30 33 36 38 40 42 44 45 46 47 48 48 49 49 50 50 50 50 50 50 50
38 39 41 42 41 38 35 32 30 27 26 24 22 19 17 17 16 15 13 13 14 16 17 17 19 22 24 26 28 29 30 30 32 34 37 39 42 44 46 48 49 49 49 47 46 44 44 44 43 44 44 44 44 44
42 42 39 37 35 32 29 26 24 23 20 17 16 14 14 14 11 11 13 16 18 20 23 26 29 33 35 35 35 33 32 31 31 32 35 37 41 43 45 46 47 46 46 46 44 43 42 41 40 40 39 39 39 39
38 36 33 31 28 25 22 19 17 16 15 13 11 10 10 11 13 15 18 22 26 30 33 36 39 42 44 43 42 40 37 34 31 32 33 36 38 39 41 42 42 43 42 41 40 40 39 39 38 37 37 36 36 37
31 29 26 24 21 18 16 14 12 10 9 8 7 9 13 16 19 22 25 28 32 37 41 45 48 51 50 48 44 41 37 34 33 33 34 36 37 37 37 35 36 36 36 36 36 37 37 37 37 37 37 37 37 38
23 21 19 16 13 11 10 8 6 5 6 9 13 17 20 23 25 28 32 36 40 43 46 49 51 51 51 48 44 39 35 34 34 34 34 34 34 34 34 34 32 32 33 34 34 34 35 35 36 37 38 38 38 38
15 13 12 10 8 7 6 6 6 9 12 16 19 22 25 27 30 34 37 40 44 48 50 53 53 53 51 46 41 36 34 32 32 32 33 33 32 32 32 32 32 32 32 32 33 33 33 34 35 36 36 37 37 37
10 9 7 6 5 6 6 8 10 13 16 20 22 25 28 31 34 38 41 46 48 51 54 56 54 51 48 44 40 36 34 32 32 31 30 29 30 30 30 30 30 31 31 31 32 33 33 34 35 36 36 36 37 37
5 4 3 4 5 7 9 12 15 18 21 23 26 29 32 36 39 42 46 49 52 55 55 54 52 49 47 43 39 36 33 32 31 29 29 29 28 28 29 29 30 31 32 33 33 33 34 34 35 35 35 35 34 34
1 2 5 8 11 13 16 18 20 22 24 27 31 34 37 40 43 46 50 52 53 53 52 50 48 46 44 42 37 34 33 32 30 30 29 29 29 29 30 30 31 31 31 31 32 32 32 32 32 32 32 32 31 31
8 10 12 15 18 22 24 25 26 28 29 33 36 38 41 44 47 50 50 51 52 50 48 46 45 43 41 39 36 35 34 33 31 30 29 29 29 30 31 31 31 31 30 30 30 30 30 30 29 29 28 28 28 27
14 16 17 20 25 28 30 30 31 33 35 38 40 43 45 47 49 52 51 49 48 46 44 43 43 41 39 37 36 35 34 32 32 31 30 30 31 31 31 31 31 30 30 30 30 29 28 27 26 26 26 26 26 26

GFSWCAN_250_spd_096.txt.gz
Wind_Speed
64 61 57 56 52 45 42 40 36 33 31 31 28 24 22 22 21 21 21 19 19 19 18 19 21 20 19 18 17 16 17 20 23 27 32 35 38 39 40 41 41 40 43 41 41 44 47 49 51 52 53 54 57 59
60 58 56 54 49 42 41 38 35 33 33 33 31 29 27 26 24 24 24 21 20 24 18 17 19 19 16 18 16 15 16 21 26 29 31 34 39 41 45 46 45 43 41 40 41 44 46 49 51 52 54 54 56 58
55 54 53 51 45 41 40 36 35 34 33 34 33 32 30 28 28 29 27 27 29 25 17 20 16 16 22 15 16 16 18 22 26 29 33 36 39 43 46 45 38 37 39 40 39 42 43 47 52 53 54 52 60 62
50 50 49 45 40 38 37 35 35 34 34 34 35 33 32 30 30 30 28 30 33 28 27 21 21 25 19 20 17 18 19 22 26 27 31 35 37 42 41 40 36 37 38 37 39 39 40 43 47 50 53 53 54 57
45 44 42 38 36 36 36 35 33 32 34 35 35 33 33 32 31 32 30 28 29 29 26 26 27 24 25 24 19 19 22 23 25 30 30 33 38 39 38 38 36 37 39 38 38 43 45 48 47 48 51 52 54 54
39 37 34 32 32 35 33 31 31 32 34 34 35 36 36 37 35 35 35 36 37 34 30 30 29 28 29 27 24 21 24 23 26 30 34 36 38 39 40 41 39 40 43 44 49 45 47 44 42 42 46 47 48 50
32 30 28 29 32 28 29 29 29 31 34 36 37 37 36 35 34 35 40 39 36 33 32 32 31 35 36 26 25 23 26 27 28 29 32 35 37 38 35 36 38 42 44 45 43 41 39 35 35 39 43 44 44 47
26 24 26 26 24 27 24 25 28 29 31 32 32 33 33 31 31 33 38 34 34 32 30 32 36 34 31 29 28 26 28 29 29 32 34 34 33 34 37 39 40 44 44 45 41 36 35 36 40 38 39 41 41 43
22 22 20 21 23 19 21 22 23 24 25 28 27 26 25 27 32 36 36 33 31 29 30 31 35 32 30 30 29 28 26 30 30 30 31 32 32 36 38 39 41 42 41 37 35 33 34 36 38 38 41 43 44 44
19 17 18 18 17 16 16 15 16 17 17 18 21 23 25 27 29 31 31 26 27 28 27 31 33 31 30 31 31 31 28 30 32 32 32 33 34 36 36 38 39 40 41 40 39 39 38 39 39 38 37 39 42 43
15 15 13 13 12 10 9 10 10 11 13 15 17 17 18 19 21 20 17 20 26 27 26 30 30 27 30 30 31 31 28 29 32 32 31 31 33 35 36 35 35 36 37 38 38 38 39 39 40 41 41 41 44 46
13 13 12 10 7 6 6 8 10 10 9 10 13 15 17 17 17 19 23 27 26 24 25 28 27 28 29 30 28 28 28 28 30 31 32 33 33 33 34 32 31 33 35 38 40 41 41 43 44 45 45 45 45 46
15 13 12 9 8 8 8 8 9 12 13 12 10 10 15 16 18 20 20 20 20 21 22 25 26 27 27 29 27 24 21 24 25 25 29 33 34 33 32 30 31 30 30 33 35 39 41 42 44 46 46 45 45 45
15 13 13 12 12 13 12 12 12 14 14 14 13 11 13 13 13 13 13 14 16 18 20 23 25 27 28 29 27 27 27 25 25 28 32 32 28 27 28 27 28 30 31 32 32 33 34 36 38 40 42 43 44 45
17 17 16 16 16 16 16 16 17 17 18 18 17 17 16 16 17 16 16 17 19 20 21 24 26 26 27 28 24 22 22 24 29 29 22 15 16 17 19 21 24 28 30 33 34 36 38 39 41 43 44 46 47 48
20 21 21 21 21 21 20 20 20 21 21 21 20 20 20 20 20 20 20 20 20 21 22 24 26 28 29 27 26 29 30 29 25 21 19 18 18 19 21 23 25 27 29 31 33 35 36 38 39 39 40 42 43 44
23 24 24 23 23 24 25 24 24 25 24 23 24 23 24 24 23 23 22 21 20 20 20 21 23 27 27 29 27 24 23 24 25 23 21 21 22 25 27 30 32 34 36 38 39 40 40 40 40 39 39 39 39 39
30 29 29 28 27 29 30 30 30 30 30 30 29 29 30 29 28 27 26 25 22 21 20 20 21 23 24 25 24 24 24 25 25 27 29 32 35 37 39 41 41 42 42 44 46 47 47 46 46 46 46 47 48 48
34 34 33 33 34 35 37 38 37 37 36 35 34 33 35 35 33 31 30 27 24 21 21 20 19 19 19 19 21 24 26 28 30 31 33 34 35 37 38 40 42 44 45 47 48 49 49 50 50 51 53 53 54 54
38 39 41 41 41 42 42 43 43 42 41 39 39 38 37 36 35 34 31 27 25 23 22 20 16 14 12 10 13 12 13 15 17 20 23 24 27 30 33 35 38 41 43 45 46 47 48 50 50 50 50 50 50 50
43 45 45 46 46 46 45 43 41 41 39 38 37 35 34 32 30 28 26 23 21 19 17 15 12 9 5 1 2 6 10 14 17 20 23 26 31 33 36 39 42 44 45 46 47 48 48 49 49 50 51 51 52 52
46 47 48 46 46 44 42 41 39 38 36 34 31 29 27 26 24 23 23 22 20 18 16 14 12 11 11 12 12 14 16 19 22 25 29 33 38 41 44 46 48 48 49 49 49 49 49 49 50 50 51 51 51 51
45 45 46 45 43 40 38 36 34 32 30 29 27 25 24 23 22 21 18 18 19 19 19 20 21 22 23 23 24 22 21 21 24 28 32 36 40 43 45 47 48 48 47 45 44 43 42 41 41 41 42 43 43 43
45 45 42 40 38 35 32 30 28 27 27 25 23 21 19 18 18 17 18 19 20 21 23 26 29 32 33 33 31 27 25 25 24 27 31 36 39 42 44 45 44 44 43 42 41 40 40 39 37 36 36 37 38 38
42 40 38 35 33 29 26 25 24 21 20 20 18 17 16 16 16 18 19 21 24 28 32 34 37 40 42 42 39 34 31 30 27 27 30 33 35 36 37 38 38 36 35 35 35 35 35 35 35 35 35 35 35 36
36 34 31 29 26 23 21 20 18 16 16 17 15 15 15 17 19 20 23 26 30 33 37 41 44 46 46 46 44 37 31 27 27 28 31 33 32 31 31 33 33 31 30 31 31 32 32 33 33 34 34 34 34 35
29 27 24 22 20 18 16 14 13 12 13 13 13 15 17 19 22 25 29 32 35 38 41 45 48 50 50 48 43 37 31 29 29 30 31 31 32 32 30 29 30 30 29 28 29 30 30 30 31 33 33 34 34 35
23 21 18 16 15 13 11 9 9 10 11 13 15 17 20 23 26 29 32 35 39 42 45 48 50 51 49 46 42 38 34 31 30 30 30 29 29 28 28 28 27 28 28 28 28 29 30 30 31 32 33 33 34 35
17 15 13 12 10 8 7 8 8 10 12 14 17 20 23 26 30 33 35 39 43 45 49 51 52 51 48 45 41 38 35 32 31 28 27 28 28 28 27 27 27 28 28 29 29 30 31 31 31 31 32 33 33 34
13 10 8 7 6 6 7 8 9 12 14 18 21 23 26 29 33 36 39 43 45 49 51 52 50 49 47 45 42 40 36 34 33 30 26 24 24 26 27 26 27 28 29 29 29 30 30 31 31 31 31 31 32 32
7 5 3 2 4 7 9 12 14 16 19 22 25 28 30 33 36 39 42 45 47 49 50 50 49 46 44 43 41 38 35 33 32 29 27 26 26 25 26 27 28 28 29 30 30 30 30 30 31 31 31 30 30 29
3 2 3 6 9 13 16 19 21 23 25 26 29 34 37 38 39 43 44 47 49 50 49 48 47 45 43 42 39 36 33 31 29 28 27 27 27 27 27 28 29 29 29 29 29 29 30 30 30 29 28 28 27 27
8 8 11 14 17 20 23 26 29 32 32 30 32 37 40 39 41 45 46 48 48 48 46 45 44 42 41 41 38 35 33 31 30 29 28 28 28 28 30 30 30 30 30 30 29 29 29 29 28 27 27 27 26 26

GFSWCAN_250_spd_102.txt.gz
Wind_Speed
79 78 76 74 71 68 66 63 61 59 56 51 47 44 43 39 36 32 23 24 19 17 19 20 19 16 15 17 17 16 17 18 21 23 26 28 30 32 33 35 43 43 43 43 44 46 46 44 42 40 38 39 40 42
75 74 72 71 69 66 64 62 61 58 54 50 47 43 41 39 35 36 26 24 23 23 24 21 21 17 19 18 17 15 17 17 18 21 23 26 29 31 33 38 43 45 45 47 46 46 43 43 42 41 43 44 46 47
70 70 69 67 66 64 62 60 58 55 52 49 45 41 40 39 35 36 31 26 25 24 24 25 21 23 23 22 24 15 19 18 18 18 21 23 27 30 35 39 42 43 46 47 44 45 43 41 40 43 46 47 48 50
64 65 63 63 62 60 58 57 55 53 52 47 44 41 38 38 36 35 33 29 29 26 25 27 27 30 29 28 22 19 20 19 19 19 20 24 28 32 34 37 40 42 43 44 43 41 44 41 43 45 48 48 52 53
58 58 58 57 56 55 55 53 52 51 49 46 43 40 39 38 36 35 32 32 32 28 24 31 33 32 32 28 24 23 21 20 20 20 22 23 27 28 31 34 38 40 42 45 40 43 46 46 46 47 51 52 55 57
46 46 46 46 47 48 48 47 47 47 45 42 41 39 38 37 35 33 34 36 31 24 23 28 32 32 32 27 26 24 24 23 22 21 22 23 26 28 30 34 35 35 33 32 38 41 42 45 50 47 49 53 56 59
40 39 40 40 40 40 41 41 41 39 39 38 38 37 37 36 35 35 35 29 31 29 29 28 28 29 28 27 26 27 28 24 22 23 21 23 26 28 30 32 30 28 25 27 37 41 43 47 49 45 50 52 55 57
35 36 36 36 36 36 36 34 33 34 34 35 35 37 37 34 33 34 35 33 31 30 27 31 31 28 27 26 26 29 30 28 28 24 23 23 27 28 32 30 28 25 26 26 35 40 43 45 44 44 46 48 51 53
30 31 31 31 29 29 29 30 30 29 31 34 36 36 32 29 35 36 32 29 29 28 32 32 33 32 31 32 30 31 31 32 33 26 23 25 25 29 30 31 30 28 30 33 37 39 42 44 44 43 45 48 50 52
27 26 25 25 26 26 26 28 29 30 31 33 32 27 26 34 35 32 31 29 30 31 33 34 37 36 38 36 36 37 35 34 34 27 25 28 26 28 29 28 29 29 30 34 38 42 45 46 46 47 49 51 54 56
23 23 24 24 25 26 26 25 25 27 30 27 25 23 28 34 30 28 27 29 29 32 34 32 34 35 35 34 34 34 35 32 31 27 28 29 28 27 27 30 31 32 35 38 41 44 46 47 48 49 52 54 55 56
24 24 24 23 23 23 24 22 25 26 25 23 25 27 27 27 23 22 24 25 29 30 31 32 32 32 32 31 30 28 29 29 30 28 30 32 29 29 31 32 34 34 35 36 38 41 44 45 45 46 48 51 53 56
23 23 22 21 21 21 20 21 21 21 21 21 21 20 20 21 22 25 28 29 30 29 29 28 27 27 26 27 25 27 28 28 27 28 31 34 31 30 30 29 31 33 34 35 36 38 41 43 44 44 44 46 49 54
22 21 21 20 19 18 17 17 18 17 16 17 19 20 19 20 20 19 17 17 19 22 23 23 25 24 22 23 23 26 28 29 31 33 32 24 23 26 28 29 30 31 32 33 34 36 37 39 41 43 45 46 48 49
23 22 21 19 18 17 18 18 18 18 19 19 18 18 17 17 17 18 18 18 20 20 19 20 21 19 19 22 25 28 29 31 31 31 24 21 22 24 28 29 29 31 32 33 36 38 40 43 44 45 46 47 48 50
24 22 21 21 21 20 20 20 20 21 23 22 22 20 19 18 18 18 20 20 21 20 20 19 18 17 18 22 25 27 27 26 26 23 22 21 19 19 22 26 30 33 36 39 41 42 43 45 47 48 49 50 51 52
24 24 23 23 24 23 24 23 22 23 24 24 23 24 23 22 21 19 18 17 16 15 14 12 13 16 18 20 20 19 17 17 17 18 19 18 18 21 24 27 29 32 35 38 40 41 43 44 46 47 48 49 50 51
25 24 24 26 27 27 26 26 26 25 25 25 24 25 25 23 22 21 20 20 18 17 16 15 16 16 17 17 15 13 12 13 15 16 19 21 23 25 27 29 31 33 35 36 38 40 41 42 44 45 46 47 48 49
30 31 32 32 32 32 31 30 29 29 29 28 29 30 30 28 27 25 24 21 20 18 17 15 14 13 13 13 14 15 16 17 18 20 22 26 27 30 32 35 38 40 42 43 45 47 48 49 51 51 51 51 52 52
36 36 37 37 37 36 36 36 35 35 35 35 35 36 36 35 34 31 30 28 26 23 21 18 15 13 11 10 10 11 13 17 21 25 29 33 35 37 39 41 42 43 44 45 44 44 43 43 44 45 46 46 46 48
38 41 41 42 43 43 42 42 42 41 41 41 41 41 40 38 36 33 31 28 25 22 19 16 14 12 9 6 4 5 9 15 21 27 31 34 37 40 43 45 46 46 46 46 46 45 45 44 44 45 45 46 46 46
45 45 46 46 45 46 46 46 45 44 42 41 39 37 35 33 30 27 25 22 21 19 16 13 9 7 5 6 12 17 21 25 28 32 36 40 44 47 49 49 49 48 47 45 43 41 40 39 39 38 38 40 41 43
50 50 50 49 47 46 45 44 42 39 38 35 34 32 30 27 25 23 21 19 18 16 14 13 12 11 10 13 13 15 18 23 29 36 41 46 51 53 55 55 54 52 51 49 45 43 41 40 39 39 39 39 40 41
50 50 48 46 44 42 41 38 35 34 31 30 28 27 25 23 20 19 17 16 17 19 20 21 21 22 22 23 23 24 25 26 28 31 33 37 42 44 46 46 45 44 42 40 38 37 37 37 37 37 37 38 38 39
47 45 43 42 41 36 35 32 30 28 26 24 23 21 20 18 17 17 17 17 19 21 23 24 26 29 31 34 33 31 30 29 28 27 29 33 36 38 38 38 38 39 38 37 34 33 33 33 34 34 36 37 37 38
42 40 40 38 35 32 29 27 25 24 21 19 17 16 16 15 16 17 16 19 21 22 24 27 30 33 35 37 37 35 33 29 27 25 26 29 31 33 33 33 33 33 33 32 31 31 31 31 31 31 31 33 34 35
39 37 36 34 30 25 22 21 20 18 17 15 13 13 14 15 18 18 21 22 25 26 28 30 33 35 37 40 39 38 36 33 31 29 30 31 32 31 30 30 31 31 29 29 29 29 29 29 30 30 31 32 33 34
35 33 29 25 22 20 17 16 15 14 13 12 11 12 14 16 18 20 22 23 27 29 32 33 35 38 40 42 41 40 37 36 34 33 32 32 33 31 29 28 28 28 29 29 29 29 29 29 30 31 32 32 32 33
29 26 22 18 16 14 13 12 12 11 10 10 11 14 17 19 22 26 29 30 31 32 34 35 37 40 42 43 42 40 38 37 37 35 33 33 33 31 29 28 27 28 28 29 29 29 30 31 31 31 31 31 32 32
23 20 17 16 14 11 9 8 7 6 7 9 11 14 17 19 22 25 29 32 33 33 35 37 40 42 43 43 41 39 38 38 37 36 33 33 33 32 32 31 29 28 28 28 29 29 30 31 31 31 31 31 30 30
17 16 14 12 9 6 4 2 3 6 10 13 15 18 22 26 27 28 31 33 36 37 39 40 43 43 42 42 40 40 40 39 37 35 33 32 32 31 30 31 31 30 29 28 29 30 30 30 30 30 31 30 30 30
14 12 10 7 5 4 3 6 8 12 15 19 22 25 29 32 32 34 35 38 40 41 40 40 42 40 41 41 40 40 40 39 37 35 33 32 32 31 31 30 30 30 30 30 30 31 30 30 30 29 29 29 29 29
8 7 7 7 9 10 10 13 16 18 22 25 28 31 35 37 39 40 39 41 43 41 39 40 40 40 41 42 41 40 40 38 37 35 34 33 32 32 31 31 31 31 30 30 31 31 31 31 31 30 29 29 28 28

GFSWCAN_250_spd_105.txt.gz
Wind_Speed
80 80 78 78 76 74 73 70 66 64 63 60 58 55 51 45 41 42 35 29 28 23 24 20 19 19 19 19 18 18 16 17 18 19 21 22 24 28 32 35 32 38 41 42 44 47 46 43 46 45 40 40 40 39
75 75 76 76 76 76 74 71 70 68 66 64 59 56 51 45 40 40 39 29 27 27 24 22 22 21 23 21 22 17 19 18 17 17 19 22 24 25 27 31 35 41 39 38 41 44 43 44 46 43 40 40 40 40
71 71 72 71 72 72 72 71 69 67 64 61 58 53 50 44 40 39 39 33 27 27 25 25 22 27 27 27 25 18 20 18 16 16 18 21 22 24 26 29 35 40 40 40 40 41 41 42 41 39 37 39 42 43
64 64 64 64 67 66 67 66 64 62 60 58 55 52 48 44 40 40 39 33 29 28 28 26 29 30 31 30 23 18 23 20 17 16 17 18 22 24 26 29 35 38 39 39 40 41 41 40 39 38 38 41 44 44
58 59 60 60 61 60 61 60 59 59 57 54 52 50 47 43 40 40 39 34 32 29 26 27 33 32 31 28 24 22 23 23 20 17 15 18 20 23 25 29 32 35 36 33 35 38 41 40 39 41 40 42 46 47
50 52 53 54 54 54 55 55 55 53 52 52 51 49 46 43 41 39 39 37 29 29 27 29 33 38 31 28 27 25 25 25 22 18 18 18 19 21 24 28 31 33 32 28 35 35 34 33 34 40 38 41 44 47
43 42 42 43 45 47 48 49 49 49 49 49 48 46 45 43 40 38 40 31 31 31 30 30 32 34 32 30 28 26 27 26 26 21 18 18 20 21 24 28 29 30 25 26 25 26 25 29 35 40 34 39 42 46
37 36 35 35 37 38 40 42 43 42 43 42 42 43 42 39 36 38 38 33 31 30 31 31 32 30 31 30 30 29 27 28 28 25 18 17 21 21 24 26 26 26 24 24 25 22 24 30 35 36 34 38 42 45
30 32 33 34 33 34 34 34 35 35 36 37 38 37 34 33 37 39 36 28 27 29 31 30 31 32 32 30 30 30 28 28 26 26 22 20 23 21 22 23 24 27 27 26 24 22 24 32 35 35 36 38 42 44
29 30 31 31 31 31 31 31 32 33 33 34 32 27 29 35 38 34 29 25 26 31 32 31 33 32 31 30 30 30 28 27 28 27 25 26 25 24 21 23 24 27 31 31 30 30 32 32 35 36 37 38 41 44
26 26 27 28 28 28 28 29 30 31 29 25 24 28 34 34 32 28 22 25 27 30 33 30 33 33 32 32 31 30 32 31 31 28 26 26 28 25 22 24 26 28 31 35 35 35 35 37 38 40 42 44 46 48
24 25 25 26 27 28 28 28 27 27 30 32 32 33 32 28 22 17 21 26 28 34 39 35 36 36 36 34 34 33 31 30 31 25 26 29 28 25 24 24 27 27 28 31 34 37 39 40 42 43 43 44 46 49
25 25 25 25 25 24 24 26 27 26 25 25 25 22 20 17 14 19 27 34 35 31 28 29 30 30 31 30 29 24 25 29 28 27 28 28 23 23 25 24 23 23 24 28 31 33 36 38 39 39 40 41 43 46
23 23 23 23 23 23 24 23 22 21 21 19 19 19 19 20 25 28 26 20 19 23 24 24 26 27 25 24 21 24 29 27 27 23 21 19 19 21 23 23 22 22 23 25 28 30 33 35 36 38 40 41 43 44
24 24 22 22 23 23 22 20 19 19 18 16 14 16 17 16 14 12 16 19 21 20 19 20 20 19 19 19 20 25 24 22 19 19 18 17 18 19 21 23 25 25 25 26 28 29 31 34 36 39 40 42 44 46
24 23 22 21 21 22 21 20 19 20 19 18 18 19 18 17 18 18 17 15 14 14 16 15 14 12 11 15 17 18 16 14 14 16 17 19 20 21 23 26 28 29 30 32 33 35 37 39 42 43 44 45 47 49
23 23 22 22 22 22 21 20 20 20 19 19 18 18 19 19 19 17 17 17 17 16 15 14 16 18 17 16 13 11 11 12 12 15 18 21 23 25 29 32 33 33 34 36 37 39 40 42 43 45 46 48 49 50
24 23 24 23 23 23 23 22 21 22 23 22 22 23 23 22 21 21 20 19 18 18 17 16 15 12 10 10 9 9 11 12 12 15 18 22 25 27 27 29 30 31 33 34 36 38 40 42 43 44 45 47 48 49
27 28 28 28 28 28 28 26 26 26 26 26 26 26 26 26 25 24 22 20 19 19 18 17 14 12 9 8 7 8 9 10 12 14 18 20 23 25 28 30 33 35 37 39 41 42 43 44 44 45 46 47 48 48
33 33 33 33 33 33 32 30 29 29 30 30 30 31 31 31 29 28 26 25 24 24 22 19 17 15 12 9 6 4 5 9 13 18 23 27 30 33 35 37 39 40 43 45 46 47 49 49 51 52 53 54 55 55
36 37 36 37 36 36 34 33 34 35 34 36 38 38 38 36 35 33 32 30 28 26 24 22 19 17 13 10 7 6 7 12 18 23 28 33 36 39 40 40 40 37 36 36 35 34 32 30 32 34 36 38 41 44
42 42 43 44 43 43 42 42 41 41 41 41 41 40 38 36 34 32 29 26 23 20 16 12 8 5 3 4 9 14 19 23 28 33 36 39 43 44 46 47 48 48 46 41 37 34 32 31 32 32 33 35 38 40
48 47 46 45 46 44 44 44 42 41 39 36 35 34 33 31 29 28 26 22 20 18 16 15 14 13 13 14 15 16 18 23 27 32 36 41 44 46 47 46 45 44 43 41 38 36 34 33 33 33 34 34 35 36
46 47 47 46 46 44 42 39 37 34 32 32 31 29 28 26 24 24 22 19 21 20 18 18 17 18 19 20 23 24 26 28 27 28 30 32 34 36 38 39 38 38 38 37 37 36 35 34 33 32 33 33 34 35
47 45 44 42 41 39 36 33 31 29 27 26 25 24 23 21 22 21 19 20 20 20 19 19 20 22 25 29 31 33 33 34 33 31 30 30 30 32 34 34 34 34 34 32 31 31 31 30 30 30 31 31 32 33
43 39 38 36 34 32 29 28 26 25 23 21 20 20 19 19 18 18 17 17 19 20 21 24 27 30 33 34 38 40 39 38 37 34 30 30 30 32 33 32 30 29 28 28 28 27 27 26 27 28 28 29 30 31
38 36 33 31 29 26 24 22 21 20 19 17 15 15 15 17 17 17 20 22 25 26 27 28 30 32 35 38 40 41 40 39 37 33 31 30 30 31 32 31 29 28 27 26 25 25 26 26 27 27 28 29 30 31
33 30 27 24 22 20 19 19 18 16 14 14 13 14 15 17 18 21 23 24 26 28 29 30 31 33 36 39 40 42 41 39 37 35 32 31 30 31 31 29 29 29 28 27 27 27 27 27 27 28 29 30 31 32
27 25 22 19 16 15 14 13 12 12 11 10 11 13 15 17 18 20 23 24 26 27 30 32 34 34 37 40 41 42 42 41 39 37 34 31 31 31 30 29 29 29 28 28 28 28 28 28 29 29 30 31 32 31
22 19 17 15 14 13 11 9 7 6 6 6 7 9 12 15 17 20 24 27 29 31 33 36 36 35 38 40 41 42 42 41 39 37 35 34 32 32 32 31 30 30 30 30 29 30 30 29 29 29 30 30 31 31
18 16 14 13 11 8 6 3 0 3 6 9 12 14 16 20 23 27 30 31 33 35 35 36 36 36 38 39 40 42 42 42 40 37 36 35 33 33 32 31 31 30 29 30 31 31 31 30 30 30 30 30 31 30
14 13 13 11 8 6 5 5 6 9 12 14 17 20 22 25 29 32 34 36 38 39 37 36 37 38 39 40 40 42 42 42 41 39 37 36 35 34 33 32 32 31 31 31 31 31 31 31 31 31 31 31 31 31
14 12 10 9 8 8 9 10 11 14 17 20 23 25 28 30 32 36 38 40 42 41 41 39 40 40 40 41 41 42 42 42 41 40 38 37 36 35 33 31 31 31 31 31 32 33 32 32 31 31 31 31 31 31

GFSWCAN_250_spd_108.txt.gz
Wind_Speed
77 75 73 73 70 66 65 65 63 61 59 56 52 50 46 44 43 44 42 39 38 36 28 29 25 22 22 22 21 19 19 17 16 15 17 18 20 23 27 28 28 31 33 37 44 46 47 47 50 47 50 49 46 43
74 72 72 72 73 72 71 70 67 63 60 58 56 54 51 49 47 47 48 40 39 38 28 29 27 26 25 25 23 18 21 20 17 15 17 18 19 20 22 25 26 28 33 38 42 41 42 43 44 44 44 44 42 40
72 72 71 70 71 71 69 69 69 67 66 64 61 60 57 55 53 51 50 42 37 38 33 27 32 29 29 28 23 20 24 22 20 15 15 17 18 18 21 23 25 31 35 37 38 39 40 39 40 42 43 43 40 39
68 69 69 70 71 70 70 69 67 66 64 62 61 59 57 55 52 49 48 40 38 39 34 26 31 32 31 29 25 20 25 24 22 15 15 16 16 18 21 23 27 30 34 38 38 36 37 38 38 38 41 40 38 37
62 63 64 66 67 68 70 68 66 65 64 63 62 59 57 54 51 48 45 41 38 39 35 31 30 34 32 29 27 22 25 26 22 16 15 15 17 18 20 24 27 30 32 35 37 37 37 36 38 39 40 37 35 36
53 55 56 58 60 61 63 62 62 62 60 60 58 57 55 53 50 45 44 42 38 37 37 33 33 35 33 29 28 25 24 28 23 18 16 15 17 17 20 23 26 28 31 32 32 32 34 36 38 38 37 35 35 34
48 48 49 51 52 53 54 55 56 56 56 55 54 53 52 50 47 44 44 40 38 37 37 34 35 32 32 32 29 27 24 26 24 21 16 17 18 16 18 20 23 27 27 26 26 29 31 36 36 36 36 35 36 35
44 44 43 42 43 44 46 47 48 49 49 49 49 49 48 46 43 42 43 42 37 37 36 34 34 31 31 32 31 27 25 24 24 21 17 19 20 18 20 19 22 24 25 26 25 27 30 30 29 29 34 37 36 38
38 40 39 37 36 37 39 40 42 44 45 44 44 44 42 39 40 43 42 37 34 35 36 34 32 29 30 31 32 30 27 28 25 24 19 20 22 19 18 19 20 22 25 27 31 31 30 27 27 29 35 39 37 39
31 33 34 34 34 34 34 36 37 37 38 39 37 33 33 37 40 38 34 30 31 36 36 34 31 29 28 30 33 32 29 29 27 25 22 22 22 19 19 20 20 23 26 27 32 35 34 33 34 38 41 40 41 42
29 31 33 34 34 33 31 31 31 31 30 29 28 29 33 35 36 29 26 28 33 37 34 30 29 28 27 29 31 32 31 29 28 24 24 25 23 21 20 20 21 23 26 27 30 35 37 38 40 41 41 41 42 45
29 30 31 31 31 31 30 29 28 29 30 31 31 33 33 31 25 23 28 31 34 35 32 28 29 28 28 28 29 30 31 30 29 27 27 26 22 20 23 22 22 22 24 27 30 34 37 41 42 42 42 44 45 46
26 27 28 29 29 29 29 29 30 30 30 29 28 25 20 15 18 26 29 32 33 27 23 27 29 27 28 27 29 29 29 30 30 31 28 26 22 20 22 22 22 22 24 27 31 33 36 40 43 43 44 44 44 46
27 27 27 27 27 27 27 27 25 23 22 20 20 19 19 21 26 30 29 24 23 26 27 27 26 25 26 26 26 24 27 27 24 22 20 22 24 23 26 27 25 24 25 27 29 32 34 36 39 41 42 43 43 44
25 26 26 27 26 25 24 23 23 22 22 22 23 22 23 25 26 24 20 22 23 21 20 21 21 21 21 21 21 23 21 17 15 18 20 22 22 25 27 26 25 27 29 30 31 32 34 36 38 39 39 41 43 45
26 26 26 25 25 24 24 23 23 22 21 22 23 21 19 18 16 17 19 17 16 15 15 14 14 15 16 17 17 15 14 15 16 17 19 19 21 24 27 27 26 26 28 31 33 35 37 40 41 42 44 45 47 49
28 27 25 24 25 25 26 25 23 25 26 25 24 22 21 21 20 19 19 18 17 17 18 19 19 18 15 13 11 11 11 13 14 17 18 20 23 25 26 27 28 29 29 30 32 35 37 40 42 43 44 46 47 48
28 26 26 26 26 25 25 24 24 23 24 24 24 24 24 22 20 20 20 22 20 19 17 14 12 10 9 9 9 9 9 11 12 13 15 18 20 23 25 28 30 32 33 34 34 35 36 38 39 41 42 43 44 44
30 30 29 28 28 28 27 26 27 27 26 25 25 25 25 24 24 23 22 21 20 20 20 19 17 15 13 11 9 8 6 5 6 10 14 18 22 25 28 30 32 33 34 35 36 37 38 38 39 40 41 41 42 42
33 33 32 32 33 32 32 31 30 30 30 30 29 29 29 28 27 27 27 26 26 26 25 23 21 19 16 13 11 8 4 4 9 14 20 24 27 30 32 34 36 36 35 34 34 35 37 39 41 42 44 46 47 48
35 36 36 35 34 34 33 33 33 33 34 35 35 35 35 34 34 34 34 33 31 28 26 22 19 17 13 9 7 7 9 12 17 21 25 29 31 33 35 36 36 35 34 32 30 28 28 28 32 36 40 43 45 47
41 41 41 40 39 38 37 37 37 38 40 41 41 40 39 36 34 33 31 28 23 19 16 12 9 5 2 3 5 10 14 18 23 27 31 33 35 38 41 41 41 39 36 33 31 29 28 28 29 32 34 37 40 42
47 46 47 46 45 43 44 43 43 43 43 41 40 38 36 33 30 27 25 22 20 18 15 13 11 9 10 12 15 17 18 19 21 23 25 27 28 30 33 35 36 36 35 35 34 33 31 30 29 29 29 31 34 36
49 49 48 48 47 45 44 42 40 39 37 36 34 32 30 28 27 25 23 22 21 19 18 18 18 18 18 19 22 25 26 27 29 29 29 27 26 29 31 32 33 32 32 32 33 33 32 31 29 28 28 29 30 32
48 46 45 43 41 39 38 35 34 32 30 29 28 26 25 25 25 24 23 21 19 20 21 21 21 22 22 23 26 30 32 34 36 37 34 32 30 30 32 33 32 30 28 27 28 28 28 28 27 27 26 26 27 28
42 41 40 37 36 34 32 31 30 28 26 25 25 24 23 22 21 21 20 20 21 22 22 21 22 25 26 29 32 33 35 36 37 39 38 35 33 31 32 34 32 29 26 25 25 24 25 25 25 25 26 27 27 28
38 36 33 31 30 29 28 27 26 25 23 21 20 19 18 18 17 18 20 21 22 21 21 23 25 27 28 30 33 35 37 38 40 41 39 36 34 31 30 33 32 29 27 25 24 23 23 23 23 24 26 27 28 28
32 29 28 26 26 26 25 23 20 19 18 17 16 15 14 15 15 16 18 18 19 19 21 23 26 29 31 32 33 35 38 39 40 41 40 36 33 31 30 31 31 29 28 25 25 24 24 24 24 24 25 26 27 28
27 24 22 22 21 19 18 18 17 14 13 11 10 11 11 12 13 14 15 16 18 21 24 26 28 29 31 33 34 35 38 39 41 42 42 39 33 31 30 30 29 29 28 27 25 25 25 25 26 26 27 27 28 29
23 21 19 18 18 17 15 14 11 8 6 6 6 7 9 11 13 15 18 21 24 26 28 30 32 31 31 33 35 36 38 39 40 42 42 40 37 32 31 30 30 29 28 28 28 27 27 27 27 27 27 27 28 29
17 16 16 15 14 11 9 7 4 1 2 5 7 9 11 14 17 19 22 25 27 30 32 34 35 35 33 35 37 37 38 39 41 42 41 41 39 35 33 31 30 29 28 28 28 28 28 28 29 29 29 29 29 30
13 12 11 11 9 7 5 4 5 6 9 11 13 14 16 18 21 24 26 28 32 34 36 36 37 38 37 37 39 40 39 40 41 41 42 41 40 37 35 32 30 29 29 29 29 29 29 30 30 31 31 30 30 31
13 12 11 9 8 7 9 10 9 10 14 16 18 19 22 23 25 26 28 31 33 36 38 40 40 41 41 39 39 41 41 41 41 41 41 40 39 38 36 33 32 31 31 31 30 30 30 30 30 31 31 31 30 31

GFSWCAN_250_spd_111.txt.gz
Wind_Speed
74 71 70 74 74 72 70 70 69 67 67 67 63 61 58 56 54 52 45 42 39 36 35 34 38 35 31 28 25 22 21 18 16 15 16 14 14 16 20 23 26 29 31 37 40 42 44 45 48 51 48 54 49 52
75 74 72 69 69 69 68 69 68 65 62 59 57 55 54 51 50 49 46 41 40 38 36 37 36 39 34 30 26 24 22 21 18 15 15 17 16 16 17 21 24 27 29 33 37 39 41 42 45 47 49 50 51 52
72 73 72 70 69 68 65 64 63 63 62 61 60 57 56 53 52 51 48 42 39 39 38 37 36 37 37 32 28 25 25 22 22 17 16 17 17 17 18 20 22 25 29 32 38 40 41 42 44 44 44 46 49 49
69 71 70 69 68 67 67 66 63 61 61 58 56 54 53 51 49 47 45 39 38 39 40 38 38 38 36 35 30 28 25 25 25 19 17 18 18 18 19 19 22 25 30 33 35 36 37 38 39 41 42 43 43 44
66 67 67 66 65 66 66 65 64 65 62 60 59 58 56 53 51 50 47 43 42 40 40 39 38 39 35 34 33 29 27 25 28 22 19 19 19 18 18 20 22 25 27 30 33 34 34 35 35 38 38 38 38 38
60 63 64 64 63 64 66 66 66 65 65 65 64 62 60 58 56 54 54 50 47 41 41 40 38 39 35 32 34 32 30 27 25 24 21 19 19 17 18 18 21 23 26 27 30 33 34 34 35 35 37 39 40 39
53 56 58 60 62 63 65 66 67 66 67 67 66 64 63 60 57 55 55 51 46 43 41 40 39 38 35 33 33 34 30 27 25 25 23 21 21 19 18 19 20 23 25 27 28 29 30 32 34 35 37 36 36 35
47 48 50 52 55 57 59 61 63 64 64 65 64 62 60 56 52 53 52 49 45 42 39 40 38 37 34 33 33 34 32 27 26 23 22 22 22 20 18 19 20 23 25 26 28 28 29 30 31 33 36 36 35 34
45 45 45 46 48 49 50 52 53 55 55 56 55 52 49 46 48 52 49 44 40 38 39 39 38 36 34 32 33 33 31 28 26 25 21 20 22 22 18 20 20 21 23 25 28 30 31 33 34 34 35 36 37 37
40 42 43 43 42 42 42 42 43 45 47 45 43 40 40 46 46 44 43 40 37 37 40 39 36 34 32 31 31 32 31 28 25 23 22 23 23 21 20 20 22 23 24 25 27 30 33 37 38 36 36 37 37 39
35 36 36 37 38 38 37 36 36 36 36 36 37 39 41 41 42 40 36 33 34 39 41 35 34 30 28 29 30 30 28 27 26 23 24 23 24 19 21 23 23 23 25 27 28 30 33 37 39 39 40 41 42 46
30 31 32 34 35 35 35 32 32 34 35 37 38 39 40 40 36 30 29 32 38 39 35 30 30 27 28 28 28 27 26 26 25 23 23 22 19 21 23 25 27 26 26 28 30 31 33 36 38 41 44 46 49 49
30 31 32 34 35 34 33 32 31 31 32 33 34 35 32 29 24 27 36 41 34 27 23 27 27 25 25 26 26 25 24 24 22 25 24 24 24 25 27 28 30 31 31 32 33 33 34 37 39 40 43 48 49 49
27 28 29 31 32 32 31 29 29 28 27 27 26 25 23 24 31 35 31 22 19 22 24 25 24 23 23 23 22 21 21 21 23 25 26 26 28 30 30 29 33 34 35 34 34 34 34 35 37 39 40 43 46 47
26 27 29 29 29 29 28 27 27 26 25 24 24 26 29 31 27 22 19 22 24 24 23 22 21 21 20 20 18 19 21 22 22 23 24 27 29 28 29 29 31 32 32 32 33 35 34 35 36 37 39 41 43 45
25 26 27 27 28 28 27 27 27 28 29 31 31 29 26 24 21 20 22 21 20 18 16 17 18 19 19 19 17 16 16 17 19 19 21 24 24 26 27 27 28 30 31 32 33 34 35 36 36 38 40 42 44 46
28 28 28 28 28 28 28 27 27 27 26 24 23 23 22 20 19 19 18 17 17 17 17 16 15 14 13 13 15 15 16 15 16 18 19 19 20 22 23 24 26 28 30 32 32 33 34 35 37 39 41 43 44 45
31 31 32 32 32 31 31 30 30 29 28 27 26 25 25 23 22 20 18 16 16 14 14 14 14 15 15 14 12 9 9 9 10 11 14 17 18 20 23 26 29 31 32 34 35 36 37 37 38 40 42 43 45 46
33 32 31 30 30 30 30 29 28 27 25 25 23 23 22 22 22 21 20 20 19 19 19 19 17 16 15 13 10 9 8 8 9 12 15 17 20 22 25 27 29 31 33 34 35 36 37 37 38 38 39 40 41 43
33 33 32 31 31 32 31 30 29 28 27 26 25 26 25 26 25 25 26 25 25 24 23 21 19 18 16 13 11 8 5 5 8 12 16 20 24 27 29 29 30 30 30 31 31 32 33 35 37 38 40 42 44 45
33 34 33 33 33 32 32 31 31 32 32 32 31 31 31 31 31 30 30 30 28 25 24 22 20 18 13 9 5 3 7 10 14 17 20 23 26 29 31 33 34 35 35 34 32 30 29 30 32 36 41 43 44 45
34 35 35 34 34 35 36 36 37 37 37 36 36 35 34 34 33 32 31 28 25 22 19 15 11 8 7 5 5 5 8 11 14 15 17 21 23 25 28 30 32 34 34 32 31 31 31 31 31 32 35 36 38 41
41 41 40 40 40 39 39 39 40 39 39 37 37 37 36 34 32 29 26 22 20 18 16 14 13 11 10 11 13 15 18 21 23 23 25 26 29 29 28 28 31 31 32 31 30 31 32 32 32 31 31 32 32 35
44 43 43 43 42 42 39 40 39 40 39 39 37 35 33 30 28 26 25 23 22 20 17 17 16 16 14 15 19 22 24 27 29 29 29 30 32 32 30 31 33 33 32 30 29 30 30 30 31 31 30 30 30 31
47 47 46 46 43 43 41 40 38 37 35 33 32 31 30 28 27 26 24 22 20 20 18 16 16 16 18 21 23 25 27 30 32 34 33 34 35 35 33 32 32 33 34 33 29 28 29 30 30 29 29 29 29 30
45 45 44 42 41 40 38 37 34 33 31 31 30 27 26 25 24 23 21 20 18 18 18 19 22 23 25 26 27 28 28 31 34 36 36 37 37 37 34 32 33 32 32 32 30 27 27 27 28 28 29 29 29 29
40 38 36 34 34 32 31 29 28 28 27 25 22 20 19 18 19 18 18 17 16 15 15 15 18 21 22 24 26 28 30 32 34 36 37 38 39 38 37 36 33 32 32 31 31 29 27 27 27 27 27 28 28 29
35 33 32 30 29 28 27 25 24 22 21 19 17 17 16 15 15 13 13 12 13 14 15 18 20 21 22 23 25 28 31 33 35 36 39 40 41 40 39 38 34 33 32 32 31 30 28 27 27 27 27 28 28 29
30 29 27 26 24 23 22 21 20 19 17 15 14 12 10 10 11 11 11 12 14 16 18 21 23 25 26 26 26 29 32 35 36 37 39 40 41 41 41 39 36 33 32 31 31 30 28 28 28 28 29 29 29 29
25 24 24 23 22 21 19 17 15 13 11 9 7 6 6 7 8 10 13 15 17 19 21 23 25 28 29 29 30 31 33 35 37 38 39 40 41 41 42 41 38 35 32 31 31 31 30 30 29 29 29 29 30 30
21 21 20 19 18 16 15 12 9 7 5 3 3 4 6 9 12 14 16 17 19 22 24 27 28 30 32 33 35 35 36 36 37 39 40 40 41 42 43 42 40 37 34 32 31 32 32 32 31 31 31 31 31 30
17 16 15 15 13 12 10 8 4 3 3 5 7 9 11 12 14 16 17 20 23 25 27 30 32 34 36 38 40 40 38 38 39 40 41 42 42 42 42 43 42 40 37 34 32 33 33 32 32 33 33 33 33 32
14 14 14 13 11 10 9 8 7 7 7 10 13 15 15 17 19 19 21 24 25 27 30 33 36 38 40 42 43 43 42 40 41 42 43 44 44 44 42 42 43 42 39 37 34 34 34 33 33 33 34 34 33 33

GFSWCAN_250_spd_114.txt.gz
Wind_Speed
73 73 76 76 75 75 73 72 70 66 64 62 61 58 57 55 54 53 52 54 52 48 47 44 43 42 39 34 32 30 27 25 23 20 19 18 16 15 14 16 17 25 26 31 37 42 43 44 45 49 52 53 55 54
71 71 72 72 72 71 70 69 68 66 64 61 59 56 55 54 54 54 55 50 47 46 41 43 42 43 40 36 32 30 28 26 24 22 20 19 18 15 16 16 17 20 24 30 34 37 36 36 39 43 48 50 51 47
71 70 72 70 70 70 69 68 67 66 65 63 60 59 59 58 57 55 50 46 45 44 42 44 42 42 40 35 33 30 28 27 25 23 22 21 19 18 18 17 18 20 22 27 31 34 33 35 39 43 47 49 45 50
70 69 70 69 70 70 68 65 65 64 63 61 61 59 58 56 54 51 51 48 48 48 45 41 40 38 36 34 33 31 27 27 27 25 22 23 21 21 20 18 19 20 23 26 30 34 34 36 39 41 43 44 41 45
69 69 69 69 68 68 67 65 65 64 62 60 59 57 55 54 55 53 50 48 46 45 43 40 36 35 35 32 34 32 29 27 28 25 23 23 24 24 23 21 19 20 23 26 28 30 33 34 35 37 39 40 39 39
65 67 67 67 66 64 64 64 62 61 59 60 58 56 55 55 54 49 50 50 43 42 41 40 38 38 37 36 36 33 29 29 27 26 24 25 24 25 25 23 22 20 22 25 25 27 30 32 33 34 35 38 38 38
60 62 64 65 65 64 63 63 61 58 58 57 56 54 54 52 50 50 53 49 45 44 45 43 42 42 41 39 37 35 30 30 29 25 24 24 25 26 26 25 24 21 20 23 25 26 28 30 32 31 33 35 35 36
53 56 58 60 62 62 61 62 61 60 58 58 56 55 54 53 53 56 56 51 49 48 45 45 46 43 41 40 37 34 30 29 29 25 23 24 25 27 28 25 26 23 21 21 23 25 28 30 31 33 35 35 36 38
46 49 52 55 58 59 60 61 61 59 59 56 57 56 55 55 57 62 57 53 51 48 46 48 46 46 39 39 36 31 29 29 29 25 22 24 25 26 32 24 26 25 24 22 23 27 29 31 33 35 35 35 37 38
41 42 44 47 50 53 55 56 56 57 57 56 56 56 58 62 63 57 57 54 48 47 46 50 43 43 38 36 32 30 28 28 28 24 24 26 27 28 26 23 27 27 25 24 23 27 29 31 34 37 38 39 39 40
39 39 40 42 44 45 46 47 48 49 49 49 49 52 56 56 53 50 46 43 41 43 47 43 39 38 35 32 30 28 27 27 25 24 24 24 26 23 25 28 29 28 27 26 27 27 30 32 34 37 39 42 41 42
34 35 37 38 38 38 38 38 39 41 42 44 46 49 50 47 43 38 33 36 39 42 43 39 36 34 31 28 26 25 25 26 25 22 23 20 20 26 28 29 29 28 29 29 31 33 34 34 35 38 40 42 42 44
30 30 31 32 34 35 35 35 35 35 38 40 39 41 39 35 30 30 35 40 41 41 34 28 29 29 25 25 23 23 24 23 22 22 21 19 23 24 26 26 26 28 29 30 33 35 37 38 37 38 40 42 43 44
27 28 29 30 31 33 35 34 34 34 32 33 33 32 29 30 33 37 39 36 31 23 22 25 26 24 21 21 21 20 20 20 22 22 20 21 22 24 26 29 30 31 32 34 37 38 38 37 38 38 39 41 42 44
27 28 29 31 32 32 32 31 29 28 28 27 26 28 31 35 33 28 26 20 21 22 24 22 21 19 19 19 18 18 18 21 21 21 22 23 26 28 29 31 32 33 33 35 34 36 37 37 37 38 39 40 43 44
25 25 25 27 28 29 30 29 28 27 27 30 33 32 29 25 22 20 21 23 23 21 20 18 16 16 16 16 17 18 19 19 21 22 23 24 25 26 28 29 29 29 30 31 32 34 35 36 36 37 38 40 42 43
26 27 27 28 28 29 29 30 30 31 30 27 24 23 22 21 24 26 24 20 19 17 16 15 13 13 14 15 16 16 16 16 16 16 17 18 20 22 23 24 25 26 28 29 30 31 32 34 35 37 39 40 42 45
30 31 31 32 30 29 29 29 29 26 24 25 24 24 25 25 24 22 20 18 16 15 15 14 14 14 13 12 12 13 12 12 12 13 14 15 17 19 21 23 24 26 27 29 31 33 34 36 37 38 40 42 44 45
32 33 33 33 33 32 29 27 26 28 29 28 28 27 25 23 20 19 18 17 17 17 17 16 15 14 13 11 10 8 6 5 4 7 10 12 15 18 21 23 25 28 30 31 33 34 36 37 38 39 40 42 44 45
31 32 32 32 31 29 29 29 28 28 27 25 23 22 22 23 23 22 21 21 21 20 20 18 16 15 12 10 8 5 2 1 4 8 13 17 19 22 25 28 31 32 33 33 33 33 33 34 36 38 40 42 43 44
29 30 31 31 30 30 29 28 27 26 26 26 26 26 26 26 26 26 26 25 24 22 21 18 18 17 14 10 6 2 3 5 8 10 14 16 17 19 20 23 26 28 30 31 32 31 32 33 34 35 36 39 42 44
30 30 30 30 31 30 31 31 31 31 30 28 28 28 29 29 29 29 28 27 25 25 22 18 15 12 10 10 10 9 9 10 12 14 16 18 19 22 26 27 29 30 29 30 30 29 30 31 33 34 35 35 35 36
32 32 32 32 32 32 33 33 33 32 33 33 33 33 32 32 31 31 30 27 23 19 17 16 15 13 13 13 13 13 15 17 20 22 23 25 26 27 29 30 32 34 34 34 33 31 28 28 30 32 32 32 32 32
35 35 36 37 36 37 36 37 36 37 38 37 37 37 35 33 31 29 29 26 23 21 19 18 16 15 14 13 14 15 16 19 22 25 27 30 33 33 33 33 33 33 35 36 35 33 31 30 29 31 31 31 31 30
39 39 39 40 40 40 41 40 40 40 39 37 34 33 33 31 31 29 27 25 22 20 19 17 15 15 16 17 18 19 21 23 24 27 29 31 33 35 37 36 35 33 34 34 34 34 33 31 30 30 31 31 31 31
46 45 45 44 44 43 41 40 37 35 33 32 30 29 29 28 27 26 24 21 19 18 18 17 16 16 17 18 18 18 20 23 26 30 32 33 35 37 39 39 39 38 36 34 33 34 34 32 31 29 29 30 31 31
44 43 42 40 40 38 37 35 34 33 31 30 28 26 25 24 23 21 20 18 17 15 14 13 13 14 15 16 17 18 20 23 25 29 32 34 36 38 39 40 42 40 37 35 34 33 34 34 33 32 30 30 30 30
39 38 36 34 33 31 31 31 30 28 25 23 22 21 20 18 17 16 15 13 11 9 10 11 11 13 16 18 18 19 21 24 27 30 32 35 37 39 40 42 43 42 41 39 36 35 34 35 35 34 33 32 32 31
34 32 30 30 29 27 26 25 23 21 20 19 19 18 15 13 13 12 9 7 7 8 9 10 13 15 19 21 23 26 28 29 30 31 33 35 37 39 42 43 44 44 44 41 38 37 35 35 36 36 35 35 34 33
29 28 27 26 24 23 23 22 20 19 17 15 14 11 9 8 6 5 5 6 7 10 12 15 17 19 22 25 27 30 32 34 35 36 35 37 39 41 43 44 45 45 45 43 41 39 38 36 35 36 36 36 36 35
25 24 24 22 22 20 19 16 15 14 11 9 8 6 3 1 3 5 7 8 10 13 15 17 21 23 26 28 30 33 35 38 39 40 41 40 40 42 44 45 45 44 44 44 43 42 41 39 37 37 37 36 36 36
22 21 20 19 18 16 15 13 11 9 7 5 4 3 4 5 7 9 10 11 13 16 19 21 23 26 29 32 35 37 39 41 44 45 45 44 42 42 43 44 44 44 44 45 44 44 43 41 39 38 37 36 36 37
19 18 18 17 17 16 15 14 12 10 9 8 9 10 11 12 13 15 13 15 18 20 23 25 28 30 33 36 39 42 43 44 46 48 50 50 47 45 44 43 42 43 44 46 46 45 44 43 41 39 38 38 37 37

GFSWCAN_250_spd_117.txt.gz
Wind_Speed
75 80 83 82 81 81 80 78 80 82 82 82 85 89 82 72 69 64 61 60 55 48 48 46 44 44 39 37 38 36 36 37 35 29 27 24 23 19 15 14 16 20 24 28 33 37 39 39 43 48 49 50 53 55
72 75 76 79 79 76 76 77 75 71 70 69 70 67 66 64 59 55 52 51 50 48 43 43 44 41 38 36 38 36 34 35 33 29 26 23 23 22 20 17 18 19 23 26 29 32 36 37 40 42 44 48 52 55
70 73 73 75 77 78 76 74 72 72 70 68 65 64 62 59 54 49 46 46 45 44 43 44 43 39 38 37 38 36 33 33 31 28 26 23 23 24 23 20 18 19 22 24 26 30 32 33 36 38 40 43 47 50
72 70 68 69 74 74 73 73 72 70 68 65 62 61 59 56 53 49 47 45 45 45 43 44 41 41 41 39 36 33 33 31 28 26 27 26 24 25 25 25 20 21 22 23 24 28 31 34 36 39 43 44 46 46
71 72 68 67 70 71 70 70 70 68 66 63 61 58 56 54 51 48 47 47 46 46 43 41 42 40 38 36 35 34 32 29 27 27 28 27 23 25 26 27 22 24 22 24 24 26 29 30 34 39 41 42 42 42
66 69 68 67 67 65 67 68 66 65 63 61 59 57 54 53 50 46 46 45 44 44 44 42 38 38 37 37 36 34 33 30 29 29 27 26 23 26 27 29 25 26 24 24 24 25 27 27 30 33 36 39 39 40
62 66 67 68 68 66 65 63 63 65 64 62 60 58 55 52 49 49 49 47 45 45 43 41 42 42 40 37 36 34 34 32 30 30 28 26 23 27 27 30 26 28 25 25 26 25 26 28 28 31 33 34 36 38
55 60 63 65 66 65 63 63 61 61 61 62 61 60 58 55 55 55 53 50 46 45 44 44 45 41 41 39 37 35 34 32 31 28 27 27 24 25 28 32 27 28 26 26 26 26 27 29 30 30 31 34 35 37
49 53 55 58 62 63 63 62 61 60 58 57 57 55 54 53 56 55 51 47 44 43 42 46 45 44 41 40 38 36 33 32 30 27 29 27 24 26 30 30 26 26 27 29 27 27 27 29 30 32 33 34 37 39
43 46 49 52 55 57 58 59 61 59 58 57 55 53 53 57 55 52 48 44 40 39 42 50 47 47 42 40 38 35 32 31 28 27 28 27 25 24 27 29 28 28 30 32 30 27 27 29 31 32 33 36 38 39
39 41 44 47 49 51 53 55 57 57 56 56 55 57 57 56 52 48 46 41 40 42 49 53 48 46 43 37 34 32 30 29 29 27 26 24 19 23 28 31 30 30 29 31 31 30 29 29 29 31 33 36 38 40
37 38 39 41 43 46 48 49 51 54 55 55 54 55 55 52 49 45 40 39 42 47 53 53 43 41 38 31 29 28 28 29 28 23 23 20 22 25 28 29 30 31 30 30 31 32 32 32 32 32 32 35 38 40
34 36 36 37 38 40 42 44 46 47 48 49 49 50 47 46 41 38 39 43 47 51 50 38 34 34 30 26 25 24 28 26 24 21 19 19 23 23 26 28 30 31 32 31 32 33 35 36 36 37 36 36 36 38
30 32 33 33 33 34 35 36 37 39 40 40 41 41 41 36 36 39 43 45 43 38 31 29 28 27 23 22 23 24 24 22 21 18 17 22 21 22 24 25 28 28 29 30 31 32 34 35 37 39 40 40 40 39
28 29 29 30 31 32 32 33 34 33 33 34 35 35 32 35 37 36 37 34 29 24 25 26 23 20 20 22 22 21 20 20 19 18 18 19 20 22 23 24 26 28 30 32 33 35 37 37 38 38 39 40 42 43
27 28 29 29 30 32 32 31 30 29 29 29 30 30 32 32 31 29 25 19 21 22 22 20 19 19 19 19 19 18 16 16 14 17 17 18 20 21 23 24 26 27 29 30 31 32 33 34 34 35 36 37 38 39
30 30 30 30 29 29 29 30 30 30 31 31 29 29 26 25 23 20 20 23 23 20 19 18 18 18 17 15 14 15 15 14 14 14 14 15 15 16 17 19 20 22 23 25 26 27 29 31 32 34 35 36 37 38
27 28 28 29 31 31 32 33 33 29 25 23 22 21 21 22 25 27 23 20 19 19 18 18 17 16 15 14 13 12 10 9 7 8 9 10 9 10 12 14 17 20 22 24 26 28 30 32 33 34 36 36 37 39
30 30 32 32 33 32 31 27 24 23 23 23 26 28 29 27 25 22 22 22 21 20 18 17 15 13 12 11 10 9 8 6 2 2 4 7 10 13 15 18 21 24 26 30 32 33 33 33 34 35 37 39 39 41
26 27 28 28 28 28 27 27 27 28 28 28 27 27 26 25 25 26 24 22 21 19 17 16 16 15 13 12 10 11 10 7 4 4 6 8 11 14 16 18 21 23 26 28 30 31 32 33 34 36 36 37 38 40
25 25 25 27 28 29 29 29 29 29 27 28 27 27 27 26 25 24 23 22 22 22 21 19 18 18 19 17 13 8 6 7 8 8 10 11 15 16 18 21 24 26 28 29 29 28 28 29 30 32 34 35 37 38
28 28 29 29 29 29 29 30 30 28 29 28 28 28 26 26 27 28 28 27 26 24 23 24 20 16 14 13 14 12 11 11 13 15 16 18 22 23 25 27 27 28 29 30 32 33 34 32 28 27 28 30 33 34
29 30 30 31 30 30 31 31 31 30 30 29 29 30 31 32 31 30 30 29 29 26 23 22 21 19 16 15 14 14 14 14 15 16 18 19 22 24 28 30 32 34 34 34 35 35 35 34 33 31 29 30 29 30
29 31 30 30 31 31 31 32 33 34 35 36 36 35 34 34 32 34 31 27 24 23 23 20 19 18 17 15 15 14 13 13 15 17 19 21 24 27 30 33 35 37 39 39 37 36 34 34 34 34 32 30 31 31
32 31 32 34 35 35 36 37 38 39 39 39 39 38 37 34 32 30 29 26 24 23 23 21 20 18 16 14 12 10 10 12 15 18 21 23 26 28 31 34 37 39 40 42 42 40 37 34 33 33 33 31 30 29
35 35 37 39 40 41 41 41 41 41 40 39 37 35 34 33 31 29 28 27 24 23 20 18 16 15 12 10 10 10 11 12 14 17 20 23 25 28 31 34 37 40 42 43 43 43 39 35 33 32 32 32 32 31
41 41 42 42 42 41 41 40 39 38 36 35 34 32 31 31 29 26 24 22 20 17 15 14 13 11 9 8 8 9 10 13 16 19 21 25 28 31 33 35 37 39 41 43 44 43 42 38 35 33 32 33 33 32
42 42 41 40 39 37 37 36 36 35 33 31 29 28 28 26 24 22 19 17 15 12 11 9 6 5 6 8 10 14 17 19 22 24 27 30 32 34 34 36 38 41 43 44 44 43 42 40 39 38 35 34 34 35
39 37 37 36 35 34 32 30 29 28 25 23 22 22 21 20 18 16 13 11 8 6 4 3 2 4 7 10 14 17 20 23 26 29 31 34 36 38 38 38 40 41 42 45 45 45 44 42 41 41 39 37 36 35
33 31 31 31 29 28 27 26 25 24 23 22 21 18 16 14 12 9 7 5 3 2 2 3 6 9 12 16 18 22 25 28 31 33 36 39 42 43 43 43 42 41 40 42 44 45 45 45 45 44 42 40 40 38
29 28 27 26 25 24 24 23 21 20 18 16 14 12 10 8 6 4 3 4 6 7 8 9 13 15 17 20 22 25 28 32 35 36 38 40 44 46 48 48 46 44 43 42 42 43 44 45 45 44 43 42 41 40
27 26 25 24 23 22 20 19 18 16 15 13 11 10 8 7 6 7 9 10 10 12 14 16 18 20 23 25 27 29 31 36 38 39 41 43 47 48 51 51 50 48 45 44 45 46 46 45 44 44 44 44 43 41
23 22 22 22 21 20 18 18 17 15 13 12 12 12 12 12 12 13 13 14 16 18 20 21 24 25 27 30 32 34 36 39 41 43 45 47 49 51 53 53 51 51 49 47 46 46 45 44 44 44 44 43 42 41

GFSWCAN_250_spd_120.txt.gz
Wind_Speed
70 72 73 74 76 77 76 78 74 73 73 74 72 72 74 71 70 69 65 67 68 72 72 70 66 53 47 43 41 40 37 36 35 36 34 30 28 27 18 18 19 16 19 25 28 30 33 34 34 36 40 43 44 45
70 71 72 75 76 79 80 76 74 79 77 74 75 72 66 64 64 68 73 71 64 65 67 61 54 46 43 41 39 37 35 34 36 36 34 31 30 27 23 15 20 21 20 25 30 33 35 37 37 38 39 41 47 53
70 70 72 74 76 76 78 80 81 78 79 80 81 78 74 72 69 66 68 68 62 59 54 52 51 41 38 39 38 35 36 38 37 34 33 34 32 28 26 21 18 22 24 24 28 33 36 38 39 40 41 43 44 43
69 68 70 72 72 75 76 76 75 72 68 66 67 66 64 61 57 56 55 54 53 50 49 47 41 39 38 38 36 36 37 37 35 32 33 35 32 29 25 27 20 22 25 26 28 30 33 36 39 41 43 43 44 45
68 68 71 70 70 72 72 74 72 70 69 68 67 64 60 55 53 54 52 50 49 47 45 44 41 38 37 36 35 36 35 32 32 32 35 35 33 30 28 28 26 24 24 26 28 30 31 35 37 40 43 44 44 44
64 68 71 68 67 69 68 69 70 71 70 68 66 62 59 57 54 51 51 49 47 44 41 40 37 37 34 36 37 35 34 34 35 36 37 37 34 33 30 29 27 27 25 25 27 29 30 33 36 37 39 40 43 43
60 67 70 67 68 68 69 70 70 69 70 68 66 63 60 55 52 52 50 47 43 40 36 34 34 35 36 39 38 35 36 37 36 35 35 36 35 34 31 32 28 28 27 26 27 28 30 31 32 33 35 38 40 40
53 61 63 63 66 69 68 68 70 68 67 65 62 61 59 55 51 51 47 44 41 38 37 38 40 41 41 39 37 37 38 39 37 37 37 35 34 32 34 31 28 28 28 26 28 28 29 30 30 31 33 36 39 40
49 56 59 59 62 67 68 67 67 66 66 64 62 60 57 55 52 50 46 42 40 40 43 44 43 42 41 39 39 40 41 39 36 37 36 33 31 30 31 30 29 28 28 27 29 30 29 29 28 30 32 34 35 37
44 49 52 52 56 63 67 68 68 64 63 61 61 60 59 57 51 50 47 44 43 43 46 46 44 43 42 41 41 41 39 40 37 35 33 30 29 29 29 30 31 30 28 28 28 28 29 30 26 28 32 33 35 35
40 43 45 46 50 55 59 64 66 64 62 62 62 60 58 54 52 49 45 42 42 43 48 46 47 45 44 41 39 38 40 39 35 32 28 26 27 28 29 29 29 29 29 30 29 28 29 30 29 28 31 33 35 37
37 39 41 43 46 48 52 56 60 64 65 62 60 58 55 52 49 44 39 39 41 46 54 52 48 43 41 38 37 39 38 35 32 26 25 24 27 25 27 28 28 30 29 29 30 30 30 30 31 30 30 32 35 36
33 34 36 39 41 43 45 47 52 57 59 59 57 54 52 47 42 40 41 44 49 56 54 47 40 40 37 35 35 35 34 29 26 24 22 24 25 21 24 25 26 28 29 29 30 30 30 32 33 33 33 33 33 34
31 32 33 35 37 38 40 42 46 49 50 52 50 49 48 45 44 46 47 49 51 47 45 40 38 36 35 32 30 29 29 25 23 20 20 21 20 20 21 22 24 25 26 28 29 29 30 31 32 34 35 37 38 38
29 31 31 32 33 35 38 39 41 42 43 43 42 43 45 43 42 43 45 48 45 40 38 33 32 32 28 26 26 26 24 22 18 17 18 19 18 18 18 18 20 21 23 25 27 29 31 33 35 36 38 38 39 40
29 30 31 30 30 30 31 33 35 36 36 37 39 41 38 38 40 42 43 41 37 29 28 29 28 24 24 25 23 22 18 16 16 16 14 14 14 15 16 17 18 19 21 22 24 26 28 29 31 32 34 35 35 36
30 30 31 32 31 31 31 30 31 32 34 35 34 30 35 36 37 34 31 26 24 28 27 24 25 26 21 18 17 16 16 12 13 11 10 11 10 10 11 12 13 15 17 19 21 23 26 28 31 32 33 34 36 37
28 30 30 31 32 32 33 33 33 32 31 29 29 31 29 27 25 22 22 28 27 25 24 23 21 18 17 16 14 13 11 9 8 6 5 5 4 5 7 9 12 16 19 21 24 26 28 30 32 32 32 34 36 37
28 29 29 29 30 32 33 31 30 28 27 24 21 21 23 24 27 30 29 26 24 23 21 19 18 17 16 14 13 11 10 9 7 7 6 3 3 6 9 12 14 18 20 22 25 26 27 27 30 32 33 35 36 35
23 25 25 26 26 25 25 26 25 24 23 24 27 28 29 30 27 26 26 24 23 22 21 19 17 17 16 16 15 14 13 12 10 5 2 2 4 7 11 13 16 19 22 24 27 28 29 30 30 31 31 32 34 36
23 23 23 24 25 25 27 27 27 28 29 29 28 27 28 28 26 26 25 23 23 22 22 22 23 22 20 19 20 17 12 10 9 8 7 8 10 13 17 20 22 25 27 28 29 30 31 31 30 31 31 29 28 30
28 28 29 28 28 28 28 27 26 25 25 25 26 26 27 27 27 27 26 27 28 27 27 26 25 25 23 18 16 16 13 9 9 9 10 11 13 15 17 19 22 25 27 30 32 35 34 34 33 31 31 31 30 28
29 28 28 28 28 29 29 28 28 29 30 31 31 30 28 28 29 28 30 32 31 29 28 26 24 21 20 18 15 14 13 13 12 11 11 12 13 16 20 23 26 29 32 33 35 37 38 37 36 33 31 29 30 31
27 28 27 28 30 31 32 32 32 32 32 31 30 31 32 34 35 34 32 32 31 27 25 24 22 20 20 18 16 14 12 11 10 9 10 12 14 17 21 23 26 29 32 34 37 39 39 40 39 38 35 33 31 31
27 28 30 31 30 30 30 31 32 33 34 35 36 37 37 36 35 33 31 29 28 27 23 23 21 20 18 16 12 10 9 7 6 6 8 11 14 17 20 23 26 29 32 35 38 40 42 42 42 41 38 35 33 32
28 27 28 30 31 32 32 34 36 37 38 38 39 38 38 36 33 31 29 27 24 24 23 21 19 17 14 11 9 7 4 4 5 8 10 12 15 18 22 24 27 29 33 35 38 41 43 43 43 42 41 39 37 35
31 31 32 34 35 36 38 38 40 39 40 40 38 36 34 33 31 28 25 26 25 22 20 18 15 13 11 9 6 2 2 4 6 10 14 18 21 23 26 28 29 32 34 36 37 38 42 45 45 45 44 44 42 40
35 35 36 37 39 40 40 40 40 39 37 36 34 33 31 29 28 27 26 23 19 17 16 14 11 9 6 4 2 3 6 10 13 15 18 23 26 28 31 34 36 37 39 39 40 40 41 43 45 47 46 46 45 43
39 39 38 39 38 38 36 34 31 30 28 28 28 27 26 26 24 22 19 18 16 14 11 9 7 5 5 6 8 10 12 14 18 20 22 26 29 32 35 38 42 44 45 42 40 40 41 42 44 45 46 46 45 44
37 36 36 35 34 34 33 31 31 30 30 29 27 25 24 22 20 18 17 14 12 9 9 8 8 8 9 11 13 17 18 20 23 26 28 30 33 36 39 41 43 47 49 49 47 45 44 45 46 47 47 47 47 44
33 33 32 31 31 31 30 30 28 26 25 25 25 23 22 21 18 15 13 11 11 10 10 11 13 14 15 16 19 23 24 25 28 31 32 34 37 40 42 44 46 49 52 51 51 50 49 48 48 48 47 47 47 47
30 29 28 28 28 27 26 25 24 24 24 23 22 21 19 17 16 15 13 13 12 13 14 16 18 21 22 22 24 27 29 31 33 35 37 39 40 43 45 47 50 52 53 53 54 53 52 51 50 49 49 48 47 46
27 26 25 25 25 25 24 23 23 23 21 20 19 19 19 18 17 16 15 15 17 18 20 21 23 25 28 28 30 31 34 36 38 40 41 43 45 47 49 50 53 55 55 55 54 54 53 52 51 51 51 50 49 47

GFSWCAN_250_spd_123.txt.gz
Wind_Speed
68 68 68 68 69 73 73 72 69 68 60 56 54 57 60 55 52 52 49 48 48 51 51 54 53 52 56 57 53 53 47 45 42 40 38 32 31 26 19 18 25 23 23 25 26 26 25 28 28 28 33 39 46 50
69 69 68 69 69 71 70 71 72 68 63 60 57 58 61 60 57 56 54 54 52 51 53 57 55 54 55 51 50 45 43 42 40 39 36 34 33 29 23 19 22 26 25 27 28 29 29 29 31 33 33 36 42 47
68 69 69 70 70 70 70 67 68 70 68 66 61 59 60 59 60 62 61 58 58 50 45 53 53 49 49 51 46 43 42 41 41 38 35 35 32 28 27 24 20 25 26 28 29 31 32 31 32 34 36 38 40 43
65 67 69 69 71 70 69 69 68 68 69 67 61 59 57 54 54 53 50 48 47 49 48 48 49 46 45 46 44 42 41 40 39 35 33 31 31 30 29 30 27 24 28 29 31 32 33 34 35 35 36 38 41 44
64 69 70 70 71 70 69 67 68 67 65 67 68 64 61 58 57 55 53 53 53 55 50 48 43 41 44 44 42 41 41 41 36 34 33 31 33 34 34 35 32 28 26 29 31 33 34 35 36 38 39 41 43 44
65 69 69 71 71 72 71 67 66 64 62 61 61 62 63 63 62 61 56 50 49 47 45 43 41 41 40 39 39 41 40 38 36 35 34 32 34 36 37 38 34 32 30 28 30 32 35 37 38 40 39 41 44 45
62 65 66 68 70 71 69 68 65 64 62 61 58 58 57 55 54 51 48 47 43 40 41 40 40 38 38 38 37 38 36 36 37 36 34 34 35 39 41 40 36 34 31 30 31 31 33 36 39 39 41 41 41 41
59 62 64 67 68 68 67 69 67 66 64 61 59 58 56 54 52 51 48 46 44 43 42 42 42 38 38 37 36 37 38 38 37 35 35 36 38 41 43 40 35 34 32 33 32 31 31 33 36 37 36 38 37 38
55 58 62 66 65 63 64 67 67 67 67 66 63 61 59 57 55 53 49 47 45 44 43 43 40 38 38 38 39 40 40 37 36 36 37 39 41 44 42 37 33 31 31 33 32 28 29 31 32 35 35 35 36 35
53 55 59 61 60 65 63 65 68 67 67 66 64 62 60 59 55 51 49 48 46 44 41 40 40 40 40 40 40 39 37 36 37 38 39 40 44 43 39 33 30 30 30 31 30 28 28 29 29 31 33 34 34 35
48 51 52 54 56 60 65 68 65 63 63 64 63 61 60 57 53 49 46 43 43 45 44 43 43 42 42 40 39 38 39 39 40 41 41 38 41 38 34 30 29 28 28 29 29 29 29 27 29 29 30 31 32 33
42 44 45 45 48 56 61 63 67 66 64 63 62 59 56 53 52 47 45 43 47 50 48 46 44 43 41 37 38 40 41 41 41 39 36 33 34 31 28 28 26 25 25 26 27 28 28 26 26 28 29 30 31 32
38 40 41 42 44 49 56 65 66 67 63 60 59 55 52 48 44 42 43 49 56 53 46 41 40 39 39 39 40 40 42 41 39 34 30 29 29 24 25 24 23 22 23 23 24 24 25 26 26 27 28 30 32 34
34 35 37 39 41 44 51 56 59 62 61 59 58 55 51 46 44 45 48 52 49 45 42 40 40 41 42 38 39 40 39 36 32 27 25 24 24 22 20 19 19 21 21 22 23 24 25 27 29 30 30 31 32 34
32 33 35 37 39 42 44 47 51 56 55 54 54 53 51 50 50 50 50 48 47 44 46 43 40 42 40 38 37 35 34 29 24 23 21 20 19 17 16 17 17 18 19 21 23 24 26 27 29 31 31 32 34 34
31 32 32 34 37 39 41 43 45 46 46 49 50 52 52 53 50 50 49 49 48 45 45 42 41 38 37 35 33 30 24 22 23 18 16 15 13 14 14 15 16 16 17 18 19 21 22 25 27 29 30 32 34 35
30 31 32 33 34 37 38 39 40 39 39 42 45 46 45 45 47 49 50 49 45 41 37 38 37 36 33 31 25 22 20 19 15 13 12 12 12 12 11 11 11 12 14 17 19 20 23 25 27 29 31 33 34 34
28 30 31 32 33 34 35 36 37 39 41 43 41 41 41 42 44 45 44 41 34 34 37 34 31 32 26 20 21 18 16 15 13 12 12 11 9 8 8 9 10 11 13 16 18 20 21 23 25 27 28 30 31 35
27 28 29 30 29 31 33 34 35 35 34 33 34 36 38 37 37 36 32 31 35 32 29 30 26 21 21 19 17 15 14 14 13 11 9 9 9 6 3 3 7 10 13 16 19 21 24 27 29 30 30 30 31 30
24 25 26 27 28 28 27 27 27 28 29 30 29 29 30 30 30 32 35 32 29 28 24 21 21 20 18 18 18 17 16 15 12 10 11 9 5 2 4 8 11 14 17 21 23 26 29 31 33 33 34 34 33 33
23 22 22 21 22 24 24 24 25 24 25 27 28 30 33 35 33 30 28 27 23 20 22 22 21 21 21 19 20 19 17 14 14 11 8 3 4 6 8 11 14 18 21 24 26 29 31 33 34 35 37 37 36 34
25 25 24 26 25 26 27 28 29 31 31 31 30 28 25 25 24 24 24 26 26 26 25 24 23 22 23 24 22 20 17 15 13 10 8 7 7 8 9 12 15 18 21 25 28 31 33 34 36 36 37 37 38 38
29 29 30 30 31 32 30 29 28 26 25 25 25 27 27 27 26 27 28 28 27 26 25 27 28 26 25 23 20 19 16 14 13 11 9 6 4 7 9 11 14 17 21 24 27 32 35 37 38 39 40 40 39 38
25 27 28 28 28 28 27 26 27 27 27 27 27 27 28 28 29 28 28 28 28 30 30 29 27 24 23 21 20 19 17 14 11 8 4 2 4 7 10 13 16 20 23 26 29 32 36 39 42 43 43 43 43 42
24 23 23 25 26 26 28 28 28 28 27 27 28 29 29 28 29 29 31 33 32 30 27 25 25 22 22 22 18 16 13 10 6 3 1 4 7 10 13 16 18 20 24 28 31 34 38 39 41 44 46 46 45 45
25 25 25 25 26 27 28 28 29 30 30 29 30 31 32 34 35 35 33 31 29 28 26 24 24 24 21 18 15 13 10 7 3 1 5 8 11 14 17 19 21 24 27 30 32 35 37 39 41 42 44 47 48 47
27 25 25 27 27 27 28 29 30 31 32 34 36 36 35 35 33 32 30 29 26 24 24 24 23 20 17 15 13 10 8 6 5 8 11 13 15 18 21 24 26 30 33 36 39 41 42 40 41 43 43 44 47 47
27 27 27 27 25 27 30 32 33 34 34 35 35 35 33 31 30 28 26 25 25 24 22 19 17 16 15 13 10 9 8 8 11 13 15 17 20 23 26 29 32 35 37 40 43 45 47 47 46 46 46 46 47 48
27 27 28 30 31 31 31 33 33 35 35 33 31 30 28 26 25 25 25 24 22 20 19 18 16 14 12 11 11 11 12 14 16 18 20 22 25 28 30 33 36 39 41 43 46 49 52 52 52 51 51 51 51 50
29 30 32 33 34 35 36 37 36 34 33 32 31 29 29 27 26 25 23 21 19 18 18 16 15 14 13 14 15 17 18 20 22 24 25 27 30 34 35 37 38 40 43 46 49 51 54 56 56 57 55 54 54 53
33 34 35 36 36 35 34 32 31 31 30 29 28 28 26 24 23 21 20 19 19 17 16 16 16 16 18 20 22 23 24 25 27 29 31 33 35 39 42 43 44 45 47 48 51 53 55 57 59 59 58 57 55 54
30 30 30 30 30 29 28 27 27 27 26 25 24 24 24 23 22 22 20 19 18 18 18 19 20 21 22 23 25 27 29 32 34 36 37 38 40 43 45 47 48 50 51 52 55 56 57 59 60 60 60 58 56 55
24 24 25 26 26 27 26 25 24 24 24 25 25 25 25 24 23 22 22 21 22 23 24 24 25 25 26 28 29 31 33 35 37 39 41 42 45 47 48 50 52 53 54 56 57 59 61 61 61 61 60 57 56 54

GFSWCAN_250_spd_126.txt.gz
Wind_Speed
57 60 64 65 64 66 65 67 65 67 66 62 63 62 51 49 49 46 45 44 39 37 36 35 33 33 37 39 40 44 47 47 43 41 39 38 35 35 32 29 27 27 26 23 23 23 22 23 25 34 38 53 56 57
57 61 65 66 64 64 67 68 65 62 60 57 59 66 56 51 50 49 41 40 41 41 36 36 36 38 39 42 45 43 43 42 44 40 39 38 36 36 33 30 26 24 25 25 25 26 26 25 26 30 38 44 56 60
57 61 66 67 65 64 67 66 65 62 58 56 51 51 58 52 51 48 45 44 41 38 40 44 42 41 40 44 43 40 41 46 41 41 40 39 37 34 33 29 26 24 24 27 28 27 28 29 29 28 30 39 43 50
55 62 65 68 67 64 65 66 65 63 58 54 51 50 49 49 50 45 48 47 47 46 47 45 45 41 45 39 38 42 44 41 41 42 40 38 38 34 33 32 28 27 27 26 30 31 30 31 32 31 31 33 37 45
54 61 65 68 67 63 62 65 66 63 58 54 51 51 49 46 46 41 44 47 49 48 48 47 45 40 36 38 42 43 42 43 42 39 39 38 37 35 35 34 31 30 29 28 28 33 33 33 33 34 35 36 35 37
51 57 63 66 68 66 62 64 65 65 63 61 58 54 54 52 49 44 45 47 48 50 48 39 35 35 40 43 41 42 42 42 38 39 38 38 37 37 36 36 34 35 33 31 30 31 35 35 35 37 36 37 37 37
56 59 64 68 70 68 64 61 62 63 66 64 60 57 55 52 51 52 51 49 47 44 35 36 40 38 39 38 38 39 40 37 36 36 35 36 38 39 37 38 38 38 36 34 33 30 31 34 35 36 38 38 38 39
55 60 63 67 68 70 67 63 62 61 61 62 62 60 56 55 51 53 50 46 43 41 41 42 39 39 37 36 39 39 37 36 35 35 37 39 40 38 38 40 39 39 39 36 31 30 29 29 31 34 37 39 38 40
52 58 60 63 66 69 68 65 62 61 59 59 58 58 57 56 55 56 55 50 48 44 41 40 36 34 35 38 39 37 35 35 35 37 39 39 38 38 39 40 40 39 37 32 29 28 28 29 29 31 34 36 37 36
50 55 58 61 63 65 67 66 63 60 58 55 56 57 55 53 50 49 44 40 38 38 36 38 36 36 37 38 37 35 33 34 37 38 38 38 40 40 40 41 39 35 31 28 26 26 26 26 27 29 32 34 35 35
47 50 53 58 61 63 64 66 64 61 60 59 57 57 54 51 48 46 43 41 40 39 38 39 38 37 36 37 35 35 35 37 38 38 38 36 42 42 41 39 33 29 26 24 24 24 24 24 25 26 29 32 35 36
44 48 50 53 55 57 60 63 65 65 64 61 59 56 54 52 50 47 46 44 44 41 41 38 37 36 36 35 35 35 37 38 37 36 37 38 43 42 37 33 27 24 23 22 22 22 22 23 25 27 29 31 34 36
39 43 46 46 47 53 59 65 65 64 63 59 58 56 53 51 51 50 50 53 49 39 37 36 36 37 36 36 37 37 36 37 36 36 36 40 40 36 29 25 22 21 20 20 20 21 21 22 23 24 26 28 30 32
34 37 39 38 42 51 57 60 63 62 61 60 59 58 55 52 52 54 56 49 46 41 39 39 39 39 37 36 36 35 36 36 37 36 39 36 33 27 22 20 19 17 18 18 18 19 21 22 24 25 26 27 28 30
30 32 34 37 40 44 49 53 57 59 58 57 58 55 53 54 54 57 56 49 42 40 39 39 39 39 35 36 35 35 36 38 35 38 34 29 24 20 18 16 15 16 16 17 18 19 20 21 23 25 27 29 30 31
31 32 34 37 40 43 45 48 51 54 53 50 53 54 53 53 53 52 50 43 40 41 39 38 37 36 35 35 36 35 37 34 36 31 26 21 18 16 14 14 14 14 14 15 15 17 19 20 21 23 25 28 30 31
29 30 31 33 35 37 43 46 45 46 45 43 43 48 51 52 51 51 47 45 44 43 42 39 38 36 35 36 36 34 35 33 28 23 19 17 15 13 13 11 9 9 12 16 13 15 17 18 20 22 24 26 27 28
29 29 29 31 36 40 41 40 39 39 40 42 42 44 46 45 47 48 46 47 45 42 40 39 36 35 37 36 31 34 29 25 21 19 16 14 12 10 7 7 11 10 7 10 12 15 18 22 26 29 31 32 32 31
26 26 26 27 30 32 35 37 37 38 40 39 38 37 38 40 43 44 42 41 40 38 37 35 35 37 34 29 32 24 21 19 18 16 14 13 8 6 9 9 4 5 8 11 15 19 22 25 28 30 31 32 35 37
26 27 26 27 28 30 31 33 33 33 31 31 31 33 35 37 37 37 36 35 33 33 33 36 36 28 29 27 22 21 21 19 16 14 14 10 9 10 7 2 3 7 11 15 19 22 25 28 30 33 35 36 37 38
25 27 27 27 26 26 25 25 26 27 28 30 31 32 32 33 33 32 32 34 36 35 35 26 27 29 24 23 22 22 20 17 16 16 12 10 11 7 5 5 5 8 12 14 17 20 24 28 30 33 35 37 39 40
22 23 24 25 26 26 27 27 28 28 28 29 30 32 34 34 34 35 35 33 31 29 27 29 26 25 24 24 23 21 19 19 18 15 14 12 10 7 5 3 4 7 10 14 17 21 25 28 32 34 38 40 42 44
23 25 26 26 27 28 29 29 29 29 30 30 31 31 30 29 28 28 27 24 25 26 24 25 25 25 25 24 22 22 22 19 18 16 15 12 8 4 1 1 5 9 12 14 17 21 24 28 33 37 41 43 46 48
26 26 27 29 29 29 29 28 27 27 25 24 25 25 25 25 26 26 26 26 26 27 27 26 26 25 24 24 25 22 20 19 18 16 12 9 5 3 2 5 8 12 16 18 21 24 27 30 33 36 39 42 44 47
23 23 22 22 23 23 24 24 24 24 24 24 25 25 26 26 26 26 27 27 27 28 27 27 27 27 26 22 23 22 22 21 17 13 9 8 6 4 6 10 15 18 20 23 26 29 31 33 35 38 41 43 45 46
19 20 22 22 22 24 25 25 25 26 26 27 26 26 27 27 28 27 27 28 28 28 29 29 27 25 25 24 25 24 21 17 14 12 10 7 7 10 13 16 19 22 24 27 31 34 37 39 41 43 45 46 48 48
23 21 19 19 19 20 21 23 24 25 26 27 28 29 29 28 27 28 29 30 31 30 27 26 26 25 25 24 22 18 16 15 14 12 11 12 13 16 19 21 23 26 28 32 35 38 41 44 47 49 50 50 51 52
22 23 24 23 22 20 20 22 23 24 24 24 25 25 26 26 27 28 30 28 26 25 24 24 24 24 23 21 18 17 15 14 14 15 15 16 18 20 24 27 29 31 32 35 37 40 43 45 48 53 57 57 56 56
20 20 21 22 22 23 22 19 18 19 21 24 26 28 30 30 30 29 28 26 25 24 24 23 23 20 18 16 15 16 16 17 18 19 20 21 23 26 30 32 34 36 37 40 42 44 46 48 49 51 54 57 59 59
18 18 20 20 20 21 22 23 24 26 28 31 32 32 31 29 28 26 25 24 23 22 21 20 19 17 17 18 18 18 19 20 22 23 25 27 29 32 34 36 38 40 42 45 47 49 50 52 52 54 56 56 58 59
18 20 22 24 25 26 27 30 32 32 32 30 28 26 25 23 23 22 21 21 20 20 19 19 20 19 19 20 21 22 23 24 26 28 30 32 34 36 38 40 42 43 46 48 50 52 54 55 56 58 59 60 60 60
17 18 19 21 24 28 30 29 29 27 26 24 23 23 22 22 22 21 20 20 20 20 19 20 21 22 23 24 24 26 28 29 32 34 36 38 40 41 43 45 47 49 50 52 53 55 56 57 59 60 61 62 62 61
15 16 18 20 22 24 23 22 21 21 21 21 21 21 21 20 20 19 20 20 21 21 23 24 25 26 27 28 29 31 33 35 37 38 40 43 45 47 48 49 51 52 54 55 56 58 59 60 61 62 63 63 63 62

GFSWCAN_250_spd_129.txt.gz
Wind_Speed
54 56 55 57 63 66 67 69 72 71 70 75 72 66 55 52 54 49 45 41 38 33 28 32 33 31 29 29 29 28 31 32 35 37 42 43 39 36 33 30 30 30 29 27 24 22 21 19 19 32 36 48 54 57
53 57 55 58 63 67 66 68 70 75 73 72 72 70 61 58 52 42 43 43 43 37 28 30 27 28 28 30 32 30 30 34 36 40 43 39 39 35 34 34 31 28 27 26 27 25 22 21 22 24 33 41 49 55
53 55 56 58 62 67 65 67 68 72 72 69 67 69 68 66 57 51 42 44 38 34 32 33 32 33 35 34 31 32 34 34 40 41 39 41 39 38 36 34 32 30 30 29 28 29 28 26 24 25 27 34 44 49
49 51 54 59 62 67 66 66 66 65 68 70 68 65 64 59 54 54 43 40 35 34 35 38 37 38 37 33 33 35 35 39 38 36 42 42 40 38 38 35 32 32 33 31 31 31 30 31 30 27 29 31 36 43
46 50 55 60 63 67 66 66 65 63 62 62 58 56 54 57 56 55 52 48 43 39 39 40 40 38 36 34 35 37 41 36 36 40 42 42 41 38 37 34 32 33 34 33 32 32 32 32 35 33 30 30 32 38
47 50 56 61 64 66 66 66 63 60 59 58 53 51 49 50 51 52 56 48 47 45 42 44 43 40 38 39 39 39 34 34 41 41 40 41 40 37 34 33 34 35 35 34 34 34 34 34 34 36 33 32 31 33
46 49 56 60 63 65 65 65 62 60 58 57 55 53 51 48 46 44 49 49 49 42 43 47 45 43 41 40 43 36 32 36 37 38 40 40 38 36 35 37 36 36 35 35 36 36 35 34 34 34 33 32 31 32
44 48 55 61 62 64 64 63 62 60 57 56 58 57 52 50 49 46 44 43 42 39 38 38 41 40 40 40 34 33 36 36 37 39 39 37 36 36 37 37 36 35 37 36 37 36 34 32 31 30 30 30 31 33
45 50 56 60 62 64 64 62 61 59 58 57 54 52 46 44 43 41 43 38 40 39 40 41 41 41 38 32 34 36 35 34 38 39 37 36 35 36 36 37 36 37 38 39 36 32 29 27 28 27 28 29 31 33
47 51 56 60 61 63 64 62 61 60 59 58 56 53 49 48 45 43 44 44 43 44 47 41 38 38 34 34 34 33 31 34 37 35 35 36 37 36 35 37 37 37 36 34 29 27 25 25 25 26 27 29 30 31
44 46 54 58 60 61 62 62 61 62 60 58 57 54 55 51 47 46 46 44 44 45 42 41 39 38 38 34 31 31 33 34 34 34 36 37 38 36 35 36 36 36 32 27 24 23 24 24 23 23 24 25 28 30
41 44 49 53 56 59 61 62 62 61 60 59 57 57 57 56 53 52 50 48 45 45 43 40 39 35 32 27 28 30 32 32 34 36 35 34 37 36 34 35 35 31 26 23 22 20 19 19 20 21 22 23 25 27
39 42 47 52 55 57 60 60 59 58 57 55 55 55 55 54 54 53 51 47 45 42 40 37 34 29 25 26 27 30 32 34 35 35 33 35 35 35 33 34 30 25 23 21 18 18 18 18 18 19 20 21 22 24
37 39 43 50 54 55 55 57 59 58 57 55 54 53 51 49 48 49 48 46 44 41 37 33 32 30 28 27 30 32 34 34 33 32 34 34 32 33 32 28 23 21 18 16 16 15 14 14 15 17 20 21 23 25
30 34 39 43 46 48 51 55 55 56 57 56 53 51 50 49 48 46 42 40 38 37 35 34 31 28 28 31 32 34 34 33 30 34 33 32 31 30 27 22 19 15 14 13 11 11 12 14 16 16 18 20 22 24
29 30 32 33 37 45 50 51 53 54 54 53 51 51 50 50 49 45 41 39 36 35 34 33 32 30 30 32 34 32 32 30 33 32 31 30 29 25 21 18 14 13 9 8 9 13 11 11 12 15 17 20 22 24
25 27 31 36 40 41 44 47 47 48 49 52 54 54 55 53 48 44 40 39 37 36 36 34 30 30 31 34 32 30 31 33 32 30 31 27 24 20 17 12 11 7 5 11 6 7 9 13 16 19 22 25 27 29
26 27 30 33 37 39 38 38 41 46 49 51 52 54 54 52 49 44 42 41 40 37 34 32 30 31 35 35 31 31 33 33 30 29 26 23 18 15 12 10 5 5 5 4 4 8 12 16 20 24 26 27 30 32
22 23 25 28 32 34 39 43 44 45 45 43 42 43 45 45 46 44 42 40 40 38 35 33 34 40 40 32 31 35 35 28 29 25 22 17 16 11 10 7 6 5 2 3 6 10 14 16 19 21 24 27 29 32
24 26 29 31 34 34 33 30 33 35 36 36 36 36 37 40 42 41 39 39 38 36 35 39 45 41 34 33 34 36 27 28 23 21 17 16 13 13 11 8 8 5 3 3 6 9 11 13 17 20 22 25 28 31
24 25 26 26 27 28 27 28 29 29 29 31 32 31 35 39 41 40 39 38 37 38 41 41 37 32 33 32 31 27 26 23 21 17 17 16 16 13 11 12 9 5 2 1 5 7 11 16 19 23 26 29 32 36
19 19 19 20 22 23 24 26 28 29 30 32 34 35 36 36 36 37 37 37 38 37 38 32 29 32 30 26 26 23 22 21 19 19 18 18 16 15 15 11 8 5 4 5 7 11 15 18 22 25 27 30 33 36
21 21 22 22 22 24 26 28 29 30 31 32 33 34 35 35 36 35 35 34 31 30 26 24 29 25 23 23 23 22 20 20 20 20 19 18 18 17 13 10 9 8 7 8 12 16 20 23 25 27 29 32 35 37
21 23 23 22 21 21 20 22 24 26 27 27 28 28 29 29 29 27 24 22 23 27 29 26 24 24 23 23 24 24 24 23 24 23 22 21 19 14 13 12 12 10 10 14 18 22 25 27 29 32 34 36 37 38
19 19 19 19 20 19 19 20 20 21 21 21 22 22 22 22 21 21 24 28 30 26 24 25 24 24 25 25 24 25 26 26 26 25 24 21 18 16 14 15 14 14 16 20 24 25 27 30 33 36 39 41 44 45
15 15 15 16 17 17 18 19 19 20 20 20 21 21 22 23 26 28 27 25 24 25 25 25 26 25 25 26 27 27 25 24 23 23 21 18 17 17 17 16 16 20 23 25 28 30 31 34 37 39 42 45 47 50
18 18 17 17 16 15 15 16 17 18 18 19 20 22 23 24 23 23 23 23 23 24 25 24 24 25 25 25 25 24 24 26 25 23 20 19 19 19 18 20 22 24 26 29 32 34 36 38 41 42 45 47 49 52
15 17 18 18 17 17 15 14 14 14 15 17 18 19 19 19 20 21 22 23 24 24 24 26 26 25 25 24 24 26 27 26 23 21 21 21 21 21 23 24 25 28 30 32 35 37 40 42 44 46 48 50 52 54
15 15 15 16 16 17 16 16 17 17 17 17 17 19 22 24 24 25 25 25 26 26 26 25 25 25 25 26 26 25 23 22 22 22 21 21 22 25 27 28 30 33 36 37 39 41 43 45 47 50 52 53 55 56
12 12 12 13 14 17 18 18 18 19 20 21 22 22 22 22 23 24 25 25 25 24 24 24 24 24 23 23 23 22 22 22 22 23 23 24 27 29 31 33 35 37 39 41 43 45 47 49 51 53 54 56 57 57
11 12 13 14 15 16 17 18 19 20 20 19 20 21 21 24 24 24 24 23 22 22 21 21 21 21 22 23 23 23 24 24 25 25 26 28 31 33 35 36 38 40 42 45 48 51 52 54 55 57 58 59 59 60
10 11 12 12 13 14 15 15 16 17 19 20 21 22 23 24 23 22 21 20 20 20 21 21 22 22 23 23 24 24 25 27 28 30 31 33 34 36 38 41 43 46 48 51 53 54 56 57 58 59 60 60 61 62
11 11 11 11 11 13 14 15 16 18 19 20 20 20 21 21 20 20 20 20 20 21 22 22 23 23 24 25 26 27 29 30 31 33 35 37 40 42 44 46 49 51 54 55 56 58 58 59 60 60 61 62 62 63

GFSWCAN_250_spd_132.txt.gz
Wind_Speed
49 51 52 52 53 57 61 62 63 61 65 69 76 75 69 64 61 50 47 39 34 31 27 22 25 25 30 33 41 40 38 35 36 36 38 40 43 42 43 46 47 41 35 32 29 27 26 27 27 27 31 33 34 38
48 51 54 53 53 57 61 62 63 61 61 64 72 79 72 68 60 55 52 44 39 33 32 25 26 29 29 31 36 38 43 38 34 35 37 39 37 40 44 43 40 36 34 30 30 29 29 28 28 28 28 33 35 37
48 51 54 53 53 57 61 63 63 62 60 65 67 69 68 66 61 54 48 46 36 30 27 25 24 27 29 30 33 33 33 32 35 39 37 36 39 42 43 43 37 36 33 32 30 30 32 31 30 29 29 30 32 37
47 51 53 53 53 57 62 64 64 64 64 65 63 70 69 64 60 56 50 35 35 29 32 30 26 28 30 32 32 32 32 35 38 37 36 39 41 43 44 41 37 35 33 31 29 32 33 33 34 33 33 32 33 34
46 47 51 52 53 58 63 64 64 63 64 66 65 64 68 64 61 57 51 45 34 25 26 31 29 33 33 33 34 34 36 37 36 35 37 41 42 44 43 39 37 35 33 31 34 36 35 35 35 35 37 38 37 36
45 49 51 52 54 57 62 65 63 61 62 65 66 67 66 61 59 57 52 43 37 35 32 28 29 35 36 37 37 36 39 34 34 37 39 41 42 43 40 39 37 35 34 35 37 37 37 36 37 38 38 40 42 39
48 47 50 52 54 57 62 64 63 60 62 62 65 67 66 62 59 59 55 54 43 40 38 35 32 38 41 41 40 37 37 35 37 40 43 40 42 42 40 40 37 35 35 38 38 38 39 39 39 39 39 40 40 39
46 46 48 51 54 58 62 63 62 60 60 59 60 62 62 63 60 59 57 51 47 46 43 40 40 40 41 40 41 40 38 37 37 40 39 40 41 41 41 38 36 37 39 40 39 40 39 39 38 35 34 34 34 34
43 44 46 49 53 58 62 62 62 62 60 59 59 57 56 57 61 58 54 49 47 47 44 45 46 43 41 43 43 41 38 37 41 40 40 41 41 41 38 36 37 39 39 39 39 39 38 34 30 29 28 27 27 29
42 44 45 48 52 56 60 60 61 60 58 57 56 55 54 52 53 48 43 42 44 46 48 49 47 45 40 38 37 36 38 42 40 38 39 40 40 37 36 38 39 37 38 39 39 36 31 27 24 23 23 23 24 25
42 45 45 47 52 57 58 60 62 61 58 56 53 52 52 53 50 47 44 47 46 47 49 49 45 40 39 38 37 39 40 39 39 40 41 41 37 35 36 37 36 37 37 36 34 28 25 24 21 18 18 18 19 20
43 44 45 47 52 57 59 59 61 60 58 56 54 51 50 50 48 44 46 50 48 48 47 46 42 41 40 39 39 39 37 39 39 39 37 38 35 35 33 35 36 36 35 30 25 23 21 18 18 18 17 18 18 19
41 42 45 48 52 55 55 55 58 58 57 55 52 49 47 46 44 44 49 49 47 49 47 41 39 39 39 37 37 36 36 38 36 33 34 36 34 32 33 33 34 34 29 23 20 16 16 15 15 14 13 14 16 16
36 38 41 45 50 52 54 55 57 59 59 57 53 50 47 45 45 45 48 47 45 43 41 40 39 41 39 36 36 35 36 35 31 32 33 34 32 32 32 33 34 29 22 19 15 14 13 10 11 11 12 13 14 17
35 39 41 43 47 51 54 56 56 58 57 55 52 51 49 47 46 44 46 46 45 43 43 41 40 39 37 37 36 36 34 32 31 33 32 31 31 31 32 32 29 22 17 15 13 10 9 10 10 8 7 8 10 11
32 36 39 42 46 49 51 53 53 54 54 55 53 52 50 48 47 46 45 46 47 46 43 42 43 40 39 38 37 35 32 30 33 32 29 31 30 32 31 28 22 17 15 12 10 9 8 6 5 5 7 10 13 16
28 32 35 35 39 44 47 47 49 50 51 52 55 54 52 50 48 45 46 46 45 43 42 41 41 41 42 40 35 33 31 32 32 29 30 31 31 31 27 23 19 15 12 10 8 6 6 3 2 6 10 13 16 18
26 29 33 34 36 42 46 48 48 49 52 53 53 53 52 51 51 50 49 47 46 44 42 41 40 39 39 36 31 32 32 33 30 29 31 33 30 28 24 21 16 13 12 10 8 6 3 2 5 8 10 13 16 19
24 29 33 37 40 42 43 44 46 49 50 51 52 53 51 51 50 48 47 45 44 43 41 39 38 42 40 32 32 33 33 32 30 31 32 31 29 25 22 18 16 15 14 12 10 7 3 3 5 7 11 15 18 21
29 30 32 33 33 37 38 40 43 46 48 50 51 50 50 50 50 48 46 45 43 41 40 41 47 43 34 32 32 33 34 33 31 32 31 30 27 23 20 18 18 17 15 12 10 6 6 7 8 11 15 20 24 26
26 30 31 33 35 38 40 40 41 45 44 43 43 44 44 44 45 45 44 44 44 43 44 46 44 35 34 35 37 38 37 31 31 32 31 27 24 23 21 21 19 19 16 13 10 10 10 10 12 16 20 23 26 28
23 22 21 21 21 21 21 22 25 25 31 33 36 39 40 40 40 40 41 43 43 44 46 46 41 38 38 40 39 38 34 31 34 32 28 25 25 24 22 21 23 21 17 14 14 15 14 14 16 20 25 28 30 31
22 23 22 21 20 22 25 29 31 33 34 34 36 37 37 38 39 41 42 44 45 45 45 44 41 40 41 39 38 34 33 35 32 29 27 26 26 25 25 25 25 21 19 18 18 18 17 18 22 26 28 30 32 34
19 19 20 20 21 21 22 25 27 29 30 31 32 33 34 36 38 39 40 40 39 39 39 38 38 39 37 34 32 36 35 31 29 28 28 28 28 27 25 27 25 23 22 22 22 22 20 22 27 29 31 34 36 39
16 16 16 16 16 18 19 21 21 22 24 26 27 27 28 28 31 31 32 32 32 32 33 33 33 32 30 35 36 32 30 29 29 29 29 29 27 26 28 28 25 25 25 24 24 24 25 28 31 33 36 38 41 42
14 15 15 15 15 15 15 16 18 19 20 21 22 22 23 23 23 24 25 28 30 32 33 32 31 33 34 32 30 29 29 29 29 28 28 25 25 29 31 29 27 25 26 25 26 27 29 32 34 37 39 41 42 45
16 16 16 18 18 18 17 17 16 16 16 18 19 20 22 24 26 29 32 31 30 28 28 30 31 30 28 28 27 27 28 27 27 27 27 29 32 34 32 28 27 27 27 28 29 30 33 35 37 39 42 43 45 48
14 15 16 17 18 19 19 18 18 19 19 19 20 22 24 25 24 21 22 25 27 28 28 27 27 27 27 27 27 27 28 29 29 29 31 33 34 32 29 27 27 28 29 30 32 33 35 37 40 42 45 47 50 52
10 10 12 13 14 15 15 16 17 17 17 17 18 19 19 18 20 22 23 24 24 24 25 25 25 26 26 26 26 28 28 28 29 31 33 33 31 30 29 30 30 30 32 33 34 36 39 42 44 46 48 51 53 56
10 10 11 11 12 13 14 15 15 16 16 17 19 20 20 20 20 21 21 22 23 24 24 24 25 25 25 26 26 27 27 28 29 31 32 32 31 30 30 30 31 32 34 36 39 42 43 45 48 50 53 55 58 60
9 10 11 11 11 12 13 14 15 15 15 16 16 17 18 19 20 21 22 22 22 23 24 24 24 24 24 24 25 26 28 28 29 29 30 30 30 30 31 32 34 36 38 40 43 45 47 50 52 55 58 60 62 63
7 7 8 9 10 12 12 13 13 13 14 14 16 16 17 18 20 22 23 24 24 23 23 23 23 24 25 25 26 27 27 28 28 29 29 30 30 32 34 36 37 39 42 44 47 49 52 55 58 60 62 63 64 64
7 6 6 6 7 8 9 11 13 14 14 14 13 13 15 17 19 21 20 21 21 21 21 21 22 23 24 25 26 26 27 28 29 30 31 32 33 35 38 40 42 44 47 49 52 55 57 59 61 62 63 64 64 65

GFSWCAN_250_spd_135.txt.gz
Wind_Speed
46 49 50 51 53 53 55 60 67 66 66 61 67 61 62 58 55 45 41 38 37 33 32 29 27 25 26 32 35 35 37 35 32 32 34 36 38 40 40 45 49 49 51 54 51 47 44 40 38 36 33 33 33 33
48 49 51 53 54 54 56 61 65 65 67 67 70 69 68 66 55 53 50 39 32 33 30 29 27 23 25 29 33 32 32 29 33 37 36 35 36 40 44 44 44 47 51 49 48 44 41 40 37 35 33 33 33 35
47 49 51 52 53 54 56 62 65 65 65 69 72 74 68 69 67 60 52 40 32 26 22 25 28 24 24 25 29 33 37 40 38 38 36 37 39 42 43 41 44 50 50 49 46 42 39 36 34 34 35 34 34 34
48 50 51 52 53 54 56 61 63 65 70 67 71 74 69 68 69 61 51 42 37 38 32 26 28 25 27 27 30 32 34 37 39 39 40 40 42 43 43 45 48 51 49 48 45 41 37 35 35 35 36 36 37 37
47 49 50 51 53 54 57 60 63 67 70 72 71 74 69 69 64 58 53 46 41 39 32 27 29 28 25 26 30 33 32 34 35 35 36 40 41 42 44 46 49 49 49 45 43 40 38 38 38 38 37 38 39 40
46 47 49 51 53 53 56 59 62 66 66 67 66 72 72 70 68 63 60 48 43 36 24 29 34 30 28 25 31 33 33 32 31 33 38 38 39 41 44 47 49 50 46 44 42 39 39 41 41 40 40 41 42 43
45 46 47 49 51 52 55 58 61 63 62 63 62 67 72 67 65 66 64 55 47 39 34 25 23 29 31 31 32 35 32 32 36 36 37 40 42 44 45 48 48 48 44 43 41 40 42 43 42 41 41 41 41 39
42 44 45 48 50 53 55 57 59 62 61 60 61 59 61 64 64 61 59 54 46 41 35 34 28 29 28 28 35 36 36 37 39 40 39 41 43 44 47 48 49 46 44 42 41 42 42 41 41 41 39 36 33 32
42 42 43 46 49 52 54 55 58 60 60 60 60 60 60 58 57 60 57 50 41 41 36 37 31 34 32 30 30 36 39 40 41 42 42 42 44 44 47 49 46 46 45 42 42 41 40 40 40 36 32 29 27 26
41 41 43 45 49 52 53 56 58 58 59 60 59 59 58 59 58 59 57 52 42 45 42 40 42 40 39 37 34 34 39 42 44 44 44 44 45 47 49 49 46 45 43 42 40 40 40 39 33 28 25 24 22 21
39 40 41 44 47 51 54 55 58 59 58 58 58 59 61 60 57 57 54 52 48 46 45 46 46 45 41 39 39 41 41 42 43 43 43 45 46 47 49 47 46 44 42 40 39 39 36 30 26 23 19 19 18 17
38 41 41 43 46 51 54 55 58 60 61 60 60 61 62 62 60 57 55 53 54 54 52 50 49 47 43 44 44 44 44 44 43 43 44 45 45 47 45 46 45 41 39 38 38 35 29 25 20 18 16 15 15 15
40 41 42 44 48 51 53 55 57 60 61 60 56 53 52 51 49 49 51 55 57 59 57 54 50 48 46 47 47 47 45 44 45 44 46 46 44 42 45 45 41 37 36 36 34 29 25 20 17 15 13 12 11 11
40 41 42 43 47 51 53 55 59 61 61 59 54 51 48 44 44 48 48 51 55 52 51 50 48 48 50 50 48 47 47 46 45 43 43 40 39 43 43 40 36 34 35 34 28 24 20 18 13 11 10 11 12 10
39 40 43 44 47 50 54 56 58 59 59 57 54 51 49 48 49 50 51 52 50 47 49 53 52 50 49 48 48 48 46 43 41 39 39 38 41 43 41 36 34 34 34 29 24 20 17 13 11 10 9 9 8 4
36 36 40 43 45 47 50 53 56 57 57 56 54 53 51 49 50 53 53 54 54 51 50 53 51 50 51 50 49 46 42 39 38 39 38 40 43 42 37 34 33 34 32 26 21 18 15 13 12 12 9 7 6 7
32 34 37 39 42 45 48 51 53 54 55 55 54 52 51 50 51 50 51 54 53 51 50 52 51 51 52 50 48 43 36 37 42 38 39 43 44 39 35 34 33 33 29 23 20 16 16 15 15 12 11 9 7 8
30 33 35 36 38 41 45 50 51 53 55 55 54 54 52 51 51 50 51 51 50 49 52 52 50 49 48 45 42 39 40 43 39 40 43 44 40 36 35 35 32 31 26 22 20 18 18 18 16 14 10 8 9 11
29 31 33 33 36 39 43 46 49 51 53 54 55 54 53 52 51 50 48 47 47 47 46 47 47 49 48 44 41 39 41 42 42 43 44 41 38 37 36 35 32 29 24 23 21 20 21 20 17 14 13 13 13 15
28 30 32 34 35 38 41 44 46 49 51 54 55 56 55 54 53 52 50 49 48 47 46 46 50 49 44 41 42 42 42 44 45 43 41 40 39 39 37 34 31 28 26 25 23 23 24 22 18 16 17 17 17 19
25 29 33 35 36 37 41 44 47 48 50 52 53 54 55 55 55 53 52 51 50 50 51 52 52 49 45 44 46 46 46 46 44 41 41 42 41 40 37 34 32 29 28 26 24 26 26 23 21 20 21 21 21 23
24 25 28 30 32 33 34 37 41 45 47 49 51 52 53 54 55 55 54 53 51 52 52 53 53 50 48 47 47 46 47 46 44 43 44 45 42 40 36 34 32 30 30 28 28 30 28 25 25 25 24 24 25 28
18 18 20 20 24 23 21 17 16 26 25 32 42 42 45 47 49 51 52 53 54 54 54 54 53 50 47 47 47 50 49 46 46 47 47 45 42 39 36 34 32 32 32 29 31 32 30 28 27 27 28 27 28 32
17 15 16 20 23 25 26 27 27 28 32 33 35 39 38 40 42 42 46 49 52 51 52 53 52 51 48 48 52 51 49 50 49 48 46 43 40 38 36 34 33 33 32 33 33 34 32 30 30 30 30 30 33 35
15 15 13 14 16 20 22 24 25 26 27 29 31 33 36 37 39 43 46 48 49 49 50 50 51 51 50 50 51 50 49 48 49 47 43 40 38 37 35 33 33 32 33 36 37 36 32 31 33 33 34 35 37 40
16 16 16 16 16 18 19 21 21 22 23 24 25 27 30 33 36 39 41 43 47 50 50 49 49 47 47 47 45 43 45 46 44 41 39 37 37 36 35 34 35 36 39 37 35 33 33 35 36 36 37 39 41 43
14 15 15 15 16 18 18 20 21 21 21 22 23 25 26 28 30 32 34 37 38 39 40 41 41 41 42 41 41 44 43 39 38 37 37 36 35 35 36 37 38 38 35 34 35 35 36 37 38 39 40 42 45 46
12 13 14 15 16 17 17 19 20 21 23 24 25 26 27 28 29 32 34 34 35 35 35 36 37 37 38 39 38 36 36 36 36 35 35 35 35 36 36 37 36 35 35 35 35 36 38 39 41 42 43 46 47 50
7 7 9 11 12 14 16 17 18 20 21 22 23 24 24 25 26 26 27 27 28 29 30 32 32 32 33 33 33 33 34 34 34 34 35 34 35 35 34 34 34 35 36 37 38 39 40 41 43 45 47 49 51 53
9 9 9 9 10 11 12 13 14 15 16 16 16 17 17 18 20 22 24 25 26 27 28 28 28 29 30 30 31 31 31 32 32 32 32 32 33 33 33 33 34 35 36 37 39 41 42 44 46 48 50 52 55 57
6 6 6 7 8 10 12 13 15 15 15 15 16 17 19 21 21 21 22 22 23 24 25 26 27 27 28 28 29 29 30 29 29 29 30 30 30 31 32 33 34 35 37 40 41 43 45 47 49 51 54 56 59 61
4 5 5 6 6 7 9 10 11 12 13 14 15 16 17 17 18 19 19 20 20 21 23 24 24 25 25 25 26 26 26 27 28 28 29 29 29 29 30 32 34 37 40 42 43 45 48 51 53 56 59 61 63 64
4 5 5 5 5 5 6 7 9 10 11 11 12 13 14 14 15 16 18 19 20 21 22 22 22 22 23 25 25 25 25 26 26 27 27 28 29 31 33 35 38 40 42 45 48 50 53 55 58 60 62 64 65 67